[[{"header":{"parameterUnit":"m.s-1","parameterCategory":1,"la1":31.0,"la2":29.5877,"lo1":-88.7671,"lo2":-86.6584,"dy":0.0162,"dx":0.0185,"nx":115,"ny":88,"refTime":"2026-05-12T12:00:00:Z","depth":0,"parameterNumber":2,"parameterNumberName":"U-component_of_WINDS"},"data":[0.0,0.0,0.0,0.0,0.0,0.0,0.0,0.0,0.0,0.0,0.0,0.0,0.0,0.0,0.0,0.0,0.0,0.0,0.0,0.0,0.0,0.0,0.0,0.0,0.0,0.0,0.0,0.0,0.0,0.0,0.0,0.0,0.0,0.0,0.0,0.0,0.0,0.0,0.0,0.0,0.0,0.0,0.0,0.0,0.0,0.0,0.0,0.0,0.0,0.0,0.0,0.0,0.0,0.0,0.0,0.0,0.0,0.0,0.0,0.0,0.0,0.0,0.0,0.0,0.0,0.0,0.0,0.0,0.0,0.0,0.0,0.0,0.0,0.0,0.0,0.0,0.0,0.0,0.0,0.0,0.0,0.0,0.0,0.0,0.0,0.0,0.0,0.0,0.0,0.0,0.0,0.0,0.0,0.0,0.0,0.0,0.0,0.0,0.0,0.0,0.0,0.0,0.0,0.0,0.0,0.0,0.0,0.0,0.0,0.0,0.0,0.0,0.0,0.0,0.0,0.0,0.0,0.0,0.0,0.0,0.0,0.0,0.0,0.0,0.0,0.0,0.0,0.0,0.0,0.0,0.0,0.0,0.0,0.0,0.0,0.0,0.0,0.0,0.0,0.0,0.0,0.0,0.0,0.0,0.0,0.0,0.0,0.0,0.0,0.0,0.0,0.0,0.0,0.0,0.0,0.0,0.0,0.0,0.0,0.0,0.0,0.0,0.0,0.0,0.0,0.0,0.0,0.0,0.0,0.0,0.0,0.0,0.0,0.0,0.0,0.0,0.0,0.0,0.0,0.0,0.0,0.0,0.0,0.0,0.0,0.0,0.0,0.0,0.0,0.0,0.0,0.0,0.0,0.0,0.0,0.0,0.0,0.0,0.0,0.0,0.0,0.0,0.0,0.0,0.0,0.0,0.0,0.0,0.0,0.0,0.0,0.0,0.0,0.0,0.0,0.0,0.0,0.0,0.0,0.0,0.0,0.0,0.0,0.0,0.0,0.0,0.0,0.0,0.0,0.0,0.0,0.0,0.0,0.0,0.0,0.0,0.0,0.0,0.0,0.0,0.0,0.0,0.0,0.0,0.0,0.0,0.0,0.0,0.0,0.0,0.0,0.0,0.0,0.0,0.0,0.0,0.0,0.0,0.0,0.0,0.0,0.0,0.0,0.0,0.0,0.0,0.0,0.0,0.0,0.0,0.0,0.0,0.0,0.0,0.0,0.0,0.0,0.0,0.0,0.0,0.0,0.0,0.0,0.0,0.0,0.0,0.0,0.0,0.0,0.0,0.0,0.0,0.0,0.0,0.0,0.0,0.0,0.0,0.0,0.0,0.0,0.0,0.0,0.0,0.0,0.0,0.0,0.0,0.0,0.0,0.0,0.0,0.0,0.0,0.0,0.0,0.0,0.0,0.0,0.0,0.0,0.0,0.0,0.0,0.0,0.0,0.0,0.0,0.0,0.0,0.0,0.0,0.0,0.0,0.0,0.0,0.0,0.0,0.0,0.0,0.0,0.0,0.0,0.0,0.0,0.0,0.0,0.0,0.0,0.0,0.0,0.0,0.0,0.0,0.0,0.0,0.0,0.0,0.0,0.0,0.0,0.0,0.0,0.0,0.0,0.0,0.0,0.0,0.0,0.0,0.0,0.0,0.0,0.0,0.0,0.0,0.0,0.0,0.0,0.0,0.0,0.0,0.0,0.0,0.0,0.0,0.0,0.0,0.0,0.0,0.0,0.0,0.0,0.0,0.0,0.0,0.0,0.0,0.0,0.0,0.0,0.0,0.0,0.0,0.0,0.0,0.0,0.0,0.0,0.0,0.0,0.0,0.0,0.0,0.0,0.0,0.0,0.0,0.0,0.0,0.0,0.0,0.0,0.0,0.0,0.0,0.0,0.0,0.0,0.0,0.0,0.0,0.0,0.0,0.0,0.0,0.0,0.0,0.0,0.0,0.0,0.0,0.0,0.0,0.0,0.0,0.0,0.0,0.0,0.0,0.0,0.0,0.0,0.0,0.0,0.0,0.0,0.0,0.0,0.0,0.0,0.0,0.0,0.0,0.0,0.0,0.0,0.0,0.0,0.0,0.0,0.0,0.0,0.0,0.0,0.0,0.0,0.0,0.0,0.0,0.0,0.0,0.0,0.0,0.0,0.0,0.0,0.0,0.0,0.0,0.0,0.0,0.0,0.0,0.0,0.0,0.0,0.0,0.0,0.0,0.0,0.0,0.0,0.0,0.0,0.0,0.0,0.0,0.0,0.0,0.0,0.0,0.0,0.0,0.0,0.0,0.0,0.0,0.0,0.0,0.0,0.0,0.0,0.0,0.0,0.0,0.0,0.0,0.0,0.0,0.0,0.0,0.0,0.0,0.0,0.0,0.0,0.0,0.0,0.0,0.0,0.0,0.0,0.0,0.0,0.0,0.0,0.0,0.0,0.0,0.0,0.0,0.0,0.0,0.0,0.0,0.0,0.0,0.0,0.0,0.0,0.0,0.0,0.0,0.0,0.0,0.0,0.0,0.0,0.0,0.0,0.0,0.0,0.0,0.0,0.0,0.0,0.0,0.0,0.0,0.0,0.0,0.0,0.0,0.0,0.0,0.0,0.0,0.0,0.0,0.0,0.0,0.0,0.0,0.0,0.0,0.0,0.0,0.0,0.0,0.0,0.0,0.0,0.0,0.0,0.0,0.0,0.0,0.0,0.0,0.0,0.0,0.0,0.0,0.0,0.0,0.0,0.0,0.0,0.0,0.0,0.0,0.0,0.0,0.0,0.0,0.0,0.0,0.0,0.0,0.0,0.0,0.0,0.0,0.0,0.0,0.0,0.0,0.0,0.0,0.0,0.0,0.0,0.0,0.0,0.0,0.0,0.0,0.0,0.0,0.0,0.0,0.0,0.0,0.0,0.0,0.0,0.0,0.0,0.0,0.0,0.0,0.0,0.0,0.0,0.0,0.0,0.0,0.0,0.0,0.0,0.0,0.0,0.0,0.0,0.0,0.0,0.0,0.0,0.0,0.0,0.0,0.0,0.0,0.0,0.0,0.0,0.0,0.0,0.0,0.0,0.0,0.0,0.0,0.0,0.0,0.0,0.0,0.0,0.0,0.0,0.0,0.0,0.0,0.0,0.0,0.0,0.0,0.0,0.0,0.0,0.0,0.0,0.0,0.0,0.0,0.0,0.0,0.0,0.0,0.0,0.0,0.0,0.0,0.0,0.0,0.0,0.0,0.0,0.0,0.0,0.0,0.0,0.0,0.0,0.0,0.0,0.0,0.0,0.0,0.0,0.0,0.0,0.0,0.0,0.0,0.0,0.0,0.0,0.0,0.0,0.0,0.0,0.0,0.0,0.0,0.0,0.0,0.0,0.0,0.0,0.0,0.0,0.0,0.0,0.0,0.0,0.0,0.0,0.0,0.0,0.0,0.0,0.0,0.0,0.0,0.0,0.0,0.0,0.0,0.0,0.0,0.0,0.0,0.0,0.0,0.0,0.0,0.0,0.0,0.0,0.0,0.0,0.0,0.0,0.0,0.0,0.0,0.0,0.0,0.0,0.0,0.0,0.0,0.0,0.0,0.0,0.0,0.0,0.0,0.0,0.0,0.0,0.0,0.0,0.0,0.0,0.0,0.0,0.0,0.0,0.0,0.0,0.0,0.0,0.0,0.0,0.0,0.0,0.0,0.0,0.0,0.0,0.0,0.0,0.0,0.0,0.0,0.0,0.0,0.0,0.0,0.0,0.0,0.0,0.0,0.0,0.0,0.0,0.0,0.0,0.0,0.0,0.0,0.0,0.0,0.0,0.0,0.0,0.0,0.0,0.0,0.0,0.0,0.0,0.0,0.0,0.0,0.0,0.0,0.0,0.0,0.0,0.0,0.0,0.0,0.0,0.0,0.0,0.0,0.0,0.0,0.0,0.0,0.0,0.0,0.0,0.0,0.0,0.0,0.0,0.0,0.0,0.0,0.0,0.0,0.0,0.0,0.0,0.0,0.0,0.0,0.0,0.0,0.0,0.0,0.0,0.0,0.0,0.0,0.0,0.0,0.0,0.0,0.0,0.0,0.0,0.0,0.0,0.0,0.0,0.0,0.0,0.0,0.0,0.0,0.0,0.0,0.0,0.0,0.0,0.0,0.0,0.0,0.0,0.0,0.0,0.0,0.0,0.0,0.0,0.0,0.0,0.0,0.0,0.0,0.0,0.0,0.0,0.0,0.0,0.0,0.0,0.0,0.0,0.0,0.0,0.0,0.0,0.0,0.0,0.0,0.0,0.0,0.0,0.0,-4.3034,0.0,0.0,0.0,0.0,0.0,0.0,0.0,0.0,0.0,0.0,0.0,0.0,0.0,0.0,0.0,0.0,0.0,0.0,0.0,0.0,0.0,0.0,0.0,0.0,0.0,0.0,0.0,0.0,0.0,0.0,0.0,0.0,0.0,0.0,0.0,0.0,0.0,0.0,0.0,0.0,0.0,0.0,0.0,0.0,0.0,0.0,0.0,0.0,0.0,0.0,0.0,0.0,0.0,0.0,0.0,0.0,0.0,0.0,0.0,0.0,0.0,0.0,0.0,0.0,0.0,0.0,0.0,0.0,0.0,0.0,0.0,0.0,0.0,0.0,0.0,0.0,0.0,0.0,0.0,0.0,0.0,0.0,0.0,0.0,0.0,0.0,0.0,0.0,0.0,0.0,0.0,0.0,0.0,0.0,0.0,0.0,0.0,0.0,0.0,0.0,0.0,0.0,0.0,0.0,0.0,0.0,0.0,0.0,0.0,0.0,-4.5594,-4.5594,-4.5277,-4.4511,-4.3252,0.0,0.0,0.0,0.0,0.0,0.0,0.0,0.0,0.0,0.0,0.0,0.0,0.0,0.0,0.0,0.0,0.0,0.0,0.0,0.0,0.0,0.0,0.0,0.0,0.0,0.0,0.0,0.0,0.0,0.0,0.0,0.0,0.0,0.0,0.0,0.0,0.0,0.0,0.0,0.0,0.0,0.0,0.0,0.0,0.0,0.0,0.0,0.0,0.0,0.0,0.0,0.0,0.0,0.0,0.0,0.0,0.0,0.0,0.0,0.0,0.0,0.0,0.0,0.0,0.0,0.0,0.0,0.0,0.0,0.0,0.0,0.0,0.0,0.0,0.0,0.0,0.0,0.0,0.0,0.0,0.0,0.0,0.0,0.0,0.0,0.0,0.0,0.0,0.0,0.0,0.0,0.0,0.0,0.0,0.0,0.0,0.0,0.0,0.0,0.0,0.0,0.0,0.0,0.0,0.0,0.0,0.0,0.0,0.0,0.0,0.0,0.0,-4.6053,-4.5119,-4.3317,0.0,0.0,0.0,0.0,0.0,0.0,0.0,0.0,0.0,0.0,0.0,0.0,0.0,0.0,0.0,0.0,0.0,0.0,0.0,0.0,0.0,0.0,0.0,0.0,0.0,0.0,0.0,0.0,0.0,0.0,0.0,0.0,0.0,0.0,0.0,0.0,0.0,0.0,0.0,0.0,0.0,0.0,0.0,0.0,0.0,0.0,0.0,0.0,0.0,0.0,0.0,0.0,0.0,0.0,0.0,0.0,0.0,0.0,0.0,0.0,0.0,0.0,0.0,0.0,0.0,0.0,0.0,0.0,0.0,0.0,0.0,0.0,0.0,0.0,0.0,0.0,0.0,0.0,0.0,0.0,0.0,0.0,0.0,0.0,0.0,0.0,0.0,0.0,0.0,0.0,0.0,0.0,0.0,0.0,0.0,0.0,0.0,0.0,0.0,0.0,0.0,0.0,0.0,0.0,0.0,0.0,0.0,0.0,0.0,0.0,-4.7875,-4.7855,-4.7207,0.0,-4.3485,0.0,0.0,0.0,0.0,0.0,0.0,0.0,0.0,0.0,0.0,0.0,0.0,0.0,0.0,0.0,0.0,0.0,0.0,0.0,0.0,0.0,0.0,0.0,0.0,0.0,0.0,0.0,0.0,0.0,0.0,0.0,0.0,0.0,0.0,0.0,0.0,0.0,0.0,0.0,0.0,0.0,0.0,0.0,0.0,0.0,0.0,0.0,0.0,0.0,0.0,0.0,0.0,0.0,0.0,0.0,0.0,0.0,0.0,0.0,0.0,0.0,0.0,0.0,0.0,0.0,0.0,0.0,0.0,0.0,0.0,0.0,0.0,0.0,0.0,0.0,0.0,0.0,0.0,0.0,0.0,0.0,0.0,0.0,0.0,0.0,0.0,0.0,0.0,0.0,0.0,0.0,0.0,0.0,0.0,0.0,0.0,0.0,0.0,0.0,0.0,0.0,0.0,0.0,0.0,0.0,0.0,0.0,0.0,0.0,0.0,-4.8096,-4.8096,-4.6464,-4.4932,0.0,0.0,0.0,0.0,0.0,0.0,0.0,0.0,0.0,0.0,0.0,0.0,0.0,0.0,0.0,0.0,0.0,0.0,0.0,0.0,0.0,0.0,0.0,0.0,0.0,0.0,0.0,0.0,0.0,0.0,0.0,0.0,0.0,0.0,0.0,0.0,0.0,0.0,0.0,0.0,0.0,0.0,0.0,0.0,0.0,0.0,0.0,0.0,0.0,0.0,0.0,0.0,0.0,0.0,0.0,0.0,0.0,0.0,0.0,0.0,0.0,0.0,0.0,0.0,0.0,0.0,0.0,0.0,0.0,0.0,0.0,0.0,0.0,0.0,0.0,0.0,0.0,0.0,0.0,0.0,0.0,0.0,0.0,0.0,0.0,0.0,0.0,0.0,0.0,0.0,0.0,0.0,0.0,0.0,0.0,0.0,0.0,0.0,0.0,0.0,0.0,0.0,0.0,0.0,0.0,0.0,0.0,0.0,0.0,0.0,-4.8471,-4.8239,-4.7745,-4.5718,-4.4267,-4.3583,0.0,0.0,0.0,0.0,0.0,0.0,0.0,0.0,0.0,0.0,0.0,0.0,0.0,0.0,0.0,0.0,0.0,0.0,0.0,0.0,0.0,0.0,0.0,0.0,0.0,0.0,0.0,0.0,0.0,0.0,0.0,0.0,0.0,0.0,0.0,0.0,0.0,0.0,0.0,0.0,0.0,0.0,0.0,0.0,0.0,0.0,0.0,0.0,0.0,0.0,0.0,0.0,0.0,0.0,0.0,0.0,0.0,0.0,0.0,0.0,0.0,0.0,0.0,0.0,0.0,0.0,0.0,0.0,0.0,0.0,0.0,0.0,0.0,0.0,0.0,0.0,0.0,0.0,0.0,0.0,0.0,0.0,0.0,0.0,0.0,0.0,0.0,0.0,0.0,0.0,0.0,0.0,0.0,0.0,0.0,0.0,0.0,0.0,0.0,0.0,0.0,0.0,0.0,0.0,0.0,0.0,0.0,0.0,-4.9308,-4.9317,-4.8593,-4.7109,-4.546,-4.4253,0.0,0.0,0.0,0.0,0.0,0.0,0.0,0.0,0.0,0.0,0.0,0.0,0.0,0.0,0.0,0.0,0.0,0.0,0.0,0.0,0.0,0.0,0.0,0.0,0.0,0.0,0.0,0.0,0.0,0.0,0.0,0.0,0.0,0.0,0.0,0.0,0.0,0.0,0.0,0.0,0.0,0.0,0.0,0.0,0.0,0.0,0.0,0.0,0.0,0.0,0.0,0.0,0.0,0.0,0.0,0.0,0.0,0.0,0.0,0.0,0.0,0.0,0.0,0.0,0.0,0.0,0.0,0.0,0.0,0.0,0.0,0.0,0.0,0.0,0.0,0.0,0.0,0.0,0.0,0.0,0.0,0.0,0.0,0.0,0.0,0.0,0.0,0.0,0.0,0.0,0.0,0.0,0.0,0.0,0.0,0.0,0.0,0.0,0.0,0.0,0.0,0.0,0.0,0.0,0.0,0.0,0.0,0.0,0.0,-4.8587,-4.8548,-4.8064,-4.7008,-4.5395,-4.4153,0.0,0.0,0.0,0.0,0.0,0.0,0.0,0.0,0.0,0.0,0.0,0.0,0.0,0.0,0.0,0.0,0.0,0.0,0.0,0.0,0.0,0.0,0.0,0.0,0.0,0.0,0.0,0.0,0.0,0.0,0.0,0.0,0.0,0.0,0.0,0.0,0.0,0.0,0.0,0.0,0.0,0.0,0.0,0.0,0.0,0.0,0.0,0.0,0.0,0.0,0.0,0.0,0.0,0.0,0.0,0.0,0.0,0.0,0.0,0.0,0.0,0.0,0.0,0.0,0.0,0.0,0.0,0.0,0.0,0.0,0.0,0.0,0.0,0.0,0.0,0.0,0.0,0.0,0.0,0.0,0.0,0.0,0.0,0.0,0.0,0.0,0.0,0.0,0.0,0.0,0.0,0.0,0.0,0.0,0.0,0.0,0.0,0.0,0.0,0.0,0.0,0.0,0.0,0.0,0.0,0.0,0.0,0.0,0.0,-4.7722,0.0,-4.7064,-4.6563,-4.4957,-4.3841,0.0,0.0,0.0,0.0,0.0,0.0,0.0,0.0,0.0,0.0,0.0,0.0,0.0,0.0,0.0,0.0,0.0,0.0,0.0,0.0,0.0,0.0,0.0,0.0,0.0,0.0,0.0,0.0,0.0,0.0,0.0,0.0,0.0,0.0,0.0,0.0,0.0,0.0,0.0,0.0,0.0,0.0,0.0,0.0,0.0,0.0,0.0,0.0,0.0,0.0,0.0,0.0,0.0,0.0,0.0,0.0,0.0,0.0,0.0,0.0,0.0,0.0,0.0,0.0,0.0,0.0,0.0,0.0,0.0,0.0,0.0,0.0,0.0,0.0,0.0,0.0,0.0,0.0,0.0,0.0,0.0,0.0,0.0,0.0,0.0,0.0,0.0,0.0,0.0,0.0,0.0,0.0,0.0,0.0,0.0,0.0,0.0,0.0,0.0,0.0,0.0,0.0,0.0,0.0,0.0,0.0,0.0,0.0,-4.7379,-4.6914,-4.6144,-4.5823,-4.5682,-4.4172,-4.3276,0.0,0.0,0.0,0.0,0.0,0.0,0.0,0.0,0.0,0.0,0.0,0.0,0.0,0.0,0.0,0.0,0.0,0.0,0.0,0.0,0.0,0.0,0.0,0.0,0.0,0.0,0.0,0.0,0.0,0.0,0.0,0.0,0.0,0.0,0.0,0.0,0.0,0.0,0.0,0.0,0.0,0.0,0.0,0.0,0.0,0.0,0.0,0.0,0.0,0.0,0.0,0.0,0.0,0.0,0.0,0.0,0.0,0.0,0.0,0.0,0.0,0.0,0.0,0.0,0.0,0.0,0.0,0.0,0.0,0.0,0.0,0.0,0.0,0.0,0.0,0.0,0.0,0.0,0.0,0.0,0.0,0.0,0.0,0.0,0.0,0.0,0.0,0.0,0.0,0.0,0.0,0.0,0.0,0.0,0.0,0.0,0.0,0.0,0.0,0.0,0.0,0.0,0.0,0.0,0.0,0.0,0.0,0.0,0.0,-4.6923,-4.7182,-4.7057,-4.6508,-4.484,-4.3709,0.0,0.0,0.0,0.0,0.0,0.0,0.0,0.0,0.0,0.0,0.0,0.0,0.0,0.0,0.0,0.0,0.0,0.0,0.0,0.0,0.0,0.0,0.0,0.0,0.0,0.0,0.0,0.0,0.0,0.0,0.0,0.0,0.0,0.0,0.0,0.0,0.0,0.0,0.0,0.0,0.0,0.0,0.0,0.0,0.0,0.0,0.0,0.0,0.0,0.0,0.0,0.0,0.0,0.0,0.0,0.0,0.0,0.0,0.0,0.0,0.0,0.0,0.0,0.0,0.0,0.0,0.0,0.0,0.0,0.0,0.0,0.0,0.0,0.0,0.0,0.0,0.0,0.0,0.0,0.0,0.0,0.0,0.0,0.0,0.0,0.0,0.0,0.0,0.0,0.0,0.0,0.0,0.0,0.0,0.0,0.0,0.0,0.0,0.0,0.0,0.0,0.0,0.0,0.0,0.0,0.0,0.0,0.0,0.0,-4.7375,-4.7855,-4.7712,-4.6923,-4.5528,-4.4239,-4.3104,0.0,0.0,0.0,0.0,0.0,0.0,0.0,0.0,0.0,0.0,0.0,0.0,0.0,0.0,0.0,0.0,0.0,0.0,0.0,0.0,0.0,0.0,0.0,0.0,0.0,0.0,0.0,0.0,0.0,0.0,0.0,0.0,0.0,0.0,0.0,0.0,0.0,0.0,0.0,0.0,0.0,0.0,0.0,0.0,0.0,0.0,0.0,0.0,0.0,0.0,0.0,0.0,0.0,0.0,0.0,0.0,0.0,0.0,0.0,0.0,0.0,0.0,0.0,0.0,0.0,0.0,0.0,0.0,0.0,0.0,0.0,0.0,0.0,0.0,0.0,0.0,0.0,0.0,0.0,0.0,0.0,0.0,0.0,0.0,0.0,0.0,0.0,0.0,0.0,0.0,0.0,0.0,0.0,0.0,0.0,0.0,0.0,0.0,0.0,0.0,0.0,0.0,0.0,0.0,0.0,0.0,0.0,0.0,-4.8096,-4.8192,-4.7855,-4.7009,-4.6124,-4.4902,0.0,0.0,0.0,0.0,0.0,0.0,0.0,0.0,0.0,0.0,0.0,0.0,0.0,0.0,0.0,0.0,0.0,0.0,0.0,0.0,0.0,0.0,0.0,0.0,0.0,0.0,0.0,0.0,0.0,0.0,0.0,0.0,0.0,0.0,0.0,0.0,0.0,0.0,0.0,0.0,0.0,0.0,0.0,0.0,0.0,0.0,0.0,0.0,0.0,0.0,0.0,0.0,0.0,0.0,0.0,0.0,0.0,0.0,0.0,0.0,0.0,0.0,0.0,0.0,0.0,0.0,0.0,0.0,0.0,0.0,0.0,0.0,0.0,0.0,0.0,0.0,0.0,0.0,0.0,0.0,0.0,0.0,0.0,0.0,0.0,0.0,0.0,0.0,0.0,0.0,0.0,0.0,0.0,0.0,0.0,0.0,0.0,0.0,0.0,0.0,0.0,0.0,0.0,0.0,0.0,0.0,0.0,0.0,0.0,-4.8145,-4.9356,-4.9298,-4.7836,-4.699,-4.574,0.0,0.0,0.0,0.0,0.0,0.0,0.0,0.0,0.0,0.0,0.0,0.0,0.0,0.0,0.0,0.0,0.0,0.0,0.0,0.0,0.0,0.0,0.0,0.0,0.0,0.0,0.0,0.0,0.0,0.0,0.0,0.0,0.0,0.0,0.0,0.0,0.0,0.0,0.0,0.0,0.0,0.0,0.0,0.0,0.0,0.0,0.0,0.0,0.0,0.0,0.0,0.0,0.0,0.0,0.0,0.0,0.0,0.0,0.0,0.0,0.0,0.0,0.0,0.0,0.0,0.0,0.0,0.0,0.0,0.0,0.0,0.0,0.0,0.0,0.0,0.0,0.0,0.0,0.0,0.0,0.0,0.0,0.0,0.0,0.0,0.0,0.0,0.0,0.0,0.0,0.0,0.0,0.0,0.0,0.0,0.0,0.0,0.0,0.0,0.0,0.0,0.0,0.0,0.0,0.0,0.0,0.0,0.0,-4.7879,-4.8047,-4.9798,-5.0048,-4.8663,-4.7836,-4.6432,0.0,0.0,0.0,0.0,0.0,0.0,0.0,0.0,0.0,0.0,0.0,0.0,0.0,0.0,0.0,0.0,0.0,0.0,0.0,0.0,0.0,0.0,0.0,0.0,0.0,0.0,0.0,0.0,0.0,0.0,0.0,0.0,0.0,0.0,0.0,0.0,0.0,0.0,0.0,0.0,0.0,0.0,0.0,0.0,0.0,0.0,0.0,0.0,0.0,0.0,0.0,0.0,0.0,0.0,0.0,0.0,0.0,0.0,0.0,0.0,0.0,0.0,0.0,0.0,0.0,0.0,0.0,0.0,0.0,0.0,0.0,0.0,0.0,0.0,0.0,0.0,0.0,0.0,0.0,0.0,0.0,0.0,0.0,0.0,0.0,0.0,0.0,0.0,0.0,0.0,0.0,0.0,0.0,0.0,0.0,0.0,0.0,0.0,0.0,0.0,0.0,0.0,0.0,0.0,0.0,0.0,0.0,0.0,-4.7697,-4.7999,-4.9748,-5.025,-4.9404,-4.8538,-4.699,0.0,0.0,0.0,0.0,0.0,0.0,0.0,0.0,0.0,0.0,0.0,0.0,0.0,0.0,0.0,0.0,0.0,0.0,0.0,0.0,0.0,0.0,0.0,0.0,0.0,0.0,0.0,0.0,0.0,0.0,0.0,0.0,0.0,0.0,0.0,0.0,0.0,0.0,0.0,0.0,0.0,0.0,0.0,0.0,0.0,0.0,0.0,0.0,0.0,0.0,0.0,0.0,0.0,0.0,0.0,0.0,0.0,0.0,0.0,0.0,0.0,0.0,0.0,0.0,0.0,0.0,0.0,0.0,0.0,0.0,0.0,0.0,0.0,0.0,0.0,0.0,0.0,0.0,0.0,0.0,0.0,0.0,0.0,0.0,0.0,0.0,0.0,0.0,0.0,0.0,0.0,0.0,0.0,0.0,0.0,0.0,0.0,0.0,0.0,0.0,0.0,0.0,0.0,0.0,0.0,0.0,0.0,0.0,-4.7764,-4.8608,-4.9868,-5.015,-4.9345,-4.852,-4.7567,0.0,0.0,0.0,0.0,0.0,0.0,0.0,0.0,0.0,0.0,0.0,0.0,0.0,0.0,0.0,0.0,0.0,0.0,0.0,0.0,0.0,0.0,0.0,0.0,0.0,0.0,0.0,0.0,0.0,0.0,0.0,0.0,0.0,0.0,0.0,0.0,0.0,0.0,0.0,0.0,0.0,0.0,0.0,0.0,0.0,0.0,0.0,0.0,-4.5551,0.0,0.0,0.0,0.0,0.0,0.0,0.0,0.0,0.0,0.0,0.0,0.0,0.0,0.0,0.0,0.0,0.0,0.0,0.0,0.0,0.0,0.0,0.0,0.0,0.0,0.0,0.0,0.0,0.0,0.0,0.0,0.0,0.0,0.0,0.0,0.0,0.0,0.0,0.0,0.0,0.0,0.0,0.0,0.0,0.0,0.0,0.0,0.0,0.0,0.0,0.0,0.0,0.0,0.0,0.0,0.0,0.0,0.0,0.0,-4.7448,-4.8494,-4.933,-4.9581,-4.9196,-4.8491,-4.7721,0.0,0.0,0.0,0.0,0.0,0.0,0.0,0.0,0.0,0.0,0.0,0.0,0.0,0.0,0.0,0.0,0.0,0.0,0.0,0.0,0.0,0.0,0.0,0.0,0.0,0.0,0.0,0.0,0.0,0.0,0.0,0.0,0.0,0.0,0.0,0.0,0.0,0.0,0.0,0.0,0.0,0.0,0.0,0.0,0.0,0.0,0.0,0.0,0.0,0.0,0.0,0.0,0.0,0.0,0.0,0.0,0.0,0.0,0.0,0.0,0.0,0.0,0.0,0.0,0.0,0.0,0.0,0.0,0.0,0.0,0.0,0.0,0.0,0.0,0.0,0.0,0.0,0.0,0.0,0.0,0.0,0.0,0.0,0.0,0.0,0.0,0.0,0.0,0.0,0.0,0.0,0.0,0.0,0.0,0.0,0.0,0.0,0.0,0.0,0.0,0.0,0.0,0.0,0.0,0.0,0.0,0.0,-4.603,-4.7065,-4.8292,-4.8662,-4.8914,-4.9017,-4.8392,-4.7674,-4.6896,0.0,0.0,0.0,0.0,0.0,0.0,0.0,0.0,0.0,0.0,0.0,0.0,0.0,0.0,0.0,0.0,0.0,0.0,0.0,0.0,0.0,0.0,0.0,0.0,0.0,0.0,0.0,0.0,0.0,0.0,0.0,0.0,0.0,0.0,0.0,0.0,0.0,0.0,-4.3479,-4.4874,0.0,0.0,0.0,0.0,0.0,0.0,0.0,0.0,-4.5314,0.0,0.0,0.0,0.0,0.0,0.0,0.0,0.0,0.0,0.0,0.0,0.0,0.0,0.0,0.0,0.0,0.0,0.0,0.0,0.0,0.0,0.0,0.0,0.0,0.0,0.0,0.0,0.0,0.0,0.0,0.0,0.0,0.0,0.0,0.0,0.0,0.0,0.0,0.0,0.0,0.0,0.0,0.0,0.0,0.0,0.0,0.0,0.0,0.0,0.0,0.0,0.0,0.0,0.0,0.0,0.0,-4.5915,-4.6197,-4.7173,-4.8907,-4.8692,-4.8624,-4.8757,-4.8155,-4.7474,-4.6645,0.0,0.0,0.0,0.0,0.0,0.0,0.0,0.0,0.0,0.0,0.0,0.0,0.0,0.0,0.0,0.0,0.0,0.0,0.0,0.0,0.0,0.0,0.0,0.0,0.0,0.0,0.0,0.0,0.0,0.0,0.0,0.0,0.0,0.0,0.0,0.0,0.0,0.0,0.0,-4.4892,-4.535,0.0,0.0,0.0,0.0,0.0,0.0,0.0,0.0,-4.4447,0.0,0.0,0.0,0.0,0.0,0.0,0.0,0.0,0.0,0.0,0.0,0.0,0.0,0.0,0.0,0.0,0.0,0.0,0.0,0.0,0.0,0.0,0.0,0.0,0.0,0.0,0.0,0.0,0.0,0.0,0.0,0.0,0.0,0.0,0.0,0.0,0.0,0.0,0.0,0.0,0.0,0.0,0.0,0.0,0.0,0.0,0.0,0.0,0.0,0.0,0.0,0.0,0.0,0.0,0.0,-4.5974,-4.6045,-4.6793,-4.8129,-4.7326,-4.6906,-4.7037,-4.6853,-4.6426,0.0,0.0,0.0,0.0,0.0,0.0,0.0,0.0,0.0,0.0,0.0,0.0,0.0,0.0,0.0,0.0,0.0,0.0,0.0,0.0,0.0,0.0,0.0,0.0,0.0,0.0,0.0,0.0,0.0,0.0,0.0,0.0,0.0,0.0,0.0,0.0,0.0,0.0,0.0,0.0,-4.4874,-4.5332,-4.3769,0.0,0.0,0.0,0.0,0.0,0.0,-4.3722,-4.3395,0.0,0.0,0.0,0.0,0.0,0.0,0.0,0.0,0.0,0.0,0.0,0.0,0.0,0.0,0.0,0.0,0.0,0.0,0.0,0.0,0.0,0.0,0.0,0.0,0.0,0.0,0.0,0.0,0.0,0.0,0.0,0.0,0.0,0.0,0.0,0.0,0.0,0.0,0.0,0.0,0.0,0.0,0.0,0.0,0.0,0.0,0.0,0.0,0.0,0.0,0.0,0.0,0.0,0.0,0.0,-4.5645,-4.5663,-4.6139,-4.7037,-4.5902,-4.5311,-4.5432,-4.5646,-4.534,0.0,0.0,0.0,0.0,0.0,0.0,0.0,0.0,0.0,0.0,0.0,0.0,0.0,0.0,0.0,0.0,0.0,0.0,0.0,0.0,0.0,0.0,0.0,0.0,0.0,0.0,0.0,0.0,0.0,0.0,0.0,0.0,0.0,0.0,0.0,0.0,0.0,0.0,0.0,0.0,0.0,-4.5205,-4.3666,-4.4252,0.0,0.0,0.0,0.0,-4.4128,-4.3131,0.0,0.0,0.0,0.0,0.0,0.0,0.0,0.0,0.0,0.0,0.0,0.0,0.0,0.0,0.0,0.0,0.0,0.0,0.0,0.0,0.0,0.0,0.0,0.0,0.0,0.0,0.0,0.0,0.0,0.0,0.0,0.0,0.0,0.0,0.0,0.0,0.0,0.0,0.0,0.0,0.0,0.0,0.0,0.0,0.0,0.0,0.0,0.0,0.0,0.0,0.0,0.0,0.0,0.0,0.0,0.0,-4.4711,-4.482,-4.5295,-4.6137,-4.5514,-4.5162,-4.5241,-4.5428,-4.4842,0.0,0.0,0.0,0.0,0.0,0.0,0.0,0.0,0.0,0.0,0.0,0.0,0.0,0.0,0.0,0.0,0.0,0.0,0.0,0.0,0.0,0.0,0.0,0.0,0.0,0.0,0.0,0.0,0.0,0.0,0.0,0.0,0.0,0.0,0.0,0.0,0.0,0.0,0.0,0.0,0.0,-4.4827,-4.336,-4.449,-4.504,0.0,0.0,-4.3831,-4.4017,-4.3405,0.0,0.0,0.0,0.0,0.0,0.0,0.0,0.0,0.0,0.0,0.0,0.0,0.0,0.0,0.0,0.0,0.0,0.0,0.0,0.0,0.0,0.0,0.0,0.0,0.0,0.0,0.0,0.0,0.0,0.0,0.0,0.0,0.0,0.0,0.0,0.0,0.0,0.0,0.0,0.0,0.0,0.0,0.0,0.0,0.0,0.0,0.0,0.0,0.0,0.0,0.0,0.0,0.0,0.0,0.0,-4.3432,-4.4345,-4.4601,-4.491,-4.5258,-4.459,-4.4216,-4.4232,-4.4332,-4.3889,0.0,0.0,0.0,0.0,0.0,0.0,0.0,0.0,0.0,0.0,0.0,0.0,0.0,0.0,0.0,0.0,0.0,0.0,0.0,0.0,0.0,0.0,0.0,0.0,0.0,0.0,0.0,0.0,0.0,0.0,0.0,0.0,0.0,0.0,0.0,0.0,0.0,0.0,0.0,0.0,0.0,0.0,-4.2717,-4.3725,0.0,0.0,0.0,-4.315,-4.3642,0.0,0.0,0.0,0.0,0.0,0.0,0.0,0.0,0.0,0.0,0.0,0.0,0.0,0.0,0.0,0.0,0.0,0.0,0.0,0.0,0.0,0.0,0.0,0.0,0.0,0.0,0.0,0.0,0.0,0.0,0.0,0.0,0.0,0.0,0.0,0.0,0.0,0.0,0.0,0.0,0.0,0.0,0.0,0.0,0.0,0.0,0.0,0.0,0.0,0.0,0.0,0.0,0.0,0.0,0.0,0.0,0.0,-4.3716,-4.4071,-4.4254,-4.4236,-4.365,-4.3357,-4.3393,-4.3428,0.0,0.0,0.0,0.0,0.0,0.0,0.0,0.0,0.0,0.0,0.0,0.0,0.0,0.0,0.0,0.0,0.0,0.0,0.0,0.0,0.0,0.0,0.0,0.0,0.0,0.0,0.0,-3.6566,0.0,0.0,0.0,0.0,0.0,0.0,0.0,0.0,0.0,0.0,0.0,0.0,0.0,0.0,-4.267,-4.2136,-4.2959,-4.3476,0.0,0.0,-4.2732,-4.3371,-4.2801,-4.2304,0.0,0.0,0.0,0.0,0.0,0.0,0.0,0.0,0.0,0.0,0.0,0.0,0.0,0.0,0.0,0.0,0.0,0.0,0.0,0.0,0.0,0.0,0.0,0.0,0.0,0.0,0.0,0.0,0.0,0.0,0.0,0.0,0.0,0.0,0.0,0.0,0.0,0.0,0.0,0.0,0.0,0.0,0.0,0.0,0.0,0.0,0.0,0.0,0.0,0.0,0.0,0.0,0.0,0.0,-4.0846,-4.2456,-4.284,-4.3029,-4.301,-4.2975,-4.2994,-4.3123,-4.3178,-4.2591,0.0,0.0,0.0,0.0,0.0,0.0,0.0,0.0,0.0,0.0,0.0,0.0,0.0,0.0,0.0,0.0,0.0,0.0,0.0,0.0,0.0,0.0,0.0,0.0,0.0,0.0,0.0,0.0,0.0,0.0,0.0,0.0,0.0,0.0,0.0,0.0,0.0,0.0,0.0,0.0,0.0,-4.2242,-4.1732,-4.2554,-4.3087,0.0,-4.292,-4.3178,-4.3376,-4.2785,-4.2304,-4.2304,0.0,0.0,0.0,0.0,0.0,0.0,0.0,0.0,0.0,0.0,0.0,0.0,0.0,0.0,0.0,0.0,0.0,0.0,0.0,0.0,0.0,0.0,0.0,0.0,0.0,0.0,0.0,0.0,0.0,0.0,0.0,0.0,0.0,0.0,0.0,0.0,0.0,0.0,0.0,0.0,0.0,0.0,0.0,0.0,0.0,0.0,0.0,0.0,0.0,0.0,0.0,0.0,0.0,-3.9751,-4.1036,-4.1828,-4.2203,-4.2223,-4.2223,-4.234,-4.2536,-4.2244,-4.1687,0.0,0.0,0.0,0.0,0.0,0.0,0.0,0.0,0.0,0.0,0.0,0.0,0.0,0.0,0.0,0.0,0.0,0.0,0.0,0.0,0.0,0.0,0.0,0.0,0.0,0.0,0.0,0.0,-3.5971,-3.5935,-3.5617,0.0,0.0,0.0,0.0,0.0,0.0,0.0,0.0,0.0,0.0,-4.0981,-4.0912,-4.1853,0.0,0.0,-4.2536,-4.2957,-4.3123,-4.2662,-4.2139,-4.1644,-4.0891,0.0,0.0,0.0,0.0,0.0,0.0,0.0,0.0,0.0,0.0,0.0,0.0,0.0,0.0,0.0,0.0,0.0,0.0,0.0,0.0,0.0,0.0,0.0,0.0,0.0,0.0,0.0,0.0,0.0,0.0,0.0,0.0,0.0,0.0,0.0,0.0,0.0,0.0,0.0,0.0,0.0,0.0,0.0,0.0,0.0,0.0,0.0,0.0,0.0,0.0,0.0,0.0,-3.9071,-4.007,-4.1073,-4.1613,-4.1652,-4.1613,-4.1637,-4.1635,-4.137,-4.0886,0.0,0.0,0.0,0.0,0.0,0.0,0.0,0.0,0.0,0.0,0.0,0.0,0.0,0.0,0.0,0.0,0.0,0.0,0.0,0.0,0.0,0.0,0.0,0.0,0.0,0.0,0.0,0.0,-3.6156,-3.5997,-3.5773,0.0,0.0,0.0,0.0,0.0,0.0,0.0,0.0,0.0,0.0,-4.018,-4.0429,-4.114,-4.1619,-4.1577,-4.2074,-4.2467,-4.2463,-4.2086,-4.1493,-4.0688,0.0,0.0,0.0,0.0,0.0,0.0,0.0,0.0,0.0,0.0,0.0,0.0,0.0,0.0,0.0,0.0,0.0,0.0,0.0,0.0,0.0,0.0,0.0,0.0,0.0,0.0,0.0,-4.0113,0.0,0.0,-4.0104,0.0,0.0,0.0,0.0,0.0,0.0,0.0,0.0,0.0,0.0,0.0,0.0,0.0,0.0,0.0,0.0,0.0,0.0,0.0,0.0,0.0,0.0,-3.8809,-3.9704,-4.0677,-4.1209,-4.1192,-4.1192,-4.0939,-4.0463,-4.0713,-4.0249,-3.8922,0.0,0.0,0.0,0.0,0.0,0.0,0.0,0.0,0.0,0.0,0.0,0.0,0.0,0.0,0.0,0.0,0.0,0.0,0.0,0.0,0.0,0.0,0.0,0.0,0.0,0.0,-3.5644,-3.5622,-3.5605,0.0,0.0,0.0,0.0,0.0,0.0,0.0,0.0,0.0,-3.8903,-3.9639,-4.0138,-4.0305,-4.0493,-4.0782,-4.1146,-4.1666,-4.1828,-4.1338,-4.0833,-4.0274,0.0,0.0,0.0,0.0,0.0,0.0,0.0,0.0,0.0,0.0,0.0,0.0,0.0,0.0,0.0,0.0,0.0,0.0,0.0,0.0,0.0,0.0,0.0,0.0,0.0,0.0,0.0,-4.1194,-4.0927,0.0,0.0,0.0,0.0,0.0,0.0,0.0,0.0,0.0,0.0,0.0,-3.6454,-3.5985,0.0,0.0,0.0,0.0,0.0,0.0,0.0,0.0,0.0,0.0,0.0,0.0,-3.8221,-3.8557,-3.9812,-4.0451,-4.0476,-3.9997,-3.974,-3.9715,-3.9034,-3.787,-3.6238,0.0,0.0,0.0,0.0,0.0,0.0,0.0,0.0,0.0,0.0,0.0,0.0,0.0,0.0,0.0,0.0,0.0,0.0,0.0,0.0,0.0,0.0,0.0,0.0,0.0,-3.5616,0.0,0.0,0.0,0.0,0.0,0.0,0.0,0.0,0.0,0.0,-3.8024,-3.8717,-3.8954,-3.9639,-4.0121,-4.0163,-4.0221,-4.0377,0.0,0.0,0.0,0.0,0.0,0.0,0.0,0.0,0.0,0.0,0.0,0.0,0.0,0.0,-4.0262,-3.9883,-3.9796,-3.9729,-3.9517,0.0,0.0,0.0,0.0,0.0,0.0,0.0,0.0,0.0,0.0,0.0,0.0,0.0,0.0,-4.0847,-4.0782,-4.0091,0.0,0.0,0.0,0.0,0.0,0.0,0.0,0.0,-3.6832,-3.6645,-3.6384,-3.5984,-3.5999,0.0,-3.5738,-3.5526,0.0,0.0,0.0,0.0,0.0,0.0,0.0,0.0,-3.7616,-3.7666,-3.9051,-3.9698,-3.9429,-3.8992,-3.8612,-3.8353,-3.7487,-3.6377,-3.506,-3.5008,-3.4427,0.0,0.0,0.0,0.0,0.0,0.0,0.0,0.0,0.0,0.0,0.0,0.0,0.0,0.0,0.0,0.0,0.0,0.0,0.0,0.0,0.0,0.0,0.0,-3.5616,0.0,0.0,0.0,0.0,0.0,0.0,0.0,0.0,0.0,-3.7157,-3.8094,-3.8757,-3.9051,-3.9488,-3.9816,-3.9884,0.0,0.0,0.0,0.0,0.0,0.0,0.0,-3.8933,-3.7932,-3.7983,-3.8315,-3.8843,-3.9563,-4.0073,-4.002,0.0,0.0,-4.0036,-4.0256,-4.0301,-3.9824,-3.9684,-3.9592,-3.9394,-3.8537,-3.7742,0.0,0.0,0.0,0.0,0.0,0.0,0.0,0.0,-3.9875,-3.9907,0.0,-3.9203,0.0,0.0,0.0,0.0,-3.7387,-3.7499,0.0,0.0,-3.6381,-3.6118,-3.5519,-3.5522,-3.5489,-3.5459,-3.4833,-3.4662,-3.4957,-3.5528,0.0,0.0,0.0,0.0,0.0,0.0,-3.7018,-3.7035,-3.8342,-3.8782,-3.8162,-3.8096,-3.7527,-3.6403,-3.6179,-3.5841,-3.5387,-3.5337,-3.5025,-3.4293,-3.3546,0.0,0.0,0.0,0.0,0.0,0.0,0.0,0.0,0.0,0.0,0.0,0.0,0.0,0.0,0.0,0.0,0.0,0.0,0.0,0.0,-3.556,0.0,0.0,0.0,0.0,0.0,0.0,0.0,0.0,0.0,-3.7001,-3.7877,-3.8058,-3.8348,-3.9053,0.0,0.0,0.0,0.0,-3.9764,-4.0037,-4.0336,-4.0096,-3.8785,-3.8715,-3.8312,-3.6814,0.0,0.0,-3.9769,-3.9789,-3.9801,-4.0364,-3.972,-3.9338,-3.9884,-4.0158,-4.0209,-3.9813,-3.9713,-3.9557,-3.8846,-3.797,-3.7242,-4.328,0.0,0.0,0.0,0.0,-4.1805,-4.1276,-4.0664,-4.0664,-4.0664,-4.0632,-3.9973,0.0,0.0,0.0,0.0,0.0,0.0,-3.6332,-3.5863,-3.5799,-3.5699,-3.5504,-3.5489,-3.5489,-3.5474,-3.4801,-3.4358,-3.4076,-3.4014,-3.401,-3.4091,0.0,0.0,0.0,0.0,-3.5386,-3.5435,-3.6313,-3.6697,-3.6502,-3.5989,-3.5524,-3.5131,-3.5295,-3.5166,-3.4785,-3.4755,-3.441,-3.3693,-3.2963,0.0,0.0,0.0,0.0,0.0,0.0,0.0,0.0,0.0,0.0,0.0,0.0,0.0,0.0,0.0,0.0,0.0,0.0,0.0,-3.5095,-3.5095,-3.5111,0.0,0.0,0.0,0.0,0.0,0.0,0.0,0.0,0.0,-3.7152,-3.762,-3.7967,0.0,0.0,-3.8322,-3.8618,-3.893,-3.9252,-3.9549,-3.9514,0.0,-3.8231,-3.7712,-3.7058,-3.6046,-3.6546,-3.7422,-3.8355,-3.8478,-3.8476,-3.8666,-3.8458,-3.8319,-3.8488,-3.8659,-3.8771,-3.8786,-3.8769,-3.8711,-3.847,-3.7746,-3.7024,-4.3242,-4.3252,-4.3053,-4.2742,-4.2414,-4.2006,-4.1453,-4.0773,-4.0738,-4.0635,-4.0343,-3.9634,-3.9146,-3.8731,-3.7763,0.0,0.0,0.0,-3.5799,-3.5621,-3.5537,-3.5489,-3.5489,-3.5489,-3.5489,-3.5459,-3.4532,-3.3935,-3.3622,-3.2882,-3.2673,-3.3023,0.0,-3.3303,-3.3303,-3.4,-3.4392,-3.4424,-3.5129,-3.5336,-3.505,-3.442,-3.4175,-3.4325,-3.4626,-3.4754,-3.4673,-3.4656,-3.4454,-3.4018,-3.3297,-3.3096,0.0,0.0,0.0,0.0,0.0,0.0,0.0,0.0,0.0,0.0,0.0,-3.4543,-3.403,0.0,0.0,0.0,-3.4636,-3.4774,-3.4774,-3.5011,0.0,0.0,0.0,0.0,0.0,0.0,0.0,-3.4438,-3.4761,-3.5093,-3.5507,-3.5886,-3.6415,-3.732,-3.7205,-3.7176,-3.7507,0.0,-3.7871,-3.8213,-3.8253,-3.801,-3.7336,-3.6895,-3.6409,-3.5718,-3.5994,-3.6586,-3.7313,-3.7466,-3.7567,-3.7787,-3.7652,-3.7449,-3.7466,-3.7282,-3.7256,-3.7689,-3.7735,-3.7643,-3.7365,-3.6848,-3.6339,-4.3477,-4.3136,-4.2796,-4.2638,-4.2546,-4.2236,-4.1395,-4.0337,-4.0322,-3.9978,-3.9343,-3.8751,-3.8437,-3.8282,-3.7026,0.0,-3.638,-3.5723,-3.5407,-3.5407,-3.5407,-3.5407,-3.5407,-3.5407,-3.5377,-3.532,-3.4082,-3.3439,-3.335,-3.2123,-3.1496,-3.1524,-3.2299,-3.268,-3.2726,-3.3376,-3.3718,-3.3718,-3.4353,-3.4369,-3.3702,-3.3325,-3.3324,-3.3797,-3.4059,-3.4382,-3.4787,-3.4787,-3.4811,-3.4754,-3.4103,-3.3683,-3.3674,0.0,0.0,0.0,0.0,0.0,0.0,0.0,0.0,0.0,0.0,0.0,0.0,0.0,0.0,0.0,-3.4143,0.0,-3.4532,-3.5131,0.0,0.0,0.0,-3.4409,-3.4085,-3.3699,-3.338,-3.3184,0.0,0.0,-3.3499,-3.3499,-3.4257,-3.6351,-3.6099,-3.5828,-3.618,-3.6051,-3.6013,-3.6419,-3.6697,-3.6696,-3.6264,-3.62,-3.6088,-3.5673,-3.5616,-3.591,-3.6518,-3.6711,-3.7015,-3.7516,-3.7144,-3.6711,-3.6711,-3.6163,-3.5785,-3.6491,-3.666,-3.6508,-3.5898,-3.5622,-3.5351,-4.3073,-4.2573,-4.2523,-4.2105,-4.1526,-4.118,-4.054,-3.9664,-3.9649,-3.9559,-3.9373,-3.9245,-3.8779,-3.8085,-3.6689,-3.5976,-3.5795,-3.4995,-3.465,-3.465,-3.4664,-3.465,-3.465,-3.4664,-3.4486,-3.4103,-3.345,-3.2939,-3.2571,-3.1841,-3.1496,-3.1511,-3.171,-3.1796,-3.1824,-3.1976,-3.2081,-3.2066,-3.2232,-3.2276,-3.2081,-3.2226,-3.248,-3.29,-3.3161,-3.3485,-3.3894,-3.3903,-3.3903,-3.3903,-3.3208,-3.2812,-3.2796,-3.1443,0.0,0.0,0.0,0.0,0.0,0.0,0.0,0.0,0.0,-3.2685,-3.2746,0.0,-3.2986,0.0,-3.3619,-3.3999,-3.3971,-3.4613,0.0,0.0,-3.4081,-3.3685,-3.2912,-3.309,-3.3169,-3.2865,-3.3231,-3.3499,-3.3499,-3.3499,-3.3696,-3.4227,-3.4167,-3.4182,-3.4527,-3.4843,-3.5131,-3.5387,-3.5353,-3.5283,-3.5353,-3.539,-3.5469,-3.5588,-3.56,-3.5667,-3.5836,-3.587,-3.5955,-3.609,-3.6045,-3.5887,-3.5853,-3.5701,-3.5414,-3.5182,-3.5487,-3.5859,-3.5633,-3.5165,-3.4692,-4.2862,-4.2396,-4.2294,-4.1594,-4.0603,-4.0882,-4.0568,-3.9873,-3.9858,-3.9679,-3.9388,-3.9388,-3.9035,-3.8307,-3.6705,-3.579,-3.5437,-3.4162,-3.3589,-3.361,-3.3589,-3.361,-3.3624,-3.3575,-3.342,-3.3072,-3.2745,-3.2418,-3.2061,-3.1693,-3.1496,-3.1496,-3.1496,-3.1496,-3.1496,-3.1496,-3.1496,-3.1496,-3.1496,-3.1496,-3.1511,-3.1784,-3.2081,-3.2425,-3.2614,-3.2895,-3.3251,-3.3235,-3.3235,-3.3235,-3.2861,-3.2629,-3.2613,-3.1334,-3.0425,0.0,0.0,0.0,0.0,0.0,0.0,0.0,0.0,0.0,0.0,0.0,-3.2338,-3.2645,-3.3288,-3.3779,-3.4085,-3.4437,-3.4513,-3.4146,-3.358,-3.3018,-3.2494,-3.2438,-3.2384,-3.218,-3.2422,-3.2617,-3.2617,-3.2587,-3.2632,-3.2632,-3.2602,-3.2811,-3.332,-3.3534,-3.3692,-3.3898,-3.39,-3.4048,-3.4481,-3.4668,-3.4859,-3.5155,-3.5019,-3.4818,-3.4801,-3.4516,-3.4315,-3.4315,-3.4298,-3.4315,-3.4298,-3.4315,-3.4147,-3.3896,-3.4013,-3.4331,-3.458,-3.4303,-3.3947,-4.2684,-4.2237,-4.2019,-4.103,-3.9635,-4.0484,-4.0561,-4.0114,-4.0114,-3.9801,-3.9265,-3.9265,-3.8972,-3.8392,-3.6642,-3.5596,-3.5004,-3.3254,-3.2451,-3.2464,-3.2464,-3.2464,-3.2464,-3.2464,-3.2332,-3.203,-3.2008,-3.1827,-3.1563,-3.1457,-3.138,-3.138,-3.1395,-3.138,-3.138,-3.138,-3.1409,-3.1496,-3.1496,-3.1496,-3.1496,-3.1655,-3.1855,-3.2107,-3.2203,-3.2398,-3.2598,-3.2641,-3.2625,-3.2641,-3.2641,-3.2641,-3.261,-3.1446,-3.0701,0.0,-2.9443,0.0,0.0,0.0,0.0,0.0,0.0,0.0,0.0,-3.1167,-3.175,-3.2318,-3.3066,-3.3694,-3.4219,-3.4414,-3.4429,-3.4249,-3.32,-3.2497,-3.2377,-3.1854,-3.1496,-3.1496,-3.1496,-3.1496,-3.1555,-3.1496,-3.1511,-3.1585,-3.1615,-3.1868,-3.2374,-3.2334,-3.2254,-3.2259,-3.252,-3.2989,-3.3597,-3.3965,-3.421,-3.4462,-3.4096,-3.3641,-3.3525,-3.303,-3.2601,-3.2601,-3.2628,-3.2634,-3.2568,-3.2601,-3.2568,-3.2452,-3.243,-3.2674,-3.3201,-3.3229,-3.2951,-4.2115,-4.1541,-4.1181,-3.9938,-3.8196,-3.8055,-3.8222,-3.8616,-3.8616,-3.8543,-3.8441,-3.8441,-3.7823,-3.6805,-3.5642,-3.4506,-3.3481,-3.2266,-3.1709,-3.1709,-3.1709,-3.1709,-3.1709,-3.1709,-3.1339,-3.074,-3.1029,-3.0843,-3.0192,-3.0551,-3.0791,-3.0747,-3.0777,-3.0747,-3.0791,0.0,0.0,0.0,-3.1496,-3.1496,-3.1496,-3.1539,-3.1597,-3.1655,-3.164,0.0,-3.1739,-3.1739,-3.1754,-3.1739,-3.1739,0.0,0.0,0.0,0.0,0.0,0.0,0.0,0.0,0.0,0.0,0.0,-3.0543,-3.0831,-3.1256,-3.1436,-3.1555,-3.1705,-3.2796,-3.332,-3.2931,-3.3858,-3.4069,-3.3021,-3.2662,-3.2273,-3.1765,-3.157,-3.1496,-3.1496,-3.1496,-3.1496,-3.1496,-3.1496,-3.1496,-3.1496,-3.1496,-3.154,-3.1689,-3.1716,-3.164,-3.1697,-3.1981,-3.233,-3.2765,-3.3082,-3.3242,-3.306,-3.2942,-3.2628,-3.2119,-3.1909,-3.1796,-3.1747,-3.1796,-3.1779,-3.1779,-3.1796,-3.1553,-3.1045,-3.0916,-3.13,-3.2531,-3.2335,-3.1903,-4.1055,-4.0674,-3.9901,-3.8634,0.0,-3.666,-3.6517,-3.6663,-3.7049,-3.7204,-3.7175,-3.693,-3.6366,-3.552,-3.4166,-3.313,-3.2292,-3.1171,-3.0659,-3.0646,-3.0659,-3.0659,-3.0659,-3.0646,-3.0379,-2.9926,-3.01,-2.9969,-2.9481,-2.9687,-2.9811,-2.9811,-2.9811,-2.9825,-2.9825,-2.9811,-3.0222,-3.1058,-3.1058,-3.1058,-3.1058,-3.1058,-3.1058,-3.1058,-3.1117,0.0,0.0,0.0,0.0,0.0,0.0,0.0,0.0,0.0,0.0,-2.9579,-2.9564,-2.9322,-2.8708,-2.949,-3.0163,-3.0477,-3.0821,-3.1122,-3.1481,-3.1496,-3.163,-3.1974,-3.2632,-3.3006,-3.3021,-3.3305,-3.323,-3.2572,-3.2198,-3.1854,-3.157,-3.1496,-3.1496,-3.1496,-3.1496,-3.1496,-3.1496,-3.1496,-3.1496,-3.1496,-3.1496,-3.1496,-3.1496,-3.1496,-3.1496,-3.1496,-3.1727,-3.2025,-3.2342,-3.2559,-3.258,-3.2278,-3.1937,-3.1462,-3.0822,-3.0394,-3.0157,-3.0157,-3.0157,-3.018,-3.0157,-3.0157,-3.003,-2.9706,-2.9618,-2.9806,-3.0599,-3.0599,-3.0511,-3.9667,-3.9503,-3.8448,-3.73,-3.6215,-3.5669,-3.5142,-3.4744,-3.5601,0.0,0.0,-3.5409,-3.4913,-3.432,-3.2784,-3.1808,-3.128,-3.0252,-2.9779,-2.9779,-2.9779,-2.9779,-2.9779,-2.9779,-2.9682,-2.9436,-2.9376,-2.9174,-2.8946,-2.8855,-2.8812,-2.8826,-2.8812,-2.8812,-2.8812,-2.8826,-2.9237,-3.0085,-3.0251,-3.0342,-3.0312,-3.0312,-3.0254,-3.0169,-3.0334,-3.0454,-3.0529,-3.0866,-3.1143,-3.1331,-3.1436,-3.1496,-3.1481,-3.0972,-3.0627,-3.0492,-3.0148,-2.9864,-2.9774,-3.0328,-3.0687,-3.0658,-3.1182,-3.1496,-3.1496,-3.1496,-3.172,-3.2258,-3.2422,-3.2691,-3.3095,-3.2796,-3.2467,-3.2333,-3.1824,-3.1511,-3.1496,-3.1496,-3.1496,-3.1496,-3.1496,-3.1496,-3.1496,-3.1496,-3.1496,-3.1496,-3.1496,-3.1436,-3.1361,-3.1271,-3.1197,-3.1091,-3.1249,-3.1615,-3.1855,-3.2102,-3.2004,-3.1418,-3.0928,-3.0324,-2.9574,-2.8923,-2.8542,-2.8596,-2.8511,-2.8558,-2.8527,-2.8604,-2.8511,-2.8511,-2.8496,-2.8511,-2.8543,-2.881,-2.9127,-3.8031,-3.7572,-3.7043,-3.613,-3.491,-3.4509,-3.3949,-3.3484,-3.4649,-3.5182,-3.5142,-3.4607,-3.3834,-3.2962,-3.2058,-3.119,-3.0305,-2.9972,-2.9779,-2.9779,-2.9779,-2.9779,-2.9779,-2.9779,-2.9593,-2.9237,-2.9042,-2.8794,-2.8436,-2.8253,-2.8157,-2.8157,-2.8157,-2.8124,-2.8157,-2.8157,-2.8222,-2.8384,-2.8907,-2.9223,-2.9223,-2.9223,-2.9004,-2.8563,-2.8806,-2.8851,-2.8756,-2.9637,-3.0274,-3.0629,-3.1182,-3.1496,-3.1496,-3.1406,-3.1092,-3.0597,-3.0971,-3.0972,-3.0432,-3.0972,-3.1346,-3.1361,-3.1466,-3.1496,-3.1496,-3.1496,-3.154,-3.1675,-3.2138,-3.2273,-3.1899,-3.2228,-3.2243,-3.1765,-3.157,-3.1496,-3.1496,-3.1496,-3.1496,-3.1496,-3.1496,-3.1496,-3.1496,-3.1496,-3.1496,-3.1496,-3.1496,-3.1301,-3.0778,-3.0657,-3.0417,-3.0073,-3.034,-3.0653,-3.0902,-3.1279,-3.1093,-3.0069,-2.9909,-2.9392,-2.8283,-2.7951,-2.786,-2.7785,-2.7835,-2.7795,-2.7795,-2.776,-2.7795,-2.7835,-2.786,-2.782,-2.782,-2.7919,-2.8125,-3.6532,-3.6441,-3.5704,-3.5024,-3.4343,-3.3768,-3.3368,-3.3154,-3.3696,-3.3979,-3.3888,-3.3077,-3.2426,-3.193,-3.102,-3.0367,-2.9946,-2.983,-2.9779,-2.9779,-2.9779,-2.9779,-2.9779,-2.9779,-2.9692,-2.9492,-2.8794,-2.8356,-2.8145,-2.7533,-2.7188,-2.7188,-2.7188,-2.7188,-2.7188,-2.7188,-2.7188,-2.7222,-2.8045,-2.8454,-2.8454,-2.8454,-2.8319,-2.8094,-2.8396,-2.8677,-2.887,-2.9484,-3.0074,-3.0528,-3.0852,-3.0999,-3.0999,-3.0999,-3.0881,-3.0601,-3.0852,-3.0881,-3.0572,-3.0852,-3.1029,-3.1014,-3.1029,-3.1014,-3.1029,-3.1322,-3.1496,-3.1511,-3.1795,-3.1839,-3.154,-3.178,-3.1839,-3.1555,-3.1496,-3.1496,-3.1496,-3.1496,-3.1496,-3.1496,-3.1496,-3.1496,-3.1496,-3.1496,-3.1496,-3.1496,-3.1496,-3.1137,-3.0193,-3.0013,-2.9909,-2.9669,-2.9834,-3.0148,-3.0417,-3.0432,-3.0208,-2.9651,-2.928,-2.8682,-2.7779,-2.7585,-2.7585,-2.7585,-2.7585,-2.7585,-2.757,-2.7585,-2.7585,-2.7585,-2.7585,-2.7585,-2.7585,-2.7585,-2.775,-3.5109,-3.5236,-3.4468,-3.4034,-3.3836,-3.3313,-3.3124,-3.3124,-3.3124,-3.3124,-3.2973,-3.1888,-3.1386,-3.1273,-3.0269,-2.9779,-2.9779,-2.9779,-2.9779,-2.9779,-2.9779,-2.9779,-2.9779,-2.9779,-2.9779,-2.9654,-2.8649,-2.8109,-2.7984,-2.7027,-2.6487,-2.6487,-2.6487,-2.6487,-2.6487,-2.6487,-2.6487,-2.6555,-2.7289,-2.7676,-2.7676,-2.7643,-2.7611,-2.7479,-2.778,-2.8147,-2.8549,-2.8986,-2.9447,-2.9819,-2.9994,-2.9994,-2.9894,-2.988,-2.9836,-2.9836,-2.9979,-3.0123,-3.0237,-3.0251,-3.0251,-3.0237,-3.0237,-3.0237,-3.0267,-3.0658,-3.1058,-3.1219,-3.1278,-3.1307,-3.1322,-3.1366,-3.1409,-3.1395,-3.1395,-3.138,-3.1424,-3.138,-3.1409,-3.1438,-3.1482,-3.1496,-3.1496,-3.1496,-3.1496,-3.1496,-3.1496,-3.0972,-2.9894,-2.9621,-2.9547,-2.9247,-2.9277,-2.9505,-2.9983,-2.9864,-2.9592,-2.9415,-2.8951,-2.8368,-2.7809,-2.7585,-2.748,-2.7405,-2.7345,-2.7225,-2.718,-2.7121,-2.7076,-2.7016,-2.7001,-2.7061,-2.7046,-2.7031,-2.73,-3.3783,-3.3384,-3.3308,-3.3197,-3.3197,-3.3124,-3.3124,-3.3124,-3.3124,-3.3124,-3.2973,-3.1888,-3.1386,-3.1248,-3.0269,-2.9779,-2.9779,-2.9779,-2.9779,-2.9779,-2.9779,-2.9779,-2.9779,-2.9779,-2.9779,-2.9654,-2.8649,-2.8109,-2.8047,-2.704,-2.6487,-2.6487,-2.6487,-2.6487,-2.6487,-2.6487,-2.6487,-2.6487,-2.6589,-2.6624,-2.6624,-2.6624,-2.6371,-2.5853,-2.6151,-2.6259,-2.6436,-2.7109,-2.7598,-2.7573,-2.8124,-2.8168,-2.7696,-2.7642,-2.7642,-2.7684,-2.8126,-2.8639,-2.9077,-2.916,-2.916,-2.9142,-2.9174,-2.916,-2.916,-2.9223,-2.9642,-3.0358,-3.0672,-3.0687,-3.0866,-3.0955,-3.1043,-3.1102,-3.1043,-3.1073,-3.1087,-3.1087,-3.1131,-3.1307,-3.1424,-3.1496,-3.1496,-3.1496,-3.1496,-3.1496,-3.1496,-3.1017,-2.9864,-2.9606,-2.9127,-2.8319,-2.8278,-2.8697,-2.8906,-2.928,-2.919,-2.8816,-2.8652,-2.8248,-2.7794,-2.7555,-2.7435,-2.6986,-2.6767,-2.6617,-2.6123,-2.5809,-2.5884,-2.6078,-2.6019,-2.5869,-2.5824,-2.5914,-2.6303,-3.3282,-3.3124,-3.3124,-3.3124,-3.3124,-3.3124,-3.3124,-3.3124,-3.3124,-3.2893,-3.2491,-3.1738,-3.1386,-3.1323,-3.0269,-2.9779,-2.9779,-2.9779,-2.9779,-2.9779,-2.9779,-2.9779,-2.9779,-2.9779,-2.9779,-2.9691,-2.8637,-2.8109,-2.7921,-2.7027,-2.6487,-2.6487,-2.6487,-2.6487,-2.6487,-2.6487,-2.6487,-2.6487,-2.6487,-2.6487,-2.6487,-2.6487,-2.6373,-2.6206,-2.6337,-2.6537,-2.6661,-2.6874,-2.7053,-2.7161,-2.7176,-2.703,-2.6785,-2.6772,-2.6758,-2.6799,-2.7311,-2.7683,-2.7913,-2.8233,-2.8436,-2.8422,-2.8403,-2.8422,-2.839,-2.839,-2.8629,-2.9012,-2.9407,-2.9749,-3.0009,-3.0374,-3.0613,-3.0628,-3.0613,-3.0598,-3.0628,-3.0613,-3.0673,-3.0955,-3.1307,-3.1496,-3.1496,-3.1496,-3.1496,-3.1496,-3.1496,-3.0987,-2.9849,-2.9621,-2.9022,-2.7989,-2.7854,-2.8158,-2.8472,-2.8438,-2.8498,-2.8502,-2.8248,-2.7814,-2.772,-2.7585,-2.7375,-2.6716,-2.6572,-2.6303,-2.5779,-2.563,-2.56,-2.554,-2.5585,-2.56,-2.56,-2.56,-2.5914,-3.3124,-3.3124,-3.3124,-3.3124,-3.3124,-3.3124,-3.3124,-3.3043,-3.2905,-3.2604,-3.2164,-3.1486,-3.1173,-3.1047,-3.0193,-2.9779,-2.9779,-2.9779,-2.9779,-2.9779,-2.9779,-2.9779,-2.9779,-2.9779,-2.9779,-2.9603,-2.8649,-2.7959,-2.7607,-2.6939,-2.6487,-2.6487,-2.6487,-2.6487,-2.6487,-2.6487,-2.6487,-2.6487,-2.6487,-2.6487,-2.6487,-2.6487,-2.6487,-2.6487,-2.6577,-2.6684,-2.6763,-2.651,-2.6375,-2.633,-2.5941,-2.5669,-2.5511,-2.5498,-2.5577,-2.5761,-2.6099,-2.6461,-2.675,-2.7125,-2.7406,-2.7537,-2.7577,-2.7577,-2.7577,-2.7577,-2.7577,-2.7643,-2.8045,-2.8492,-2.9205,-2.9704,-3.0009,-2.9976,-3.0023,-3.0009,-2.9991,-2.9993,-3.0192,-3.0554,-3.1043,-3.1409,-3.1467,-3.1496,-3.1496,-3.1496,-3.1481,-3.1137,-3.0103,-2.9684,-2.9187,-2.8064,-2.775,-2.7794,-2.8188,-2.8034,-2.7914,-2.8019,-2.7899,-2.766,-2.7585,-2.7585,-2.718,-2.6437,-2.6393,-2.5899,-2.5016,-2.4926,-2.5091,-2.5061,-2.5061,-2.5061,-2.4881,-2.5016,-2.5016,-3.3124,-3.3124,-3.3124,-3.3124,-3.3124,-3.3124,-3.3124,-3.3074,-3.2516,-3.224,-3.2039,-3.1122,-3.0618,-3.0608,-3.0043,-2.9779,-2.9779,-2.9779,-2.9779,-2.9779,-2.9779,-2.9779,-2.9779,-2.9779,-2.9779,-2.9691,-2.8649,-2.763,-2.67,-2.6537,-2.6487,-2.6487,-2.6487,-2.6487,-2.6487,-2.6487,-2.6487,-2.6487,-2.6487,-2.6487,-2.6487,-2.6487,-2.6487,-2.6487,-2.6474,-2.6244,-2.5791,-2.5678,-2.5219,-2.4211,-2.421,-2.3927,-2.3404,-2.3341,-2.3624,-2.4078,-2.423,-2.4665,-2.5542,-2.584,-2.6093,-2.6523,-2.6692,-2.6589,-2.6726,-2.6726,-2.6714,-2.6589,-2.6748,-2.7263,-2.8338,-2.8935,-2.9247,-2.9149,-2.9261,-2.9261,-2.9149,-2.9216,-2.9591,-3.0054,-3.0673,-3.1146,-3.1438,-3.1496,-3.1496,-3.1496,-3.1496,-3.1212,-3.0537,-2.9939,-2.9307,-2.8607,-2.7993,-2.7615,-2.766,-2.766,-2.7645,-2.7735,-2.7764,-2.7585,-2.7585,-2.745,-2.6791,-2.6213,-2.6078,-2.545,-2.4238,-2.3789,-2.3939,-2.3984,-2.4014,-2.3984,-2.4193,-2.3849,-2.3909,-3.3124,-3.3124,-3.3124,-3.3124,-3.3124,-3.3124,-3.3124,-3.3074,-3.2478,-3.2001,-3.1612,-3.0922,-3.0419,-3.0068,-2.988,-2.9779,-2.9779,-2.9779,-2.9779,-2.9779,-2.9779,-2.9779,-2.9779,-2.9779,-2.9779,-2.9616,-2.8649,-2.7532,-2.66,-2.6487,-2.6487,-2.6487,-2.6487,-2.6487,-2.6487,-2.6487,-2.6487,-2.6487,-2.6487,-2.6487,-2.6487,-2.6487,-2.6487,-2.6461,-2.6122,-2.5845,-2.5598,-2.4958,-2.4381,-2.4004,-2.3653,-2.3321,-2.3133,-2.3095,-2.3183,-2.3459,-2.4117,-2.4695,-2.5109,-2.5795,-2.626,-2.6449,-2.6487,-2.6487,-2.6487,-2.6487,-2.6487,-2.6487,-2.6487,-2.6816,-2.7276,-2.7914,-2.8274,-2.8254,-2.8274,-2.8306,-2.8268,-2.8287,-2.8519,-2.9265,-3.0176,-3.1029,-3.1336,-3.1496,-3.1496,-3.1496,-3.1496,-3.1182,-3.0612,-3.0011,-2.9382,-2.8697,-2.8064,-2.7585,-2.7585,-2.76,-2.76,-2.76,-2.7585,-2.7585,-2.7585,-2.7585,-2.7091,-2.6512,-2.6168,-2.5749,-2.4792,-2.4246,-2.4133,-2.364,-2.3595,-2.3595,-2.361,-2.3595,-2.3595,-3.3124,-3.3124,-3.3124,-3.3124,-3.3099,-3.288,-3.2805,-3.2704,-3.2026,-3.1486,-3.1072,-3.0583,-3.0131,-2.9829,-2.9779,-2.9779,-2.9779,-2.9779,-2.9779,-2.9779,-2.9779,-2.9779,-2.9779,-2.9779,-2.9779,-2.9616,-2.8637,-2.7532,-2.6612,-2.6487,-2.6487,-2.6487,-2.6487,-2.6487,-2.6487,-2.6487,-2.6487,-2.6487,-2.6487,-2.6487,-2.6487,-2.6487,-2.6487,-2.6386,-2.5737,-2.5347,-2.5335,-2.4481,-2.3891,-2.3703,-2.3321,-2.3095,-2.3095,-2.3095,-2.3195,-2.3446,-2.4086,-2.472,-2.5084,-2.5774,-2.6285,-2.6474,-2.6487,-2.6487,-2.6487,-2.6487,-2.6487,-2.6487,-2.6487,-2.6555,-2.6679,-2.7074,-2.7364,-2.7523,-2.753,-2.7517,-2.7543,-2.7564,-2.8012,-2.8917,-2.987,-3.0613,-3.1102,-3.119,-3.1263,-3.1322,-3.138,-3.1214,-3.0838,-3.0088,-2.9502,-2.8936,-2.8169,-2.7705,-2.7585,-2.7585,-2.7585,-2.7585,-2.7585,-2.7585,-2.7585,-2.7585,-2.7405,-2.6866,-2.6437,-2.6078,-2.5585,-2.4978,-2.4365,-2.3774,-2.3595,-2.3595,-2.3595,-2.3595,-2.3595,-3.3124,-3.3124,-3.3124,-3.3124,-3.3048,-3.2516,-3.2252,-3.2114,-3.1173,-3.0758,-3.0645,-3.008,-2.9842,-2.9779,-2.9779,-2.9779,-2.9779,-2.9779,-2.9779,-2.9779,-2.9779,-2.9779,-2.9779,-2.9779,-2.9691,-2.9566,-2.8624,-2.7544,-2.6549,-2.6487,-2.6487,-2.6487,-2.6487,-2.6487,-2.6487,-2.6487,-2.6487,-2.6487,-2.6487,-2.6487,-2.6487,-2.6487,-2.6461,-2.6336,-2.541,-2.4838,-2.4775,-2.4255,-2.3703,-2.3233,-2.3133,-2.3095,-2.3095,-2.3095,-2.3346,-2.3841,-2.4029,-2.4556,-2.541,-2.5695,-2.6059,-2.6373,-2.6487,-2.6487,-2.6487,-2.6487,-2.6487,-2.6487,-2.6487,-2.6487,-2.6521,-2.6589,-2.6726,-2.6956,-2.7121,-2.7108,-2.7066,-2.7154,-2.7716,-2.8885,-2.9529,-3.0007,-3.0433,-3.0643,-3.0762,-3.094,-3.1117,-3.1321,-3.1198,-3.0357,-2.9654,-2.9337,-2.8468,-2.7645,-2.7585,-2.7585,-2.7585,-2.7585,-2.7585,-2.7585,-2.7585,-2.7585,-2.7435,-2.7016,-2.6941,-2.6551,-2.554,-2.4933,-2.444,-2.3954,-2.3819,-2.361,-2.3595,-2.3595,-2.3595,-3.3124,-3.3124,-3.3124,-3.3124,-3.3036,-3.2466,-3.2202,-3.2089,-3.1044,-3.062,-3.052,-3.0043,-2.9779,-2.9779,-2.9779,-2.9779,-2.9779,-2.9779,-2.9779,-2.9779,-2.9779,-2.9779,-2.9779,-2.9779,-2.9377,-2.8699,-2.8298,-2.7532,-2.6675,-2.6487,-2.6487,-2.6487,-2.6487,-2.6487,-2.6487,-2.6487,-2.6487,-2.6487,-2.6487,-2.6487,-2.6487,-2.6487,-2.6323,-2.5871,-2.5172,-2.4625,-2.4255,-2.3672,-2.3308,-2.3108,-2.3095,-2.3095,-2.3095,-2.3095,-2.3401,-2.3954,-2.4368,-2.4845,-2.5511,-2.5996,-2.6273,-2.6449,-2.6487,-2.6487,-2.6487,-2.6487,-2.6487,-2.6487,-2.6487,-2.6487,-2.6487,-2.6487,-2.6555,-2.6624,-2.6692,-2.6714,-2.6726,-2.6918,-2.7397,-2.8032,-2.8532,-2.898,-2.9407,-2.9718,-3.0056,-3.0464,-3.0733,-3.1073,-3.123,-3.0389,-2.9624,-2.9502,-2.8453,-2.7615,-2.7585,-2.7585,-2.7585,-2.7585,-2.7585,-2.7585,-2.7585,-2.757,-2.742,-2.7285,-2.721,-2.6731,-2.5719,-2.5053,-2.4657,-2.4073,-2.3744,-2.364,-2.361,-2.3595,-2.3595,-3.3124,-3.3124,-3.3124,-3.3124,-3.298,-3.2252,-3.1913,-3.175,-3.0771,-3.0306,-3.0231,-2.9955,-2.9779,-2.9779,-2.9779,-2.9779,-2.9779,-2.9779,-2.9779,-2.9779,-2.9779,-2.9779,-2.9741,-2.9553,-2.9026,-2.821,-2.7896,-2.7344,-2.6537,-2.6487,-2.6487,-2.6487,-2.6487,-2.6487,-2.6487,-2.6487,-2.6487,-2.6487,-2.6487,-2.6487,-2.6487,-2.6487,-2.6311,-2.5933,-2.5398,-2.4958,-2.4569,-2.3879,-2.3333,-2.3158,-2.3095,-2.3095,-2.3095,-2.312,-2.3459,-2.4161,-2.4612,-2.5134,-2.5824,-2.6285,-2.6487,-2.6487,-2.6487,-2.6487,-2.6487,-2.6487,-2.6487,-2.6487,-2.6487,-2.6487,-2.6487,-2.6487,-2.6487,-2.6487,-2.6521,-2.6487,-2.6521,-2.6714,-2.7061,-2.7484,-2.7829,-2.8189,-2.8551,-2.8921,-2.9331,-2.9842,-3.0283,-3.0748,-3.0909,-3.0248,-2.9796,-2.9253,-2.8408,-2.7854,-2.763,-2.7585,-2.7585,-2.7585,-2.7585,-2.7585,-2.7585,-2.7585,-2.7495,-2.7345,-2.724,-2.6881,-2.5989,-2.5615,-2.5196,-2.4522,-2.3789,-2.364,-2.3595,-2.3595,-2.3595,-3.3124,-3.3124,-3.3124,-3.3124,-3.293,-3.1913,-3.1449,-3.1248,-3.0294,-2.9842,-2.9829,-2.9804,-2.9779,-2.9779,-2.9779,-2.9779,-2.9779,-2.9779,-2.9779,-2.9779,-2.9779,-2.9754,-2.9603,-2.9189,-2.8612,-2.7996,-2.7544,-2.7065,-2.6512,-2.6487,-2.6487,-2.6487,-2.6487,-2.6487,-2.6487,-2.6487,-2.6487,-2.6487,-2.6487,-2.6487,-2.6487,-2.6487,-2.6424,-2.6336,-2.5812,-2.5473,-2.5197,-2.4406,-2.3715,-2.3246,-2.3221,-2.3271,-2.3246,-2.3208,-2.3828,-2.4738,-2.4838,-2.5435,-2.621,-2.6449,-2.6487,-2.6487,-2.6487,-2.6487,-2.6487,-2.6487,-2.6487,-2.6487,-2.6487,-2.6487,-2.6487,-2.6487,-2.6487,-2.6487,-2.6487,-2.6487,-2.6499,-2.6624,-2.6837,-2.7095,-2.7343,-2.7543,-2.7861,-2.8143,-2.8597,-2.9093,-2.9594,-3.0147,-3.0382,-2.9937,-2.9495,-2.8901,-2.8218,-2.7869,-2.7585,-2.7585,-2.7585,-2.7585,-2.7585,-2.7585,-2.7585,-2.757,-2.7585,-2.7435,-2.7225,-2.6851,-2.6408,-2.5959,-2.5382,-2.4649,-2.4096,-2.3774,-2.3595,-2.3595,-2.361,-3.3124,-3.3124,-3.3124,-3.3124,-3.296,-3.1863,-3.1386,-3.1248,-3.0256,-2.9779,-2.9779,-2.9779,-2.9779,-2.9779,-2.9779,-2.9779,-2.9779,-2.9779,-2.9779,-2.9779,-2.9779,-2.9528,-2.9189,-2.8963,-2.8386,-2.7632,-2.7379,-2.7005,-2.6524,-2.6487,-2.6487,-2.6487,-2.6487,-2.6487,-2.6487,-2.6487,-2.6487,-2.6487,-2.6487,-2.6487,-2.6487,-2.6487,-2.6273,-2.5837,-2.5699,-2.5423,-2.5034,-2.4368,-2.3954,-2.3803,-2.3766,-2.3979,-2.4224,-2.4286,-2.4594,-2.5172,-2.5385,-2.5674,-2.6298,-2.6487,-2.6487,-2.6487,-2.6487,-2.6487,-2.6487,-2.6487,-2.6487,-2.6487,-2.6487,-2.6487,-2.6487,-2.6487,-2.6487,-2.6487,-2.6487,-2.6487,-2.6487,-2.6521,-2.6589,-2.6679,-2.676,-2.6897,-2.7019,-2.7263,-2.765,-2.813,-2.8748,-2.9372,-2.9645,-2.9594,-2.9104,-2.8687,-2.8158,-2.7824,-2.7585,-2.7585,-2.7585,-2.7585,-2.7585,-2.7585,-2.757,-2.754,-2.757,-2.754,-2.7315,-2.6971,-2.6512,-2.6063,-2.5382,-2.4784,-2.4141,-2.367,-2.3625,-2.3595,-2.364,-3.3124,-3.3124,-3.3124,-3.3124,-3.2973,-3.1863,-3.1386,-3.1173,-3.0269,-2.9779,-2.9779,-2.9779,-2.9779,-2.9779,-2.9779,-2.9779,-2.9779,-2.9779,-2.9779,-2.9779,-2.9779,-2.9603,-2.9264,-2.89,-2.8235,-2.7645,-2.719,-2.6813,-2.6537,-2.6487,-2.6487,-2.6487,-2.6487,-2.6487,-2.6487,-2.6487,-2.6487,-2.6487,-2.6487,-2.6487,-2.6487,-2.6487,-2.6348,-2.6047,-2.5984,-2.5711,-2.5184,-2.4833,-2.4582,-2.4356,-2.4167,-2.4255,-2.4713,-2.48,-2.5059,-2.5536,-2.5598,-2.5883,-2.6348,-2.6487,-2.6487,-2.6487,-2.6487,-2.6487,-2.6487,-2.6487,-2.6487,-2.6487,-2.6487,-2.6487,-2.6487,-2.6487,-2.6487,-2.6487,-2.6487,-2.6487,-2.6487,-2.6487,-2.6487,-2.6487,-2.6487,-2.6487,-2.6487,-2.6748,-2.7027,-2.7484,-2.8111,-2.8706,-2.9188,-2.8984,-2.8897,-2.8685,-2.8398,-2.8096,-2.7889,-2.7839,-2.7645,-2.7615,-2.7585,-2.7585,-2.754,-2.751,-2.7465,-2.741,-2.73,-2.7111,-2.6757,-2.6294,-2.563,-2.4948,-2.4193,-2.3729,-2.3684,-2.3894,-2.3894,-3.3124,-3.3124,-3.3124,-3.3124,-3.2948,-3.1888,-3.1386,-3.1185,-3.0256,-2.9779,-2.9779,-2.9779,-2.9779,-2.9779,-2.9779,-2.9779,-2.9779,-2.9779,-2.9779,-2.9779,-2.9779,-2.9729,-2.9616,-2.8787,-2.821,-2.7795,-2.6977,-2.665,-2.6524,-2.6487,-2.6487,-2.6487,-2.6487,-2.6487,-2.6487,-2.6487,-2.6487,-2.6487,-2.6487,-2.6487,-2.6487,-2.6487,-2.6436,-2.6411,-2.6386,-2.6197,-2.5787,-2.5548,-2.536,-2.5021,-2.4469,-2.4594,-2.4971,-2.5034,-2.5247,-2.5624,-2.5799,-2.6021,-2.6373,-2.6487,-2.6487,-2.6487,-2.6487,-2.6487,-2.6487,-2.6487,-2.6487,-2.6487,-2.6487,-2.6487,-2.6487,-2.6487,-2.6487,-2.6487,-2.6487,-2.6487,-2.6487,-2.6487,-2.6487,-2.6487,-2.6487,-2.6487,-2.6521,-2.6624,-2.6782,-2.704,-2.7524,-2.7943,-2.84,-2.8465,-2.8783,-2.9199,-2.8847,-2.8467,-2.8289,-2.8124,-2.7854,-2.766,-2.7615,-2.7585,-2.751,-2.745,-2.7335,-2.7235,-2.7235,-2.728,-2.7235,-2.6663,-2.5759,-2.5247,-2.4537,-2.4081,-2.3804,-2.4238,-2.4403,-3.3124,-3.3124,-3.3124,-3.3124,-3.2935,-3.1888,-3.1386,-3.1298,-3.0256,-2.9779,-2.9779,-2.9779,-2.9779,-2.9779,-2.9779,-2.9779,-2.9779,-2.9779,-2.9779,-2.9779,-2.9779,-2.9779,-2.9666,-2.9038,-2.8323,-2.7695,-2.7281,-2.6914,-2.6625,-2.6524,-2.6487,-2.6487,-2.6487,-2.6487,-2.6487,-2.6487,-2.6487,-2.6487,-2.6487,-2.6487,-2.6487,-2.6487,-2.6487,-2.6487,-2.6487,-2.6436,-2.6248,-2.5858,-2.5795,-2.5908,-2.5611,-2.5448,-2.5862,-2.6047,-2.6097,-2.6172,-2.626,-2.6348,-2.6461,-2.6487,-2.6487,-2.6487,-2.6487,-2.6487,-2.6487,-2.6487,-2.6487,-2.6487,-2.6487,-2.6487,-2.6487,-2.6487,-2.6487,-2.6487,-2.6487,-2.6487,-2.6487,-2.6487,-2.6487,-2.6487,-2.6487,-2.6487,-2.6487,-2.6521,-2.6624,-2.6726,-2.6917,-2.7196,-2.756,-2.7966,-2.8554,-2.9173,-2.9071,-2.8708,-2.8765,-2.8495,-2.8008,-2.7684,-2.7539,-2.7509,-2.7449,-2.7434,-2.7324,-2.7263,-2.7246,-2.7251,-2.7185,-2.6258,-2.5221,-2.5038,-2.4924,-2.4567,-2.438,-2.4732,-2.5046,-3.3124,-3.3124,-3.3124,-3.3124,-3.2948,-3.1901,-3.1386,-3.1185,-3.0256,-2.9779,-2.9779,-2.9779,-2.9779,-2.9779,-2.9779,-2.9779,-2.9779,-2.9779,-2.9779,-2.9779,-2.9779,-2.9779,-2.9754,-2.9465,-2.8863,-2.8072,-2.7517,-2.7153,-2.6901,-2.6625,-2.6487,-2.6487,-2.6487,-2.6487,-2.6487,-2.6487,-2.6487,-2.6487,-2.6487,-2.6487,-2.6487,-2.6487,-2.6487,-2.6487,-2.6487,-2.6487,-2.6424,-2.621,-2.6235,-2.6336,-2.6197,-2.6147,-2.6411,-2.6487,-2.6487,-2.6487,-2.6487,-2.6487,-2.6487,-2.6487,-2.6487,-2.6487,-2.6487,-2.6487,-2.6487,-2.6487,-2.6487,-2.6487,-2.6487,-2.6487,-2.6487,-2.6487,-2.6487,-2.6487,-2.6487,-2.6487,-2.6487,-2.6487,-2.6487,-2.6487,-2.6487,-2.6487,-2.6487,-2.6487,-2.6521,-2.6624,-2.6726,-2.6992,-2.7379,-2.779,-2.8383,-2.8841,-2.8969,-2.8971,-2.9182,-2.8866,-2.8181,-2.7771,-2.7386,-2.7372,-2.7316,-2.7331,-2.7357,-2.7255,-2.7126,-2.6904,-2.6637,-2.566,-2.5194,-2.5349,-2.5301,-2.5012,-2.497,-2.5224,-2.5591,-3.3124,-3.3124,-3.3124,-3.3074,-3.2792,-3.1825,-3.1323,-3.1097,-3.0218,-2.9779,-2.9779,-2.9779,-2.9779,-2.9779,-2.9779,-2.9779,-2.9779,-2.9779,-2.9779,-2.9779,-2.9779,-2.9779,-2.9767,-2.9666,-2.9478,-2.8925,-2.8134,-2.7595,-2.7216,-2.6864,-2.665,-2.6524,-2.6487,-2.6487,-2.6487,-2.6487,-2.6487,-2.6487,-2.6487,-2.6487,-2.6487,-2.6487,-2.6487,-2.6487,-2.6487,-2.6487,-2.6487,-2.6436,-2.6474,-2.6487,-2.6487,-2.6487,-2.6487,-2.6487,-2.6487,-2.6487,-2.6487,-2.6487,-2.6487,-2.6487,-2.6487,-2.6487,-2.6612,-2.6562,-2.6537,-2.66,-2.6612,-2.6524,-2.6487,-2.6487,-2.6487,-2.6487,-2.6487,-2.6487,-2.6487,-2.6487,-2.6487,-2.6487,-2.6487,-2.6487,-2.6487,-2.6487,-2.6487,-2.6487,-2.6487,-2.6521,-2.6624,-2.6794,-2.7142,-2.7504,-2.8002,-2.8543,-2.8669,-2.8871,-2.9065,-2.9,-2.8334,-2.758,-2.7192,-2.7063,-2.7049,-2.7023,-2.6997,-2.7063,-2.6919,-2.6695,-2.6294,-2.5577,-2.5387,-2.57,-2.5644,-2.5315,-2.5429,-2.5682,-2.6029,-3.3124,-3.3124,-3.3124,-3.2817,-3.2303,-3.165,-3.1135,-3.0683,-3.008,-2.9792,-2.9779,-2.9779,-2.9779,-2.9779,-2.9779,-2.9779,-2.9779,-2.9779,-2.9779,-2.9779,-2.9779,-2.9779,-2.9779,-2.9779,-2.9704,-2.9528,-2.89,-2.821,-2.7532,-2.7203,-2.6914,-2.66,-2.6487,-2.6487,-2.6487,-2.6487,-2.6487,-2.6487,-2.6487,-2.6487,-2.6487,-2.6487,-2.6487,-2.6487,-2.6487,-2.6487,-2.6487,-2.6487,-2.6487,-2.6487,-2.6487,-2.6487,-2.6487,-2.6487,-2.6487,-2.6487,-2.6487,-2.6487,-2.6487,-2.6487,-2.6487,-2.6587,-2.6864,-2.6901,-2.6776,-2.6901,-2.6952,-2.6663,-2.6549,-2.6524,-2.6487,-2.6487,-2.6487,-2.6487,-2.6487,-2.6487,-2.6487,-2.6487,-2.6487,-2.6487,-2.6487,-2.6487,-2.6487,-2.6487,-2.6487,-2.6487,-2.6555,-2.6589,-2.6748,-2.7074,-2.7391,-2.7946,-2.8424,-2.8647,-2.8855,-2.8739,-2.8327,-2.7383,-2.6867,-2.6563,-2.6549,-2.659,-2.6616,-2.6657,-2.6683,-2.6537,-2.6048,-2.5434,-2.5322,-2.5452,-2.551,-2.5548,-2.5629,-2.5734,-2.6196,-3.3124,-3.3043,-3.2754,-3.2478,-3.2102,-3.1323,-3.0846,-3.0557,-3.003,-2.9779,-2.9779,-2.9779,-2.9779,-2.9779,-2.9779,-2.9779,-2.9779,-2.9779,-2.9779,-2.9779,-2.9779,-2.9779,-2.9779,-2.9779,-2.9779,-2.9716,-2.9453,-2.8913,-2.8134,-2.7519,-2.7216,-2.6939,-2.6663,-2.6487,-2.6487,-2.6487,-2.6499,-2.6499,-2.6512,-2.6512,-2.6499,-2.6499,-2.6487,-2.6487,-2.6487,-2.6487,-2.6487,-2.6487,-2.6487,-2.6487,-2.6487,-2.6487,-2.6487,-2.6487,-2.6487,-2.6487,-2.6487,-2.6487,-2.6487,-2.6499,-2.6612,-2.6914,-2.7203,-2.7318,-2.7356,-2.7519,-2.7431,-2.709,-2.6901,-2.6788,-2.6537,-2.6499,-2.6487,-2.6487,-2.6487,-2.6487,-2.6487,-2.6487,-2.6487,-2.6487,-2.6487,-2.6487,-2.6487,-2.6487,-2.6487,-2.6487,-2.6487,-2.6487,-2.6487,-2.6714,-2.704,-2.7683,-2.8271,-2.8672,-2.8829,-2.8671,-2.8172,-2.721,-2.6351,-2.6068,-2.5946,-2.5946,-2.6109,-2.6258,-2.6258,-2.6297,-2.5936,-2.5369,-2.5316,-2.5167,-2.5063,-2.5097,-2.5491,-2.5841,-2.6119,-3.3124,-3.3031,-3.2453,-3.2152,-3.1901,-3.1035,-3.0545,-3.0369,-2.998,-2.9779,-2.9779,-2.9779,-2.9779,-2.9779,-2.9779,-2.9779,-2.9779,-2.9779,-2.9779,-2.9779,-2.9779,-2.9779,-2.9779,-2.9779,-2.9779,-2.9779,-2.9741,-2.949,-2.87,-2.7959,-2.7482,-2.714,-2.6751,-2.6487,-2.6487,-2.6663,-2.6612,-2.6688,-2.6801,-2.6801,-2.6688,-2.6549,-2.6487,-2.6487,-2.6487,-2.6487,-2.6487,-2.6487,-2.6487,-2.6487,-2.6487,-2.6487,-2.6487,-2.6487,-2.6487,-2.6487,-2.6487,-2.6487,-2.6512,-2.6688,-2.6901,-2.719,-2.7494,-2.7795,-2.7896,-2.7934,-2.7883,-2.7544,-2.7316,-2.714,-2.6788,-2.6562,-2.6499,-2.6487,-2.6487,-2.6487,-2.6487,-2.6487,-2.6487,-2.6487,-2.6487,-2.6487,-2.6487,-2.6487,-2.6487,-2.6487,-2.6487,-2.6487,-2.6487,-2.6555,-2.6905,-2.7584,-2.8177,-2.8711,-2.8868,-2.8726,-2.7974,-2.6911,-2.5924,-2.5259,-2.5231,-2.5245,-2.5453,-2.5646,-2.5947,-2.5932,-2.5613,-2.5313,-2.5108,-2.4888,-2.4628,-2.4669,-2.5025,-2.5191,-2.5398,-3.3124,-3.3018,-3.2441,-3.1938,-3.1424,-3.0834,-3.0319,-2.9917,-2.9829,-2.9792,-2.9779,-2.9779,-2.9779,-2.9779,-2.9779,-2.9779,-2.9779,-2.9779,-2.9779,-2.9779,-2.9779,-2.9779,-2.9779,-2.9779,-2.9779,-2.9779,-2.9779,-2.9453,-2.8988,-2.8348,-2.7795,-2.7381,-2.6989,-2.6549,-2.6776,-2.7065,-2.7168,-2.7304,-2.7632,-2.7632,-2.7241,-2.6813,-2.6637,-2.6587,-2.6549,-2.6562,-2.66,-2.66,-2.6562,-2.6499,-2.6512,-2.6499,-2.6487,-2.6487,-2.6487,-2.6487,-2.6487,-2.6499,-2.6625,-2.6901,-2.7278,-2.7595,-2.8122,-2.8349,-2.8423,-2.8298,-2.8235,-2.8047,-2.7657,-2.7329,-2.7102,-2.6776,-2.6575,-2.6487,-2.6487,-2.6487,-2.6487,-2.6487,-2.6487,-2.6487,-2.6487,-2.6487,-2.6487,-2.6487,-2.6487,-2.6487,-2.6487,-2.6487,-2.6487,-2.6555,-2.6748,-2.743,-2.8076,-2.8605,-2.8617,-2.8525,-2.774,-2.6595,-2.5612,-2.4673,-2.4567,-2.4624,-2.4681,-2.4908,-2.53,-2.5508,-2.5204,-2.4982,-2.4798,-2.4562,-2.4259,-2.4326,-2.4528,-2.4652,-2.4652,-3.288,-3.2528,-3.1675,-3.1173,-3.0896,-3.0369,-3.0018,-2.9829,-2.9779,-2.9779,-2.9779,-2.9779,-2.9779,-2.9779,-2.9779,-2.9779,-2.9779,-2.9779,-2.9779,-2.9779,-2.9779,-2.9779,-2.9779,-2.9779,-2.9779,-2.9779,-2.9779,-2.9729,-2.9264,-2.8875,-2.8411,-2.8147,-2.7657,-2.7444,-2.7341,-2.7607,-2.7733,-2.7821,-2.7959,-2.7984,-2.7745,-2.7519,-2.7381,-2.7344,-2.7102,-2.6989,-2.6964,-2.6952,-2.6776,-2.6675,-2.6738,-2.6788,-2.6675,-2.6763,-2.6964,-2.6989,-2.7291,-2.7291,-2.7077,-2.7241,-2.7582,-2.8122,-2.8624,-2.8863,-2.8963,-2.9001,-2.8837,-2.8537,-2.8336,-2.7971,-2.7444,-2.7115,-2.6813,-2.6625,-2.6524,-2.6487,-2.6487,-2.6487,-2.6487,-2.6487,-2.6487,-2.6487,-2.6487,-2.6487,-2.6487,-2.6487,-2.6487,-2.6487,-2.6487,-2.6487,-2.6816,-2.7289,-2.79,-2.847,-2.8322,-2.8156,-2.7365,-2.6319,-2.5397,-2.4564,-2.4093,-2.4015,-2.4118,-2.4321,-2.4694,-2.4766,-2.4681,-2.4597,-2.4441,-2.4179,-2.3872,-2.3901,-2.3901,-2.3796,-2.3914,-3.2604,-3.2139,-3.1336,-3.0934,-3.0746,-3.0218,-2.993,-2.9792,-2.9779,-2.9779,-2.9779,-2.9779,-2.9779,-2.9779,-2.9779,-2.9779,-2.9779,-2.9779,-2.9779,-2.9779,-2.9779,-2.9779,-2.9779,-2.9779,-2.9779,-2.9779,-2.9779,-2.9754,-2.9641,-2.9377,-2.9076,-2.8875,-2.821,-2.8047,-2.8109,-2.8235,-2.8373,-2.8612,-2.8436,-2.836,-2.8273,-2.8134,-2.8059,-2.7946,-2.7745,-2.7494,-2.7494,-2.7482,-2.7266,-2.7178,-2.7115,-2.714,-2.7067,-2.7178,-2.7331,-2.7457,-2.7795,-2.7934,-2.7795,-2.7896,-2.8172,-2.8612,-2.9088,-2.934,-2.9603,-2.9779,-2.9679,-2.9126,-2.8888,-2.8423,-2.7896,-2.7532,-2.708,-2.6826,-2.6612,-2.6549,-2.6499,-2.6549,-2.6524,-2.6487,-2.6487,-2.6487,-2.6487,-2.6487,-2.6487,-2.6487,-2.6487,-2.6499,-2.6487,-2.6487,-2.6748,-2.7154,-2.7644,-2.8112,-2.8057,-2.7678,-2.6852,-2.6138,-2.5219,-2.4519,-2.4077,-2.3714,-2.3649,-2.3868,-2.4207,-2.408,-2.4034,-2.407,-2.4076,-2.3826,-2.3573,-2.3335,-2.3215,-2.3138,-2.3318,-3.2252,-3.2202,-3.2127,-3.1788,-3.1273,-3.0783,-3.0256,-2.9867,-2.9804,-2.9779,-2.9779,-2.9779,-2.9779,-2.9779,-2.9779,-2.9779,-2.9779,-2.9779,-2.9779,-2.9779,-2.9779,-2.9779,-2.9779,-2.9779,-2.9779,-2.9779,-2.9779,-2.9779,-2.9779,-2.9691,-2.9352,-2.8913,-2.8637,-2.8285,-2.8348,-2.8725,-2.9063,-2.9239,-2.9089,-2.8838,-2.875,-2.8524,-2.8273,-2.8222,-2.8122,-2.8047,-2.8047,-2.8047,-2.7934,-2.7795,-2.7645,-2.7582,-2.7657,-2.762,-2.7745,-2.8021,-2.8273,-2.8473,-2.8612,-2.8612,-2.8775,-2.9013,-2.934,-2.9641,-2.9767,-2.9779,-2.9716,-2.9616,-2.9289,-2.8925,-2.8473,-2.8021,-2.7557,-2.7231,-2.7052,-2.6839,-2.6763,-2.6663,-2.6637,-2.6524,-2.6487,-2.6487,-2.6612,-2.6637,-2.6738,-2.6751,-2.6713,-2.6725,-2.6524,-2.6521,-2.6679,-2.7007,-2.7417,-2.7696,-2.7749,-2.7293,-2.6831,-2.6156,-2.5306,-2.4652,-2.4129,-2.3801,-2.355,-2.372,-2.4042,-2.3677,-2.3503,-2.3825,-2.3919,-2.3543,-2.33,-2.3168,-2.3138,-2.3168,-2.3335,-3.2742,-3.2742,-3.2742,-3.2215,-3.1348,-3.0834,-3.0495,-3.0256,-2.9942,-2.9779,-2.9779,-2.9779,-2.9779,-2.9779,-2.9779,-2.9779,-2.9779,-2.9779,-2.9779,-2.9779,-2.9779,-2.9779,-2.9779,-2.9779,-2.9779,-2.9779,-2.9779,-2.9779,-2.9779,-2.9779,-2.9704,-2.9402,-2.9139,-2.9202,-2.9277,-2.9252,-2.9528,-2.9628,-2.9591,-2.9453,-2.9415,-2.9315,-2.9151,-2.9139,-2.8712,-2.8612,-2.8574,-2.8612,-2.8423,-2.8247,-2.8222,-2.8235,-2.8247,-2.8185,-2.8348,-2.8612,-2.885,-2.9151,-2.9239,-2.9189,-2.9076,-2.9453,-2.9666,-2.9779,-2.9779,-2.9779,-2.9779,-2.9691,-2.9578,-2.9315,-2.88,-2.8549,-2.8247,-2.7883,-2.7544,-2.7291,-2.7128,-2.7027,-2.6901,-2.6876,-2.665,-2.6487,-2.665,-2.6826,-2.6939,-2.704,-2.6977,-2.6927,-2.6788,-2.66,-2.675,-2.6858,-2.7193,-2.7276,-2.7317,-2.7096,-2.6817,-2.616,-2.5438,-2.4967,-2.4494,-2.4042,-2.3852,-2.3941,-2.4067,-2.406,-2.4035,-2.3988,-2.3824,-2.3536,-2.3311,-2.3138,-2.3138,-2.3236,-2.3305,-3.3124,-3.3099,-3.2893,-3.2277,-3.1386,-3.0997,-3.0658,-3.0319,-2.9955,-2.9779,-2.9779,-2.9779,-2.9779,-2.9779,-2.9689,-2.9611,-2.9573,-2.9534,-2.9546,-2.9585,-2.9611,-2.9702,-2.9779,-2.9779,-2.9779,-2.9779,-2.9779,-2.9779,-2.9779,-2.9779,-2.9754,-2.9741,-2.9779,-2.9716,-2.9716,-2.9779,-2.9779,-2.9779,-2.9779,-2.9779,-2.9767,-2.9741,-2.9729,-2.9679,-2.9352,-2.9214,-2.9189,-2.9176,-2.9038,-2.8813,-2.8737,-2.8787,-2.8762,-2.8812,-2.8976,-2.9264,-2.9515,-2.9767,-2.9666,-2.9528,-2.9365,-2.9666,-2.9741,-2.9779,-2.9779,-2.9779,-2.9779,-2.9779,-2.9754,-2.9616,-2.9101,-2.895,-2.8725,-2.8335,-2.8009,-2.772,-2.762,-2.7519,-2.7344,-2.7205,-2.709,-2.7115,-2.7281,-2.7532,-2.7618,-2.7632,-2.7519,-2.7444,-2.7306,-2.7128,-2.6898,-2.6936,-2.6969,-2.6939,-2.6863,-2.6777,-2.6657,-2.6416,-2.5794,-2.5438,-2.4996,-2.4544,-2.4293,-2.4418,-2.4519,-2.4594,-2.4601,-2.4576,-2.4117,-2.3565,-2.3384,-2.3233,-2.3346,-2.3414,-2.3188,-3.3124,-3.3048,-3.2491,-3.1926,-3.1399,-3.1361,-3.0796,-3.0043,-2.9842,-2.9779,-2.9779,-2.9779,-2.9779,-2.974,-2.956,-2.9314,-2.9079,-2.9091,-2.9091,-2.9079,-2.9275,-2.9521,-2.9702,-2.9779,-2.9779,-2.9779,-2.9779,-2.9779,-2.9779,-2.9779,-2.9779,-2.9779,-2.9779,-2.9779,-2.9779,-2.9779,-2.9779,-2.9779,-2.9779,-2.9779,-2.9779,-2.9779,-2.9779,-2.9754,-2.9704,-2.9603,-2.9591,-2.9603,-2.9503,-2.9453,-2.9151,-2.9214,-2.9478,-2.9151,-2.9264,-2.9666,-2.9716,-2.9779,-2.9767,-2.9754,-2.9754,-2.9767,-2.9779,-2.9779,-2.9779,-2.9779,-2.9779,-2.9779,-2.9779,-2.9779,-2.9541,-2.9315,-2.9063,-2.8875,-2.8561,-2.831,-2.821,-2.8072,-2.7921,-2.7645,-2.7846,-2.8072,-2.8235,-2.8373,-2.8386,-2.8335,-2.816,-2.7996,-2.7833,-2.7618,-2.7316,-2.7085,-2.7025,-2.6822,-2.6746,-2.6615,-2.6467,-2.6332,-2.6135,-2.5858,-2.5511,-2.5121,-2.4971,-2.4971,-2.5021,-2.5109,-2.5172,-2.5197,-2.4732,-2.4268,-2.3634,-2.3459,-2.3584,-2.3622,-2.3434,-3.3124,-3.3074,-3.2466,-3.1901,-3.1373,-3.1009,-3.0645,-3.0306,-2.998,-2.9779,-2.9779,-2.9779,-2.9779,-2.9663,-2.93,-2.891,-2.849,-2.8486,-2.8486,-2.8478,-2.8819,-2.9326,-2.9624,-2.9779,-2.9779,-2.9779,-2.9779,-2.9779,-2.9779,-2.9779,-2.9779,-2.9779,-2.9779,-2.9779,-2.9779,-2.9779,-2.9779,-2.9779,-2.9779,-2.9779,-2.9779,-2.9779,-2.9779,-2.9779,-2.9779,-2.9779,-2.9779,-2.9779,-2.9779,-2.9779,-2.9453,-2.9578,-2.9767,-2.9453,-2.9566,-2.9767,-2.9779,-2.9779,-2.9779,-2.9779,-2.9779,-2.9779,-2.9779,-2.9779,-2.9779,-2.9779,-2.9779,-2.9779,-2.9779,-2.9779,-2.9679,-2.9628,-2.9503,-2.9515,-2.9277,-2.9026,-2.8863,-2.8675,-2.8487,-2.8134,-2.8109,-2.8436,-2.8637,-2.885,-2.8913,-2.8963,-2.8812,-2.8436,-2.821,-2.8009,-2.7733,-2.7379,-2.7138,-2.6873,-2.6663,-2.6587,-2.6512,-2.6399,-2.6386,-2.6311,-2.5963,-2.5624,-2.5661,-2.5686,-2.5695,-2.5669,-2.5732,-2.5686,-2.5448,-2.5021,-2.4499,-2.4173,-2.4286,-2.4192,-2.3841,-3.3124,-3.3036,-3.2252,-3.1725,-3.1336,-3.0834,-3.052,-3.0306,-2.9852,-2.9611,-2.9546,-2.9468,-2.939,-2.9182,-2.8776,-2.8263,-2.7706,-2.7713,-2.7903,-2.7947,-2.8462,-2.9091,-2.9585,-2.9779,-2.9779,-2.9779,-2.9779,-2.9779,-2.9779,-2.9779,-2.9779,-2.9779,-2.9779,-2.9779,-2.9779,-2.9779,-2.9779,-2.9779,-2.9779,-2.9779,-2.9779,-2.9779,-2.9779,-2.9779,-2.9779,-2.9779,-2.9779,-2.9779,-2.9779,-2.9779,-2.9779,-2.9779,-2.9779,-2.9779,-2.9779,-2.9779,-2.9779,-2.9779,-2.9779,-2.9779,-2.9779,-2.9779,-2.9779,-2.9779,-2.9779,-2.9779,-2.9779,-2.9779,-2.9779,-2.9779,-2.9779,-2.9779,-2.9779,-2.9779,-2.9679,-2.9415,-2.9352,-2.9189,-2.9088,-2.8725,-2.8637,-2.8913,-2.9076,-2.9227,-2.9365,-2.9415,-2.9453,-2.9038,-2.8649,-2.8461,-2.826,-2.7896,-2.7431,-2.7128,-2.6851,-2.6637,-2.6562,-2.6499,-2.6487,-2.6487,-2.6411,-2.6097,-2.626,-2.6373,-2.6185,-2.6097,-2.6235,-2.6197,-2.5946,-2.5787,-2.5611,-2.5335,-2.5159,-2.4745,-2.4305,-3.3124,-3.2948,-3.1863,-3.1461,-3.1336,-3.0819,-3.0319,-2.979,-2.9521,-2.9263,-2.904,-2.8831,-2.8605,-2.8299,-2.7713,-2.7162,-2.6812,-2.6775,-2.7092,-2.7568,-2.8115,-2.8895,-2.9546,-2.9779,-2.9779,-2.9779,-2.9779,-2.9779,-2.9779,-2.9779,-2.9779,-2.9779,-2.9779,-2.9779,-2.9779,-2.9779,-2.9779,-2.9779,-2.9779,-2.9779,-2.9779,-2.9779,-2.9779,-2.9779,-2.9779,-2.9779,-2.9779,-2.9779,-2.9779,-2.9779,-2.9779,-2.9779,-2.9779,-2.9779,-2.9779,-2.9779,-2.9779,-2.9779,-2.9779,-2.9779,-2.9779,-2.9779,-2.9779,-2.9779,-2.9779,-2.9779,-2.9779,-2.9779,-2.9779,-2.9779,-2.9779,-2.9779,-2.9779,-2.9779,-2.9779,-2.9704,-2.9716,-2.9666,-2.9666,-2.9541,-2.9515,-2.9603,-2.9566,-2.9666,-2.9591,-2.9628,-2.9641,-2.9591,-2.9239,-2.9076,-2.8837,-2.8536,-2.8034,-2.7419,-2.7128,-2.6788,-2.6575,-2.6487,-2.6487,-2.6487,-2.6449,-2.6436,-2.6436,-2.6436,-2.6461,-2.6474,-2.6436,-2.6449,-2.6411,-2.6298,-2.6147,-2.6047,-2.5686,-2.5209,-2.477,-3.3124,-3.3048,-3.2277,-3.1976,-3.1797,-3.0823,-3.0175,-2.979,-2.9365,-2.891,-2.8347,-2.8039,-2.7609,-2.704,-2.6535,-2.5975,-2.5735,-2.5757,-2.6299,-2.6917,-2.7742,-2.8712,-2.9417,-2.9779,-2.9779,-2.9779,-2.9779,-2.9779,-2.9779,-2.9779,-2.9779,-2.9779,-2.9779,-2.9779,-2.9779,-2.9779,-2.9779,-2.9779,-2.9779,-2.9829,-2.9842,-2.9867,-2.9867,-2.9917,-2.988,-2.988,-2.9867,-2.9804,-2.9792,-2.9779,-2.9779,-2.9779,-2.9779,-2.9779,-2.9779,-2.9779,-2.9779,-2.9779,-2.9779,-2.9779,-2.9779,-2.9779,-2.9779,-2.9779,-2.9779,-2.9779,-2.9779,-2.9779,-2.9779,-2.9779,-2.9779,-2.9779,-2.9779,-2.9779,-2.9779,-2.9779,-2.9779,-2.9779,-2.9779,-2.9779,-2.9779,-2.9779,-2.9779,-2.9767,-2.9704,-2.9754,-2.9779,-2.9779,-2.9741,-2.9528,-2.934,-2.9038,-2.8398,-2.772,-2.7205,-2.6876,-2.665,-2.6487,-2.6487,-2.6487,-2.6474,-2.6474,-2.6487,-2.6487,-2.6487,-2.6487,-2.6487,-2.6487,-2.6487,-2.6487,-2.6361,-2.6348,-2.6223,-2.5711,-2.531,-3.288,-3.2955,-3.2215,-3.1788,-3.1446,-3.0549,-2.9794,-2.914,-2.8712,-2.8211,-2.7574,-2.7191,-2.6712,-2.6287,-2.5841,-2.5379,-2.4988,-2.5348,-2.5852,-2.6648,-2.7395,-2.8593,-2.9378,-2.9779,-2.9779,-2.9779,-2.9779,-2.9779,-2.9779,-2.9779,-2.9779,-2.9779,-2.9779,-2.9779,-2.9779,-2.9779,-2.9779,-2.9779,-2.9817,-2.993,-3.003,-3.0118,-3.0206,-3.0306,-3.0244,-3.0105,-3.0055,-2.9967,-2.9792,-2.9779,-2.9779,-2.9779,-2.9779,-2.9779,-2.9779,-2.9779,-2.9779,-2.9779,-2.9779,-2.9779,-2.9779,-2.9779,-2.9779,-2.9779,-2.9779,-2.9779,-2.9779,-2.9779,-2.9779,-2.9779,-2.9779,-2.9779,-2.9779,-2.9779,-2.9779,-2.9779,-2.9779,-2.9779,-2.9779,-2.9779,-2.9779,-2.9779,-2.9779,-2.9779,-2.9779,-2.9779,-2.9779,-2.9779,-2.9779,-2.9704,-2.9603,-2.9415,-2.8674,-2.7934,-2.7457,-2.7002,-2.6663,-2.6487,-2.6487,-2.6487,-2.6487,-2.6487,-2.6487,-2.6487,-2.6487,-2.6487,-2.6487,-2.6487,-2.6487,-2.6487,-2.6487,-2.6449,-2.6399,-2.6235,-2.5883,-3.2528,-3.2905,-3.1888,-3.122,-3.0613,-3.0146,-2.9189,-2.8011,-2.7678,-2.7221,-2.6607,-2.6257,-2.5977,-2.5673,-2.5348,-2.5147,-2.5009,-2.5189,-2.5768,-2.6554,-2.7395,-2.8514,-2.9456,-2.9779,-2.9779,-2.9779,-2.9779,-2.9779,-2.9779,-2.9779,-2.9779,-2.9779,-2.9779,-2.9779,-2.9779,-2.9779,-2.9779,-2.9779,-2.9854,-2.998,-3.0407,-3.0645,-3.0834,-3.1122,-3.0884,-3.0557,-3.0432,-3.0168,-2.9779,-2.9779,-2.9779,-2.9779,-2.9779,-2.9779,-2.9779,-2.9779,-2.9779,-2.9779,-2.9779,-2.9779,-2.9779,-2.9779,-2.9779,-2.9779,-2.9779,-2.9779,-2.9779,-2.9779,-2.9779,-2.9779,-2.9779,-2.9779,-2.9779,-2.9779,-2.9779,-2.9779,-2.9779,-2.9779,-2.9779,-2.9779,-2.9779,-2.9779,-2.9779,-2.9779,-2.9779,-2.9779,-2.9779,-2.9779,-2.9779,-2.9779,-2.9741,-2.9641,-2.8787,-2.8047,-2.7733,-2.7231,-2.6688,-2.6487,-2.6487,-2.6487,-2.6487,-2.6487,-2.6487,-2.6487,-2.6487,-2.6487,-2.6487,-2.6487,-2.6487,-2.6487,-2.6487,-2.6487,-2.6461,-2.6411,-2.6298,-3.229,-3.2348,-3.1972,-3.1381,-3.0651,-2.9911,-2.858,-2.708,-2.6163,-2.5663,-2.5305,-2.5253,-2.521,-2.5115,-2.5105,-2.4978,-2.4999,-2.539,-2.5883,-2.6607,-2.7435,-2.8554,-2.9585,-2.9779,-2.9779,-2.9779,-2.9779,-2.9779,-2.9779,-2.9779,-2.9779,-2.9779,-2.9779,-2.9779,-2.9779,-2.9779,-2.9779,-2.9779,-2.9829,-3.0118,-3.062,-3.0708,-3.0834,-3.1097,-3.0997,-3.0708,-3.0495,-3.0118,-2.988,-2.9779,-2.9779,-2.9779,-2.9779,-2.9792,-2.9792,-2.9779,-2.9779,-2.9779,-2.9779,-2.9779,-2.9779,-2.9779,-2.9779,-2.9779,-2.9779,-2.9779,-2.9779,-2.9779,-2.9779,-2.9779,-2.9779,-2.9779,-2.9779,-2.9779,-2.9779,-2.9779,-2.9779,-2.9779,-2.9779,-2.9779,-2.9779,-2.9779,-2.9779,-2.9779,-2.9779,-2.9779,-2.9779,-2.9779,-2.9779,-2.9779,-2.9779,-2.9553,-2.8712,-2.8084,-2.7846,-2.7344,-2.6713,-2.6487,-2.6487,-2.6487,-2.6487,-2.6487,-2.6487,-2.6487,-2.6487,-2.6487,-2.6487,-2.6487,-2.6487,-2.6487,-2.6487,-2.6487,-2.6487,-2.6461,-2.6424,-3.1851,-3.1809,-3.1518,-3.0864,-2.9903,-2.9009,-2.7599,-2.5979,-2.5084,-2.4488,-2.4188,-2.4423,-2.468,-2.4819,-2.4978,-2.5115,-2.521,-2.5726,-2.6246,-2.6894,-2.7689,-2.8724,-2.9378,-2.9779,-2.9779,-2.9779,-2.9779,-2.9779,-2.9779,-2.9779,-2.9779,-2.9779,-2.9779,-2.9779,-2.9779,-2.9779,-2.9779,-2.9779,-2.9779,-3.0206,-3.0809,-3.0984,-3.1424,-3.1675,-3.1486,-3.111,-3.067,-3.0319,-3.0055,-3.0181,-3.0407,-3.0331,-3.0294,-3.0206,-3.003,-2.9867,-2.9779,-2.9779,-2.9779,-2.9779,-2.9779,-2.9779,-2.9779,-2.9779,-2.9779,-2.9779,-2.9779,-2.9779,-2.9779,-2.9779,-2.9779,-2.9779,-2.9779,-2.9779,-2.9779,-2.9779,-2.9779,-2.9779,-2.9779,-2.9779,-2.9779,-2.9779,-2.9779,-2.9779,-2.9779,-2.9779,-2.9779,-2.9779,-2.9779,-2.9779,-2.9779,-2.9553,-2.8762,-2.8235,-2.7996,-2.7356,-2.6612,-2.6487,-2.6487,-2.6487,-2.6487,-2.6487,-2.6487,-2.6487,-2.6487,-2.6487,-2.6487,-2.6487,-2.6487,-2.6487,-2.6487,-2.6487,-2.6487,-2.6487,-2.6461,-3.1298,-3.1245,-3.0836,-2.9966,-2.8793,-2.7908,-2.6521,-2.4893,-2.4327,-2.3777,-2.3353,-2.3894,-2.4401,-2.4818,-2.5158,-2.5411,-2.5737,-2.6268,-2.6794,-2.7354,-2.8115,-2.8934,-2.9468,-2.9779,-2.9779,-2.9779,-2.9779,-2.9779,-2.9779,-2.9779,-2.9779,-2.9779,-2.9779,-2.9779,-2.9792,-2.9779,-2.9779,-2.9779,-2.993,-3.0419,-3.0922,-3.1424,-3.2014,-3.2227,-3.2139,-3.1562,-3.1173,-3.0783,-3.0419,-3.0595,-3.0997,-3.0922,-3.0746,-3.057,-3.0294,-3.0093,-2.9842,-2.9817,-2.9779,-2.9779,-2.9779,-2.9779,-2.9779,-2.9779,-2.9779,-2.9779,-2.9779,-2.9779,-2.9779,-2.9779,-2.9779,-2.9779,-2.9779,-2.9779,-2.9779,-2.9779,-2.9779,-2.9779,-2.9779,-2.9779,-2.9779,-2.9779,-2.9779,-2.9779,-2.9779,-2.9779,-2.9779,-2.9779,-2.9779,-2.9779,-2.9779,-2.9528,-2.8976,-2.8536,-2.816,-2.7482,-2.6713,-2.6487,-2.6487,-2.6487,-2.6487,-2.6487,-2.6487,-2.6487,-2.6487,-2.6487,-2.6487,-2.6487,-2.6487,-2.6487,-2.6487,-2.6487,-2.6487,-2.6487,-2.6487,-3.0758,-3.0718,-3.0089,-2.9246,-2.8302,-2.7254,-2.584,-2.4401,-2.3831,-2.3406,-2.3319,-2.3667,-2.4209,-2.4851,-2.5263,-2.5695,-2.6351,-2.6887,-2.7395,-2.7988,-2.8502,-2.9131,-2.9585,-2.9779,-2.9779,-2.9779,-2.9779,-2.9779,-2.9779,-2.9779,-2.9779,-2.9779,-2.9779,-2.9792,-2.9829,-2.9842,-2.9905,-2.9955,-3.0105,-3.0482,-3.1135,-3.1625,-3.2089,-3.2315,-3.2428,-3.2164,-3.1863,-3.1424,-3.1235,-3.1248,-3.1373,-3.1386,-3.1223,-3.0959,-3.067,-3.0344,-3.008,-2.988,-2.9842,-2.9792,-2.9779,-2.9779,-2.9779,-2.9779,-2.9779,-2.9779,-2.9779,-2.9779,-2.9779,-2.9779,-2.9779,-2.9779,-2.9779,-2.9779,-2.9779,-2.9779,-2.9779,-2.9779,-2.9779,-2.9779,-2.9779,-2.9779,-2.9779,-2.9779,-2.9779,-2.9779,-2.9779,-2.9779,-2.9779,-2.9779,-2.9779,-2.949,-2.9139,-2.8649,-2.8185,-2.7645,-2.7014,-2.6725,-2.6487,-2.6487,-2.6487,-2.6487,-2.6487,-2.6487,-2.6487,-2.6487,-2.6487,-2.6487,-2.6487,-2.6487,-2.6487,-2.6487,-2.6487,-2.6487,-2.6487]},{"header":{"parameterUnit":"m.s-1","parameterCategory":1,"la1":31.0,"la2":29.5877,"lo1":-88.7671,"lo2":-86.6584,"dy":0.0162,"dx":0.0185,"nx":115,"ny":88,"refTime":"2026-05-12T12:00:00:Z","depth":0,"parameterNumber":3,"parameterNumberName":"V-component_of_WINDS"},"data":[0.0,0.0,0.0,0.0,0.0,0.0,0.0,0.0,0.0,0.0,0.0,0.0,0.0,0.0,0.0,0.0,0.0,0.0,0.0,0.0,0.0,0.0,0.0,0.0,0.0,0.0,0.0,0.0,0.0,0.0,0.0,0.0,0.0,0.0,0.0,0.0,0.0,0.0,0.0,0.0,0.0,0.0,0.0,0.0,0.0,0.0,0.0,0.0,0.0,0.0,0.0,0.0,0.0,0.0,0.0,0.0,0.0,0.0,0.0,0.0,0.0,0.0,0.0,0.0,0.0,0.0,0.0,0.0,0.0,0.0,0.0,0.0,0.0,0.0,0.0,0.0,0.0,0.0,0.0,0.0,0.0,0.0,0.0,0.0,0.0,0.0,0.0,0.0,0.0,0.0,0.0,0.0,0.0,0.0,0.0,0.0,0.0,0.0,0.0,0.0,0.0,0.0,0.0,0.0,0.0,0.0,0.0,0.0,0.0,0.0,0.0,0.0,0.0,0.0,0.0,0.0,0.0,0.0,0.0,0.0,0.0,0.0,0.0,0.0,0.0,0.0,0.0,0.0,0.0,0.0,0.0,0.0,0.0,0.0,0.0,0.0,0.0,0.0,0.0,0.0,0.0,0.0,0.0,0.0,0.0,0.0,0.0,0.0,0.0,0.0,0.0,0.0,0.0,0.0,0.0,0.0,0.0,0.0,0.0,0.0,0.0,0.0,0.0,0.0,0.0,0.0,0.0,0.0,0.0,0.0,0.0,0.0,0.0,0.0,0.0,0.0,0.0,0.0,0.0,0.0,0.0,0.0,0.0,0.0,0.0,0.0,0.0,0.0,0.0,0.0,0.0,0.0,0.0,0.0,0.0,0.0,0.0,0.0,0.0,0.0,0.0,0.0,0.0,0.0,0.0,0.0,0.0,0.0,0.0,0.0,0.0,0.0,0.0,0.0,0.0,0.0,0.0,0.0,0.0,0.0,0.0,0.0,0.0,0.0,0.0,0.0,0.0,0.0,0.0,0.0,0.0,0.0,0.0,0.0,0.0,0.0,0.0,0.0,0.0,0.0,0.0,0.0,0.0,0.0,0.0,0.0,0.0,0.0,0.0,0.0,0.0,0.0,0.0,0.0,0.0,0.0,0.0,0.0,0.0,0.0,0.0,0.0,0.0,0.0,0.0,0.0,0.0,0.0,0.0,0.0,0.0,0.0,0.0,0.0,0.0,0.0,0.0,0.0,0.0,0.0,0.0,0.0,0.0,0.0,0.0,0.0,0.0,0.0,0.0,0.0,0.0,0.0,0.0,0.0,0.0,0.0,0.0,0.0,0.0,0.0,0.0,0.0,0.0,0.0,0.0,0.0,0.0,0.0,0.0,0.0,0.0,0.0,0.0,0.0,0.0,0.0,0.0,0.0,0.0,0.0,0.0,0.0,0.0,0.0,0.0,0.0,0.0,0.0,0.0,0.0,0.0,0.0,0.0,0.0,0.0,0.0,0.0,0.0,0.0,0.0,0.0,0.0,0.0,0.0,0.0,0.0,0.0,0.0,0.0,0.0,0.0,0.0,0.0,0.0,0.0,0.0,0.0,0.0,0.0,0.0,0.0,0.0,0.0,0.0,0.0,0.0,0.0,0.0,0.0,0.0,0.0,0.0,0.0,0.0,0.0,0.0,0.0,0.0,0.0,0.0,0.0,0.0,0.0,0.0,0.0,0.0,0.0,0.0,0.0,0.0,0.0,0.0,0.0,0.0,0.0,0.0,0.0,0.0,0.0,0.0,0.0,0.0,0.0,0.0,0.0,0.0,0.0,0.0,0.0,0.0,0.0,0.0,0.0,0.0,0.0,0.0,0.0,0.0,0.0,0.0,0.0,0.0,0.0,0.0,0.0,0.0,0.0,0.0,0.0,0.0,0.0,0.0,0.0,0.0,0.0,0.0,0.0,0.0,0.0,0.0,0.0,0.0,0.0,0.0,0.0,0.0,0.0,0.0,0.0,0.0,0.0,0.0,0.0,0.0,0.0,0.0,0.0,0.0,0.0,0.0,0.0,0.0,0.0,0.0,0.0,0.0,0.0,0.0,0.0,0.0,0.0,0.0,0.0,0.0,0.0,0.0,0.0,0.0,0.0,0.0,0.0,0.0,0.0,0.0,0.0,0.0,0.0,0.0,0.0,0.0,0.0,0.0,0.0,0.0,0.0,0.0,0.0,0.0,0.0,0.0,0.0,0.0,0.0,0.0,0.0,0.0,0.0,0.0,0.0,0.0,0.0,0.0,0.0,0.0,0.0,0.0,0.0,0.0,0.0,0.0,0.0,0.0,0.0,0.0,0.0,0.0,0.0,0.0,0.0,0.0,0.0,0.0,0.0,0.0,0.0,0.0,0.0,0.0,0.0,0.0,0.0,0.0,0.0,0.0,0.0,0.0,0.0,0.0,0.0,0.0,0.0,0.0,0.0,0.0,0.0,0.0,0.0,0.0,0.0,0.0,0.0,0.0,0.0,0.0,0.0,0.0,0.0,0.0,0.0,0.0,0.0,0.0,0.0,0.0,0.0,0.0,0.0,0.0,0.0,0.0,0.0,0.0,0.0,0.0,0.0,0.0,0.0,0.0,0.0,0.0,0.0,0.0,0.0,0.0,0.0,0.0,0.0,0.0,0.0,0.0,0.0,0.0,0.0,0.0,0.0,0.0,0.0,0.0,0.0,0.0,0.0,0.0,0.0,0.0,0.0,0.0,0.0,0.0,0.0,0.0,0.0,0.0,0.0,0.0,0.0,0.0,0.0,0.0,0.0,0.0,0.0,0.0,0.0,0.0,0.0,0.0,0.0,0.0,0.0,0.0,0.0,0.0,0.0,0.0,0.0,0.0,0.0,0.0,0.0,0.0,0.0,0.0,0.0,0.0,0.0,0.0,0.0,0.0,0.0,0.0,0.0,0.0,0.0,0.0,0.0,0.0,0.0,0.0,0.0,0.0,0.0,0.0,0.0,0.0,0.0,0.0,0.0,0.0,0.0,0.0,0.0,0.0,0.0,0.0,0.0,0.0,0.0,0.0,0.0,0.0,0.0,0.0,0.0,0.0,0.0,0.0,0.0,0.0,0.0,0.0,0.0,0.0,0.0,0.0,0.0,0.0,0.0,0.0,0.0,0.0,0.0,0.0,0.0,0.0,0.0,0.0,0.0,0.0,0.0,0.0,0.0,0.0,0.0,0.0,0.0,0.0,0.0,0.0,0.0,0.0,0.0,0.0,0.0,0.0,0.0,0.0,0.0,0.0,0.0,0.0,0.0,0.0,0.0,0.0,0.0,0.0,0.0,0.0,0.0,0.0,0.0,0.0,0.0,0.0,0.0,0.0,0.0,0.0,0.0,0.0,0.0,0.0,0.0,0.0,0.0,0.0,0.0,0.0,0.0,0.0,0.0,0.0,0.0,0.0,0.0,0.0,0.0,0.0,0.0,0.0,0.0,0.0,0.0,0.0,0.0,0.0,0.0,0.0,0.0,0.0,0.0,0.0,0.0,0.0,0.0,0.0,0.0,0.0,0.0,0.0,0.0,0.0,0.0,0.0,0.0,0.0,0.0,0.0,0.0,0.0,0.0,0.0,0.0,0.0,0.0,0.0,0.0,0.0,0.0,0.0,0.0,0.0,0.0,0.0,0.0,0.0,0.0,0.0,0.0,0.0,0.0,0.0,0.0,0.0,0.0,0.0,0.0,0.0,0.0,0.0,0.0,0.0,0.0,0.0,0.0,0.0,0.0,0.0,0.0,0.0,0.0,0.0,0.0,0.0,0.0,0.0,0.0,0.0,0.0,0.0,0.0,0.0,0.0,0.0,0.0,0.0,0.0,0.0,0.0,0.0,0.0,0.0,0.0,0.0,0.0,0.0,0.0,0.0,0.0,0.0,0.0,0.0,0.0,0.0,0.0,0.0,0.0,0.0,0.0,0.0,0.0,0.0,0.0,0.0,0.0,0.0,0.0,0.0,0.0,0.0,0.0,0.0,0.0,0.0,0.0,0.0,0.0,0.0,0.0,0.0,0.0,0.0,0.0,0.0,0.0,0.0,0.0,0.0,0.0,0.0,0.0,0.0,0.0,0.0,0.0,0.0,0.0,0.0,0.0,0.0,0.0,0.0,0.0,0.0,0.0,0.0,0.0,0.0,0.0,0.0,0.0,0.0,0.0,0.0,0.0,0.0,0.0,0.0,0.0,0.0,0.0,0.0,0.0,0.0,0.0,0.0,0.0,0.0,0.0,0.0,0.0,0.0,0.0,0.0,0.0,0.0,0.696,0.0,0.0,0.0,0.0,0.0,0.0,0.0,0.0,0.0,0.0,0.0,0.0,0.0,0.0,0.0,0.0,0.0,0.0,0.0,0.0,0.0,0.0,0.0,0.0,0.0,0.0,0.0,0.0,0.0,0.0,0.0,0.0,0.0,0.0,0.0,0.0,0.0,0.0,0.0,0.0,0.0,0.0,0.0,0.0,0.0,0.0,0.0,0.0,0.0,0.0,0.0,0.0,0.0,0.0,0.0,0.0,0.0,0.0,0.0,0.0,0.0,0.0,0.0,0.0,0.0,0.0,0.0,0.0,0.0,0.0,0.0,0.0,0.0,0.0,0.0,0.0,0.0,0.0,0.0,0.0,0.0,0.0,0.0,0.0,0.0,0.0,0.0,0.0,0.0,0.0,0.0,0.0,0.0,0.0,0.0,0.0,0.0,0.0,0.0,0.0,0.0,0.0,0.0,0.0,0.0,0.0,0.0,0.0,0.0,0.0,0.7988,0.7988,0.7526,0.7,0.6319,0.0,0.0,0.0,0.0,0.0,0.0,0.0,0.0,0.0,0.0,0.0,0.0,0.0,0.0,0.0,0.0,0.0,0.0,0.0,0.0,0.0,0.0,0.0,0.0,0.0,0.0,0.0,0.0,0.0,0.0,0.0,0.0,0.0,0.0,0.0,0.0,0.0,0.0,0.0,0.0,0.0,0.0,0.0,0.0,0.0,0.0,0.0,0.0,0.0,0.0,0.0,0.0,0.0,0.0,0.0,0.0,0.0,0.0,0.0,0.0,0.0,0.0,0.0,0.0,0.0,0.0,0.0,0.0,0.0,0.0,0.0,0.0,0.0,0.0,0.0,0.0,0.0,0.0,0.0,0.0,0.0,0.0,0.0,0.0,0.0,0.0,0.0,0.0,0.0,0.0,0.0,0.0,0.0,0.0,0.0,0.0,0.0,0.0,0.0,0.0,0.0,0.0,0.0,0.0,0.0,0.0,0.0,0.0,0.0,0.0,0.0,0.0,0.75,0.6642,0.5559,0.0,0.0,0.0,0.0,0.0,0.0,0.0,0.0,0.0,0.0,0.0,0.0,0.0,0.0,0.0,0.0,0.0,0.0,0.0,0.0,0.0,0.0,0.0,0.0,0.0,0.0,0.0,0.0,0.0,0.0,0.0,0.0,0.0,0.0,0.0,0.0,0.0,0.0,0.0,0.0,0.0,0.0,0.0,0.0,0.0,0.0,0.0,0.0,0.0,0.0,0.0,0.0,0.0,0.0,0.0,0.0,0.0,0.0,0.0,0.0,0.0,0.0,0.0,0.0,0.0,0.0,0.0,0.0,0.0,0.0,0.0,0.0,0.0,0.0,0.0,0.0,0.0,0.0,0.0,0.0,0.0,0.0,0.0,0.0,0.0,0.0,0.0,0.0,0.0,0.0,0.0,0.0,0.0,0.0,0.0,0.0,0.0,0.0,0.0,0.0,0.0,0.0,0.0,0.0,0.0,0.0,0.0,0.0,0.0,0.0,0.8442,0.8438,0.7583,0.0,0.481,0.0,0.0,0.0,0.0,0.0,0.0,0.0,0.0,0.0,0.0,0.0,0.0,0.0,0.0,0.0,0.0,0.0,0.0,0.0,0.0,0.0,0.0,0.0,0.0,0.0,0.0,0.0,0.0,0.0,0.0,0.0,0.0,0.0,0.0,0.0,0.0,0.0,0.0,0.0,0.0,0.0,0.0,0.0,0.0,0.0,0.0,0.0,0.0,0.0,0.0,0.0,0.0,0.0,0.0,0.0,0.0,0.0,0.0,0.0,0.0,0.0,0.0,0.0,0.0,0.0,0.0,0.0,0.0,0.0,0.0,0.0,0.0,0.0,0.0,0.0,0.0,0.0,0.0,0.0,0.0,0.0,0.0,0.0,0.0,0.0,0.0,0.0,0.0,0.0,0.0,0.0,0.0,0.0,0.0,0.0,0.0,0.0,0.0,0.0,0.0,0.0,0.0,0.0,0.0,0.0,0.0,0.0,0.0,0.0,0.0,0.8535,0.8535,0.6478,0.4871,0.0,0.0,0.0,0.0,0.0,0.0,0.0,0.0,0.0,0.0,0.0,0.0,0.0,0.0,0.0,0.0,0.0,0.0,0.0,0.0,0.0,0.0,0.0,0.0,0.0,0.0,0.0,0.0,0.0,0.0,0.0,0.0,0.0,0.0,0.0,0.0,0.0,0.0,0.0,0.0,0.0,0.0,0.0,0.0,0.0,0.0,0.0,0.0,0.0,0.0,0.0,0.0,0.0,0.0,0.0,0.0,0.0,0.0,0.0,0.0,0.0,0.0,0.0,0.0,0.0,0.0,0.0,0.0,0.0,0.0,0.0,0.0,0.0,0.0,0.0,0.0,0.0,0.0,0.0,0.0,0.0,0.0,0.0,0.0,0.0,0.0,0.0,0.0,0.0,0.0,0.0,0.0,0.0,0.0,0.0,0.0,0.0,0.0,0.0,0.0,0.0,0.0,0.0,0.0,0.0,0.0,0.0,0.0,0.0,0.0,0.8547,0.8397,0.8043,0.5715,0.4068,0.3334,0.0,0.0,0.0,0.0,0.0,0.0,0.0,0.0,0.0,0.0,0.0,0.0,0.0,0.0,0.0,0.0,0.0,0.0,0.0,0.0,0.0,0.0,0.0,0.0,0.0,0.0,0.0,0.0,0.0,0.0,0.0,0.0,0.0,0.0,0.0,0.0,0.0,0.0,0.0,0.0,0.0,0.0,0.0,0.0,0.0,0.0,0.0,0.0,0.0,0.0,0.0,0.0,0.0,0.0,0.0,0.0,0.0,0.0,0.0,0.0,0.0,0.0,0.0,0.0,0.0,0.0,0.0,0.0,0.0,0.0,0.0,0.0,0.0,0.0,0.0,0.0,0.0,0.0,0.0,0.0,0.0,0.0,0.0,0.0,0.0,0.0,0.0,0.0,0.0,0.0,0.0,0.0,0.0,0.0,0.0,0.0,0.0,0.0,0.0,0.0,0.0,0.0,0.0,0.0,0.0,0.0,0.0,0.0,0.875,0.8696,0.8186,0.7198,0.5733,0.4602,0.0,0.0,0.0,0.0,0.0,0.0,0.0,0.0,0.0,0.0,0.0,0.0,0.0,0.0,0.0,0.0,0.0,0.0,0.0,0.0,0.0,0.0,0.0,0.0,0.0,0.0,0.0,0.0,0.0,0.0,0.0,0.0,0.0,0.0,0.0,0.0,0.0,0.0,0.0,0.0,0.0,0.0,0.0,0.0,0.0,0.0,0.0,0.0,0.0,0.0,0.0,0.0,0.0,0.0,0.0,0.0,0.0,0.0,0.0,0.0,0.0,0.0,0.0,0.0,0.0,0.0,0.0,0.0,0.0,0.0,0.0,0.0,0.0,0.0,0.0,0.0,0.0,0.0,0.0,0.0,0.0,0.0,0.0,0.0,0.0,0.0,0.0,0.0,0.0,0.0,0.0,0.0,0.0,0.0,0.0,0.0,0.0,0.0,0.0,0.0,0.0,0.0,0.0,0.0,0.0,0.0,0.0,0.0,0.0,0.8676,0.856,0.8151,0.734,0.6228,0.5324,0.0,0.0,0.0,0.0,0.0,0.0,0.0,0.0,0.0,0.0,0.0,0.0,0.0,0.0,0.0,0.0,0.0,0.0,0.0,0.0,0.0,0.0,0.0,0.0,0.0,0.0,0.0,0.0,0.0,0.0,0.0,0.0,0.0,0.0,0.0,0.0,0.0,0.0,0.0,0.0,0.0,0.0,0.0,0.0,0.0,0.0,0.0,0.0,0.0,0.0,0.0,0.0,0.0,0.0,0.0,0.0,0.0,0.0,0.0,0.0,0.0,0.0,0.0,0.0,0.0,0.0,0.0,0.0,0.0,0.0,0.0,0.0,0.0,0.0,0.0,0.0,0.0,0.0,0.0,0.0,0.0,0.0,0.0,0.0,0.0,0.0,0.0,0.0,0.0,0.0,0.0,0.0,0.0,0.0,0.0,0.0,0.0,0.0,0.0,0.0,0.0,0.0,0.0,0.0,0.0,0.0,0.0,0.0,0.0,0.8522,0.0,0.8087,0.7531,0.6669,0.5918,0.0,0.0,0.0,0.0,0.0,0.0,0.0,0.0,0.0,0.0,0.0,0.0,0.0,0.0,0.0,0.0,0.0,0.0,0.0,0.0,0.0,0.0,0.0,0.0,0.0,0.0,0.0,0.0,0.0,0.0,0.0,0.0,0.0,0.0,0.0,0.0,0.0,0.0,0.0,0.0,0.0,0.0,0.0,0.0,0.0,0.0,0.0,0.0,0.0,0.0,0.0,0.0,0.0,0.0,0.0,0.0,0.0,0.0,0.0,0.0,0.0,0.0,0.0,0.0,0.0,0.0,0.0,0.0,0.0,0.0,0.0,0.0,0.0,0.0,0.0,0.0,0.0,0.0,0.0,0.0,0.0,0.0,0.0,0.0,0.0,0.0,0.0,0.0,0.0,0.0,0.0,0.0,0.0,0.0,0.0,0.0,0.0,0.0,0.0,0.0,0.0,0.0,0.0,0.0,0.0,0.0,0.0,0.0,1.0071,0.8378,0.8136,0.7925,0.7593,0.6897,0.6419,0.0,0.0,0.0,0.0,0.0,0.0,0.0,0.0,0.0,0.0,0.0,0.0,0.0,0.0,0.0,0.0,0.0,0.0,0.0,0.0,0.0,0.0,0.0,0.0,0.0,0.0,0.0,0.0,0.0,0.0,0.0,0.0,0.0,0.0,0.0,0.0,0.0,0.0,0.0,0.0,0.0,0.0,0.0,0.0,0.0,0.0,0.0,0.0,0.0,0.0,0.0,0.0,0.0,0.0,0.0,0.0,0.0,0.0,0.0,0.0,0.0,0.0,0.0,0.0,0.0,0.0,0.0,0.0,0.0,0.0,0.0,0.0,0.0,0.0,0.0,0.0,0.0,0.0,0.0,0.0,0.0,0.0,0.0,0.0,0.0,0.0,0.0,0.0,0.0,0.0,0.0,0.0,0.0,0.0,0.0,0.0,0.0,0.0,0.0,0.0,0.0,0.0,0.0,0.0,0.0,0.0,0.0,0.0,0.0,0.8327,0.8319,0.8244,0.8096,0.7654,0.7314,0.0,0.0,0.0,0.0,0.0,0.0,0.0,0.0,0.0,0.0,0.0,0.0,0.0,0.0,0.0,0.0,0.0,0.0,0.0,0.0,0.0,0.0,0.0,0.0,0.0,0.0,0.0,0.0,0.0,0.0,0.0,0.0,0.0,0.0,0.0,0.0,0.0,0.0,0.0,0.0,0.0,0.0,0.0,0.0,0.0,0.0,0.0,0.0,0.0,0.0,0.0,0.0,0.0,0.0,0.0,0.0,0.0,0.0,0.0,0.0,0.0,0.0,0.0,0.0,0.0,0.0,0.0,0.0,0.0,0.0,0.0,0.0,0.0,0.0,0.0,0.0,0.0,0.0,0.0,0.0,0.0,0.0,0.0,0.0,0.0,0.0,0.0,0.0,0.0,0.0,0.0,0.0,0.0,0.0,0.0,0.0,0.0,0.0,0.0,0.0,0.0,0.0,0.0,0.0,0.0,0.0,0.0,0.0,0.0,0.8353,0.8438,0.8467,0.8327,0.8028,0.7801,0.76,0.0,0.0,0.0,0.0,0.0,0.0,0.0,0.0,0.0,0.0,0.0,0.0,0.0,0.0,0.0,0.0,0.0,0.0,0.0,0.0,0.0,0.0,0.0,0.0,0.0,0.0,0.0,0.0,0.0,0.0,0.0,0.0,0.0,0.0,0.0,0.0,0.0,0.0,0.0,0.0,0.0,0.0,0.0,0.0,0.0,0.0,0.0,0.0,0.0,0.0,0.0,0.0,0.0,0.0,0.0,0.0,0.0,0.0,0.0,0.0,0.0,0.0,0.0,0.0,0.0,0.0,0.0,0.0,0.0,0.0,0.0,0.0,0.0,0.0,0.0,0.0,0.0,0.0,0.0,0.0,0.0,0.0,0.0,0.0,0.0,0.0,0.0,0.0,0.0,0.0,0.0,0.0,0.0,0.0,0.0,0.0,0.0,0.0,0.0,0.0,0.0,0.0,0.0,0.0,0.0,0.0,0.0,0.0,0.8535,0.8552,0.8438,0.8289,0.8133,0.7867,0.0,0.0,0.0,0.0,0.0,0.0,0.0,0.0,0.0,0.0,0.0,0.0,0.0,0.0,0.0,0.0,0.0,0.0,0.0,0.0,0.0,0.0,0.0,0.0,0.0,0.0,0.0,0.0,0.0,0.0,0.0,0.0,0.0,0.0,0.0,0.0,0.0,0.0,0.0,0.0,0.0,0.0,0.0,0.0,0.0,0.0,0.0,0.0,0.0,0.0,0.0,0.0,0.0,0.0,0.0,0.0,0.0,0.0,0.0,0.0,0.0,0.0,0.0,0.0,0.0,0.0,0.0,0.0,0.0,0.0,0.0,0.0,0.0,0.0,0.0,0.0,0.0,0.0,0.0,0.0,0.0,0.0,0.0,0.0,0.0,0.0,0.0,0.0,0.0,0.0,0.0,0.0,0.0,0.0,0.0,0.0,0.0,0.0,0.0,0.0,0.0,0.0,0.0,0.0,0.0,0.0,0.0,0.0,0.0,0.8815,0.8814,0.8693,0.8435,0.8286,0.8065,0.0,0.0,0.0,0.0,0.0,0.0,0.0,0.0,0.0,0.0,0.0,0.0,0.0,0.0,0.0,0.0,0.0,0.0,0.0,0.0,0.0,0.0,0.0,0.0,0.0,0.0,0.0,0.0,0.0,0.0,0.0,0.0,0.0,0.0,0.0,0.0,0.0,0.0,0.0,0.0,0.0,0.0,0.0,0.0,0.0,0.0,0.0,0.0,0.0,0.0,0.0,0.0,0.0,0.0,0.0,0.0,0.0,0.0,0.0,0.0,0.0,0.0,0.0,0.0,0.0,0.0,0.0,0.0,0.0,0.0,0.0,0.0,0.0,0.0,0.0,0.0,0.0,0.0,0.0,0.0,0.0,0.0,0.0,0.0,0.0,0.0,0.0,0.0,0.0,0.0,0.0,0.0,0.0,0.0,0.0,0.0,0.0,0.0,0.0,0.0,0.0,0.0,0.0,0.0,0.0,0.0,0.0,0.0,0.9578,0.9231,0.9005,0.8825,0.8581,0.8435,0.8187,0.0,0.0,0.0,0.0,0.0,0.0,0.0,0.0,0.0,0.0,0.0,0.0,0.0,0.0,0.0,0.0,0.0,0.0,0.0,0.0,0.0,0.0,0.0,0.0,0.0,0.0,0.0,0.0,0.0,0.0,0.0,0.0,0.0,0.0,0.0,0.0,0.0,0.0,0.0,0.0,0.0,0.0,0.0,0.0,0.0,0.0,0.0,0.0,0.0,0.0,0.0,0.0,0.0,0.0,0.0,0.0,0.0,0.0,0.0,0.0,0.0,0.0,0.0,0.0,0.0,0.0,0.0,0.0,0.0,0.0,0.0,0.0,0.0,0.0,0.0,0.0,0.0,0.0,0.0,0.0,0.0,0.0,0.0,0.0,0.0,0.0,0.0,0.0,0.0,0.0,0.0,0.0,0.0,0.0,0.0,0.0,0.0,0.0,0.0,0.0,0.0,0.0,0.0,0.0,0.0,0.0,0.0,0.0,1.0356,0.9875,0.9276,0.8917,0.8767,0.8613,0.8286,0.0,0.0,0.0,0.0,0.0,0.0,0.0,0.0,0.0,0.0,0.0,0.0,0.0,0.0,0.0,0.0,0.0,0.0,0.0,0.0,0.0,0.0,0.0,0.0,0.0,0.0,0.0,0.0,0.0,0.0,0.0,0.0,0.0,0.0,0.0,0.0,0.0,0.0,0.0,0.0,0.0,0.0,0.0,0.0,0.0,0.0,0.0,0.0,0.0,0.0,0.0,0.0,0.0,0.0,0.0,0.0,0.0,0.0,0.0,0.0,0.0,0.0,0.0,0.0,0.0,0.0,0.0,0.0,0.0,0.0,0.0,0.0,0.0,0.0,0.0,0.0,0.0,0.0,0.0,0.0,0.0,0.0,0.0,0.0,0.0,0.0,0.0,0.0,0.0,0.0,0.0,0.0,0.0,0.0,0.0,0.0,0.0,0.0,0.0,0.0,0.0,0.0,0.0,0.0,0.0,0.0,0.0,0.0,1.1467,1.0943,1.0089,0.9465,0.909,0.8719,0.8387,0.0,0.0,0.0,0.0,0.0,0.0,0.0,0.0,0.0,0.0,0.0,0.0,0.0,0.0,0.0,0.0,0.0,0.0,0.0,0.0,0.0,0.0,0.0,0.0,0.0,0.0,0.0,0.0,0.0,0.0,0.0,0.0,0.0,0.0,0.0,0.0,0.0,0.0,0.0,0.0,0.0,0.0,0.0,0.0,0.0,0.0,0.0,0.0,0.834,0.0,0.0,0.0,0.0,0.0,0.0,0.0,0.0,0.0,0.0,0.0,0.0,0.0,0.0,0.0,0.0,0.0,0.0,0.0,0.0,0.0,0.0,0.0,0.0,0.0,0.0,0.0,0.0,0.0,0.0,0.0,0.0,0.0,0.0,0.0,0.0,0.0,0.0,0.0,0.0,0.0,0.0,0.0,0.0,0.0,0.0,0.0,0.0,0.0,0.0,0.0,0.0,0.0,0.0,0.0,0.0,0.0,0.0,0.0,1.2936,1.226,1.0936,1.0031,0.9563,0.8878,0.8414,0.0,0.0,0.0,0.0,0.0,0.0,0.0,0.0,0.0,0.0,0.0,0.0,0.0,0.0,0.0,0.0,0.0,0.0,0.0,0.0,0.0,0.0,0.0,0.0,0.0,0.0,0.0,0.0,0.0,0.0,0.0,0.0,0.0,0.0,0.0,0.0,0.0,0.0,0.0,0.0,0.0,0.0,0.0,0.0,0.0,0.0,0.0,0.0,0.0,0.0,0.0,0.0,0.0,0.0,0.0,0.0,0.0,0.0,0.0,0.0,0.0,0.0,0.0,0.0,0.0,0.0,0.0,0.0,0.0,0.0,0.0,0.0,0.0,0.0,0.0,0.0,0.0,0.0,0.0,0.0,0.0,0.0,0.0,0.0,0.0,0.0,0.0,0.0,0.0,0.0,0.0,0.0,0.0,0.0,0.0,0.0,0.0,0.0,0.0,0.0,0.0,0.0,0.0,0.0,0.0,0.0,0.0,1.4956,1.4333,1.362,1.1907,1.0732,1.0251,0.9297,0.8675,0.848,0.0,0.0,0.0,0.0,0.0,0.0,0.0,0.0,0.0,0.0,0.0,0.0,0.0,0.0,0.0,0.0,0.0,0.0,0.0,0.0,0.0,0.0,0.0,0.0,0.0,0.0,0.0,0.0,0.0,0.0,0.0,0.0,0.0,0.0,0.0,0.0,0.0,0.0,1.5825,1.6333,0.0,0.0,0.0,0.0,0.0,0.0,0.0,0.0,0.8757,0.0,0.0,0.0,0.0,0.0,0.0,0.0,0.0,0.0,0.0,0.0,0.0,0.0,0.0,0.0,0.0,0.0,0.0,0.0,0.0,0.0,0.0,0.0,0.0,0.0,0.0,0.0,0.0,0.0,0.0,0.0,0.0,0.0,0.0,0.0,0.0,0.0,0.0,0.0,0.0,0.0,0.0,0.0,0.0,0.0,0.0,0.0,0.0,0.0,0.0,0.0,0.0,0.0,0.0,0.0,0.0,1.6147,1.5569,1.51,1.4719,1.3047,1.1898,1.1425,1.0456,0.9713,0.9278,0.0,0.0,0.0,0.0,0.0,0.0,0.0,0.0,0.0,0.0,0.0,0.0,0.0,0.0,0.0,0.0,0.0,0.0,0.0,0.0,0.0,0.0,0.0,0.0,0.0,0.0,0.0,0.0,0.0,0.0,0.0,0.0,0.0,0.0,0.0,0.0,0.0,0.0,0.0,1.6339,1.6394,0.0,0.0,0.0,0.0,0.0,0.0,0.0,0.0,0.9397,0.0,0.0,0.0,0.0,0.0,0.0,0.0,0.0,0.0,0.0,0.0,0.0,0.0,0.0,0.0,0.0,0.0,0.0,0.0,0.0,0.0,0.0,0.0,0.0,0.0,0.0,0.0,0.0,0.0,0.0,0.0,0.0,0.0,0.0,0.0,0.0,0.0,0.0,0.0,0.0,0.0,0.0,0.0,0.0,0.0,0.0,0.0,0.0,0.0,0.0,0.0,0.0,0.0,0.0,0.0,1.6506,1.6249,1.5941,1.5638,1.4075,1.3063,1.2659,1.1736,1.0932,0.0,0.0,0.0,0.0,0.0,0.0,0.0,0.0,0.0,0.0,0.0,0.0,0.0,0.0,0.0,0.0,0.0,0.0,0.0,0.0,0.0,0.0,0.0,0.0,0.0,0.0,0.0,0.0,0.0,0.0,0.0,0.0,0.0,0.0,0.0,0.0,0.0,0.0,0.0,0.0,1.6333,1.6444,1.5769,0.0,0.0,0.0,0.0,0.0,0.0,1.1053,1.0669,0.0,0.0,0.0,0.0,0.0,0.0,0.0,0.0,0.0,0.0,0.0,0.0,0.0,0.0,0.0,0.0,0.0,0.0,0.0,0.0,0.0,0.0,0.0,0.0,0.0,0.0,0.0,0.0,0.0,0.0,0.0,0.0,0.0,0.0,0.0,0.0,0.0,0.0,0.0,0.0,0.0,0.0,0.0,0.0,0.0,0.0,0.0,0.0,0.0,0.0,0.0,0.0,0.0,0.0,0.0,1.667,1.662,1.6509,1.6253,1.497,1.4124,1.3728,1.2927,1.2202,0.0,0.0,0.0,0.0,0.0,0.0,0.0,0.0,0.0,0.0,0.0,0.0,0.0,0.0,0.0,0.0,0.0,0.0,0.0,0.0,0.0,0.0,0.0,0.0,0.0,0.0,0.0,0.0,0.0,0.0,0.0,0.0,0.0,0.0,0.0,0.0,0.0,0.0,0.0,0.0,0.0,1.6789,1.6109,1.6326,0.0,0.0,0.0,0.0,1.3386,1.2418,0.0,0.0,0.0,0.0,0.0,0.0,0.0,0.0,0.0,0.0,0.0,0.0,0.0,0.0,0.0,0.0,0.0,0.0,0.0,0.0,0.0,0.0,0.0,0.0,0.0,0.0,0.0,0.0,0.0,0.0,0.0,0.0,0.0,0.0,0.0,0.0,0.0,0.0,0.0,0.0,0.0,0.0,0.0,0.0,0.0,0.0,0.0,0.0,0.0,0.0,0.0,0.0,0.0,0.0,0.0,0.0,1.6717,1.648,1.6318,1.6281,1.5394,1.4783,1.4536,1.3943,1.3177,0.0,0.0,0.0,0.0,0.0,0.0,0.0,0.0,0.0,0.0,0.0,0.0,0.0,0.0,0.0,0.0,0.0,0.0,0.0,0.0,0.0,0.0,0.0,0.0,0.0,0.0,0.0,0.0,0.0,0.0,0.0,0.0,0.0,0.0,0.0,0.0,0.0,0.0,0.0,0.0,0.0,1.7828,1.6971,1.7134,1.6952,0.0,0.0,1.4453,1.4196,1.3478,0.0,0.0,0.0,0.0,0.0,0.0,0.0,0.0,0.0,0.0,0.0,0.0,0.0,0.0,0.0,0.0,0.0,0.0,0.0,0.0,0.0,0.0,0.0,0.0,0.0,0.0,0.0,0.0,0.0,0.0,0.0,0.0,0.0,0.0,0.0,0.0,0.0,0.0,0.0,0.0,0.0,0.0,0.0,0.0,0.0,0.0,0.0,0.0,0.0,0.0,0.0,0.0,0.0,0.0,0.0,1.7054,1.7078,1.6565,1.629,1.6305,1.5735,1.5387,1.5338,1.5049,1.4526,0.0,0.0,0.0,0.0,0.0,0.0,0.0,0.0,0.0,0.0,0.0,0.0,0.0,0.0,0.0,0.0,0.0,0.0,0.0,0.0,0.0,0.0,0.0,0.0,0.0,0.0,0.0,0.0,0.0,0.0,0.0,0.0,0.0,0.0,0.0,0.0,0.0,0.0,0.0,0.0,0.0,0.0,1.8132,1.8,0.0,0.0,0.0,1.5121,1.5134,0.0,0.0,0.0,0.0,0.0,0.0,0.0,0.0,0.0,0.0,0.0,0.0,0.0,0.0,0.0,0.0,0.0,0.0,0.0,0.0,0.0,0.0,0.0,0.0,0.0,0.0,0.0,0.0,0.0,0.0,0.0,0.0,0.0,0.0,0.0,0.0,0.0,0.0,0.0,0.0,0.0,0.0,0.0,0.0,0.0,0.0,0.0,0.0,0.0,0.0,0.0,0.0,0.0,0.0,0.0,0.0,0.0,1.7607,1.6917,1.6546,1.6539,1.632,1.6157,1.6116,1.6021,0.0,0.0,0.0,0.0,0.0,0.0,0.0,0.0,0.0,0.0,0.0,0.0,0.0,0.0,0.0,0.0,0.0,0.0,0.0,0.0,0.0,0.0,0.0,0.0,0.0,0.0,0.0,1.5427,0.0,0.0,0.0,0.0,0.0,0.0,0.0,0.0,0.0,0.0,0.0,0.0,0.0,0.0,2.0011,1.9258,1.8902,1.8343,0.0,0.0,1.5765,1.5893,1.5631,1.5398,0.0,0.0,0.0,0.0,0.0,0.0,0.0,0.0,0.0,0.0,0.0,0.0,0.0,0.0,0.0,0.0,0.0,0.0,0.0,0.0,0.0,0.0,0.0,0.0,0.0,0.0,0.0,0.0,0.0,0.0,0.0,0.0,0.0,0.0,0.0,0.0,0.0,0.0,0.0,0.0,0.0,0.0,0.0,0.0,0.0,0.0,0.0,0.0,0.0,0.0,0.0,0.0,0.0,0.0,1.8079,1.8295,1.7636,1.7221,1.7268,1.72,1.7099,1.6932,1.6683,1.603,0.0,0.0,0.0,0.0,0.0,0.0,0.0,0.0,0.0,0.0,0.0,0.0,0.0,0.0,0.0,0.0,0.0,0.0,0.0,0.0,0.0,0.0,0.0,0.0,0.0,0.0,0.0,0.0,0.0,0.0,0.0,0.0,0.0,0.0,0.0,0.0,0.0,0.0,0.0,0.0,0.0,2.1118,2.0298,1.9843,1.924,0.0,1.7178,1.6466,1.6218,1.5731,1.5398,1.5398,0.0,0.0,0.0,0.0,0.0,0.0,0.0,0.0,0.0,0.0,0.0,0.0,0.0,0.0,0.0,0.0,0.0,0.0,0.0,0.0,0.0,0.0,0.0,0.0,0.0,0.0,0.0,0.0,0.0,0.0,0.0,0.0,0.0,0.0,0.0,0.0,0.0,0.0,0.0,0.0,0.0,0.0,0.0,0.0,0.0,0.0,0.0,0.0,0.0,0.0,0.0,0.0,0.0,1.928,1.9354,1.8897,1.868,1.8634,1.8634,1.8465,1.811,1.739,1.6579,0.0,0.0,0.0,0.0,0.0,0.0,0.0,0.0,0.0,0.0,0.0,0.0,0.0,0.0,0.0,0.0,0.0,0.0,0.0,0.0,0.0,0.0,0.0,0.0,0.0,0.0,0.0,0.0,1.8328,1.8906,1.954,0.0,0.0,0.0,0.0,0.0,0.0,0.0,0.0,0.0,0.0,2.2309,2.1696,2.1325,0.0,0.0,1.811,1.7138,1.677,1.5951,1.5337,1.5157,1.4883,0.0,0.0,0.0,0.0,0.0,0.0,0.0,0.0,0.0,0.0,0.0,0.0,0.0,0.0,0.0,0.0,0.0,0.0,0.0,0.0,0.0,0.0,0.0,0.0,0.0,0.0,0.0,0.0,0.0,0.0,0.0,0.0,0.0,0.0,0.0,0.0,0.0,0.0,0.0,0.0,0.0,0.0,0.0,0.0,0.0,0.0,0.0,0.0,0.0,0.0,0.0,0.0,2.0285,2.0307,2.0088,1.996,1.9923,1.996,1.9637,1.9084,1.8149,1.7197,0.0,0.0,0.0,0.0,0.0,0.0,0.0,0.0,0.0,0.0,0.0,0.0,0.0,0.0,0.0,0.0,0.0,0.0,0.0,0.0,0.0,0.0,0.0,0.0,0.0,0.0,0.0,0.0,1.9529,1.9902,2.0342,0.0,0.0,0.0,0.0,0.0,0.0,0.0,0.0,0.0,0.0,2.3023,2.2583,2.2221,2.1608,2.0391,1.9063,1.7972,1.7372,1.6366,1.5565,1.5263,0.0,0.0,0.0,0.0,0.0,0.0,0.0,0.0,0.0,0.0,0.0,0.0,0.0,0.0,0.0,0.0,0.0,0.0,0.0,0.0,0.0,0.0,0.0,0.0,0.0,0.0,0.0,2.3101,0.0,0.0,2.3154,0.0,0.0,0.0,0.0,0.0,0.0,0.0,0.0,0.0,0.0,0.0,0.0,0.0,0.0,0.0,0.0,0.0,0.0,0.0,0.0,0.0,0.0,2.0907,2.1055,2.1006,2.0997,2.0988,2.0988,2.0579,1.9735,1.8985,1.8026,1.6873,0.0,0.0,0.0,0.0,0.0,0.0,0.0,0.0,0.0,0.0,0.0,0.0,0.0,0.0,0.0,0.0,0.0,0.0,0.0,0.0,0.0,0.0,0.0,0.0,0.0,0.0,2.0527,2.0566,2.0557,0.0,0.0,0.0,0.0,0.0,0.0,0.0,0.0,0.0,2.2461,2.2828,2.3057,2.2803,2.2388,2.1856,2.1078,1.9985,1.8897,1.8028,1.707,1.6221,0.0,0.0,0.0,0.0,0.0,0.0,0.0,0.0,0.0,0.0,0.0,0.0,0.0,0.0,0.0,0.0,0.0,0.0,0.0,0.0,0.0,0.0,0.0,0.0,0.0,0.0,0.0,2.5182,2.5019,0.0,0.0,0.0,0.0,0.0,0.0,0.0,0.0,0.0,0.0,0.0,2.6913,2.6628,0.0,0.0,0.0,0.0,0.0,0.0,0.0,0.0,0.0,0.0,0.0,0.0,2.1569,2.1648,2.2125,2.2422,2.2378,2.2114,2.1689,2.1117,1.9889,1.8368,1.6515,0.0,0.0,0.0,0.0,0.0,0.0,0.0,0.0,0.0,0.0,0.0,0.0,0.0,0.0,0.0,0.0,0.0,0.0,0.0,0.0,0.0,0.0,0.0,0.0,0.0,2.0615,0.0,0.0,0.0,0.0,0.0,0.0,0.0,0.0,0.0,0.0,2.1953,2.2353,2.249,2.2828,2.3047,2.3013,2.2872,2.2555,0.0,0.0,0.0,0.0,0.0,0.0,0.0,0.0,0.0,0.0,0.0,0.0,0.0,0.0,2.0404,1.9939,1.941,1.8737,1.7749,0.0,0.0,0.0,0.0,0.0,0.0,0.0,0.0,0.0,0.0,0.0,0.0,0.0,0.0,2.6717,2.6674,2.616,0.0,0.0,0.0,0.0,0.0,0.0,0.0,0.0,2.8454,2.8695,2.849,2.8177,2.8189,0.0,2.7984,2.7076,0.0,0.0,0.0,0.0,0.0,0.0,0.0,0.0,2.2379,2.2409,2.3175,2.3501,2.3342,2.3083,2.2574,2.181,2.0354,1.8735,1.6911,1.6839,1.6606,0.0,0.0,0.0,0.0,0.0,0.0,0.0,0.0,0.0,0.0,0.0,0.0,0.0,0.0,0.0,0.0,0.0,0.0,0.0,0.0,0.0,0.0,0.0,2.0615,0.0,0.0,0.0,0.0,0.0,0.0,0.0,0.0,0.0,2.2271,2.2607,2.3058,2.3175,2.3434,2.357,2.3493,0.0,0.0,0.0,0.0,0.0,0.0,0.0,1.8727,1.8194,1.827,1.8481,1.8735,1.9618,2.0473,2.1167,0.0,0.0,2.1512,2.1012,2.0369,1.9263,1.9194,1.9204,1.8896,1.9005,1.9283,0.0,0.0,0.0,0.0,0.0,0.0,0.0,0.0,2.8181,2.8203,0.0,2.7642,0.0,0.0,0.0,0.0,2.7226,2.8321,0.0,0.0,2.999,3.0306,2.9804,2.974,2.9779,2.9754,2.9164,2.8636,2.8119,2.5931,0.0,0.0,0.0,0.0,0.0,0.0,2.3244,2.3254,2.4075,2.4292,2.3846,2.3805,2.3166,2.1819,2.0417,1.9208,1.8225,1.8151,1.7991,1.7662,1.7278,0.0,0.0,0.0,0.0,0.0,0.0,0.0,0.0,0.0,0.0,0.0,0.0,0.0,0.0,0.0,0.0,0.0,0.0,0.0,0.0,2.0634,0.0,0.0,0.0,0.0,0.0,0.0,0.0,0.0,0.0,2.537,2.4188,2.4013,2.4138,2.4522,0.0,0.0,0.0,0.0,2.3657,2.3232,2.2589,2.177,2.0786,2.0208,1.9626,1.891,0.0,0.0,2.0209,2.0768,2.133,2.1973,2.213,2.237,2.2911,2.2547,2.1889,2.0891,2.0618,2.0537,2.0168,2.003,2.0273,3.1807,0.0,0.0,0.0,0.0,2.9205,2.9715,3.009,3.009,3.009,3.0066,2.9578,0.0,0.0,0.0,0.0,0.0,0.0,2.8965,2.9236,2.9774,2.9955,2.9792,2.9779,2.9779,2.9767,2.9202,2.8575,2.7903,2.6574,2.5454,2.4485,0.0,0.0,0.0,0.0,2.3924,2.3957,2.4436,2.4636,2.4505,2.4218,2.3401,2.1952,2.1312,2.0457,1.9431,1.9364,1.9221,1.8821,1.8366,0.0,0.0,0.0,0.0,0.0,0.0,0.0,0.0,0.0,0.0,0.0,0.0,0.0,0.0,0.0,0.0,0.0,0.0,0.0,2.1454,2.1454,2.1464,0.0,0.0,0.0,0.0,0.0,0.0,0.0,0.0,0.0,2.6684,2.6158,2.579,0.0,0.0,2.5788,2.5379,2.4861,2.4349,2.394,2.3044,0.0,2.163,2.1119,2.0647,2.0135,2.0362,2.0797,2.137,2.1549,2.1713,2.1932,2.1981,2.2068,2.2165,2.1984,2.1546,2.095,2.094,2.0964,2.0671,2.0654,2.0788,3.386,3.1714,3.1423,3.1054,3.0674,3.1296,3.1736,3.2071,3.2115,3.1962,3.1733,3.1245,3.0791,3.0465,2.977,0.0,0.0,0.0,2.9314,2.956,2.9753,2.9779,2.9779,2.9779,2.9779,2.9754,2.8976,2.8349,2.7901,2.6926,2.6223,2.5685,0.0,2.3975,2.3975,2.4477,2.4702,2.4725,2.5115,2.5263,2.5058,2.4495,2.3653,2.2558,2.2166,2.1559,2.0679,2.0669,2.0549,2.0289,1.9859,1.9739,0.0,0.0,0.0,0.0,0.0,0.0,0.0,0.0,0.0,0.0,0.0,2.2006,2.2152,0.0,0.0,0.0,2.2654,2.2799,2.2799,2.3009,0.0,0.0,0.0,0.0,0.0,0.0,0.0,2.5892,2.6854,2.7603,2.7866,2.7474,2.713,2.7052,2.6845,2.6517,2.608,0.0,2.4594,2.4169,2.3327,2.2557,2.2047,2.1679,2.1233,2.0674,2.0781,2.1123,2.1543,2.1631,2.1689,2.1816,2.1738,2.1621,2.1631,2.1362,2.1132,2.0999,2.1078,2.1081,2.0818,2.0742,2.0769,3.5443,3.4466,3.3511,3.3014,3.2942,3.3371,3.367,3.3847,3.3834,3.3545,3.3086,3.2516,3.2252,3.2194,3.1138,0.0,3.0662,3.0108,2.9908,2.9908,2.9908,2.9908,2.9908,2.9908,2.9882,2.9768,2.8661,2.8121,2.7984,2.7014,2.6487,2.6452,2.5406,2.485,2.4886,2.5322,2.5582,2.5582,2.6005,2.6016,2.557,2.4772,2.4045,2.3446,2.3027,2.2542,2.1949,2.1949,2.1911,2.1928,2.1569,2.1356,2.1298,0.0,0.0,0.0,0.0,0.0,0.0,0.0,0.0,0.0,0.0,0.0,0.0,0.0,0.0,0.0,2.4074,0.0,2.4405,2.4943,0.0,0.0,0.0,2.4544,2.4992,2.551,2.6021,2.6396,0.0,0.0,2.8109,2.8109,2.8052,2.783,2.7388,2.6937,2.6528,2.5537,2.4635,2.4277,2.3604,2.2986,2.2386,2.1967,2.147,2.0752,2.0615,2.0732,2.1084,2.1142,2.1317,2.166,2.1445,2.1142,2.1142,2.0879,2.0713,2.1015,2.1112,2.1025,2.0674,2.0566,2.041,3.5903,3.5251,3.4975,3.4096,3.2883,3.3347,3.3419,3.3282,3.3269,3.3194,3.3111,3.293,3.2756,3.2456,3.1474,3.1136,3.1254,3.0893,3.0723,3.0723,3.0736,3.0723,3.0723,3.0736,3.0377,2.9776,2.895,2.8257,2.7695,2.6895,2.6487,2.6499,2.6198,2.6094,2.606,2.6183,2.627,2.6258,2.6394,2.6371,2.627,2.5749,2.5206,2.4623,2.4204,2.372,2.3132,2.3084,2.3084,2.3084,2.2717,2.2499,2.2488,2.156,0.0,0.0,0.0,0.0,0.0,0.0,0.0,0.0,0.0,2.353,2.4175,0.0,2.4409,0.0,2.4933,2.5273,2.531,2.5788,0.0,0.0,2.5392,2.5269,2.5254,2.5853,2.6384,2.6792,2.7577,2.8109,2.8109,2.8109,2.8087,2.8027,2.7916,2.768,2.728,2.6555,2.5877,2.5358,2.4525,2.3798,2.3234,2.2275,2.1364,2.0702,2.0605,2.0644,2.0742,2.0762,2.0811,2.0889,2.081,2.0772,2.0752,2.0664,2.0498,2.0312,2.0488,2.0703,2.0625,2.0303,2.0029,3.6125,3.5495,3.5646,3.4901,3.3619,3.3926,3.3815,3.3458,3.3445,3.3294,3.3124,3.3124,3.3119,3.3008,3.226,3.2085,3.233,3.1926,3.1736,3.1686,3.1736,3.1686,3.17,3.1723,3.1232,3.0372,2.9483,2.8618,2.7809,2.6949,2.6487,2.6487,2.6487,2.6487,2.6487,2.6487,2.6487,2.6487,2.6487,2.6487,2.6499,2.6201,2.5805,2.5276,2.4969,2.4564,2.4047,2.4036,2.4036,2.4036,2.382,2.3707,2.3695,2.2765,2.2055,0.0,0.0,0.0,0.0,0.0,0.0,0.0,0.0,0.0,0.0,0.0,2.5608,2.5851,2.636,2.6809,2.7052,2.7331,2.7392,2.71,2.6651,2.6323,2.6196,2.6327,2.6517,2.6764,2.7145,2.7369,2.7369,2.7404,2.7381,2.7381,2.7417,2.7349,2.7224,2.6615,2.597,2.5602,2.4914,2.4175,2.3588,2.2676,2.1835,2.128,2.0938,2.0817,2.0807,2.0637,2.0517,2.0517,2.0507,2.0517,2.0507,2.0517,2.0416,2.0266,2.0336,2.0374,2.0066,1.9805,1.96,3.6214,3.5441,3.5729,3.5353,3.4606,3.473,3.449,3.3959,3.3959,3.3694,3.324,3.324,3.3433,3.3743,3.3211,3.3194,3.3509,3.3037,3.2735,3.2749,3.2749,3.2749,3.2749,3.2749,3.2191,3.1134,3.0111,2.91,2.8109,2.7105,2.6624,2.6624,2.6636,2.6624,2.6624,2.6624,2.6589,2.6487,2.6487,2.6487,2.6487,2.6327,2.6084,2.5711,2.5558,2.5312,2.4957,2.4933,2.4921,2.4933,2.4933,2.4933,2.4909,2.402,2.3451,0.0,2.2491,0.0,0.0,0.0,0.0,0.0,0.0,0.0,0.0,2.621,2.67,2.7178,2.7745,2.8273,2.865,2.8813,2.8825,2.8675,2.7858,2.7268,2.7168,2.6788,2.6487,2.6487,2.6487,2.6487,2.6537,2.6487,2.6499,2.6562,2.6587,2.6681,2.6806,2.63,2.5714,2.5488,2.5123,2.4634,2.3799,2.3235,2.2697,2.206,2.1617,2.1277,2.1204,2.0891,2.0619,2.0619,2.0686,2.064,2.0598,2.0619,2.0598,2.0525,2.0561,2.0318,1.9753,1.9476,1.9216,3.6368,3.4934,3.5327,3.5179,3.4695,3.5024,3.487,3.4315,3.4315,3.425,3.416,3.416,3.4206,3.4246,3.3971,3.3909,3.3996,3.3706,3.3561,3.3561,3.3561,3.3561,3.3561,3.3561,3.2809,3.135,3.0759,2.972,2.8278,2.7629,2.7302,2.7323,2.7289,2.7323,2.7302,0.0,0.0,0.0,2.6487,2.6487,2.6487,2.6465,2.6396,2.6327,2.6314,0.0,2.6164,2.6164,2.6176,2.6164,2.6164,0.0,0.0,0.0,0.0,0.0,0.0,0.0,0.0,0.0,0.0,0.0,2.5403,2.5699,2.6285,2.6436,2.6537,2.6663,2.7519,2.7959,2.7632,2.8411,2.8524,2.7708,2.7406,2.714,2.6713,2.6549,2.6487,2.6487,2.6487,2.6487,2.6487,2.6487,2.6487,2.6487,2.6487,2.6524,2.659,2.6436,2.6314,2.6245,2.5898,2.543,2.4802,2.4312,2.3657,2.2828,2.2482,2.2215,2.1818,2.1675,2.1598,2.1565,2.1598,2.1587,2.1587,2.1598,2.1433,2.1138,2.105,2.0865,2.0327,1.9864,1.9598,3.6804,3.5436,3.5692,3.5635,0.0,3.5869,3.6042,3.595,3.5467,3.5305,3.5278,3.4969,3.4966,3.5134,3.4692,3.4608,3.4781,3.4695,3.4654,3.4639,3.4654,3.4654,3.4654,3.4639,3.3962,3.2659,3.1857,3.0765,2.9546,2.8668,2.8228,2.8228,2.8228,2.8241,2.8241,2.8228,2.7815,2.6998,2.6998,2.6998,2.6998,2.6998,2.6998,2.6998,2.693,0.0,0.0,0.0,0.0,0.0,0.0,0.0,0.0,0.0,0.0,2.482,2.4808,2.455,2.4036,2.4745,2.531,2.5573,2.5862,2.6172,2.6474,2.6487,2.66,2.6889,2.7381,2.7695,2.7708,2.7946,2.7883,2.7392,2.7077,2.6788,2.6549,2.6487,2.6487,2.6487,2.6487,2.6487,2.6487,2.6487,2.6487,2.6487,2.6487,2.6487,2.6487,2.6487,2.6487,2.6487,2.627,2.5875,2.5382,2.504,2.4495,2.3559,2.3097,2.2754,2.224,2.1931,2.176,2.176,2.176,2.1727,2.176,2.176,2.1668,2.1483,2.1371,2.131,2.103,2.0543,2.0147,3.7561,3.6277,3.6406,3.6416,3.6373,3.6936,3.7438,3.7834,3.6866,0.0,0.0,3.5798,3.5683,3.593,3.5311,3.5172,3.5434,3.5499,3.5489,3.5489,3.5489,3.5489,3.5489,3.5489,3.4984,3.4011,3.2841,3.1838,3.0905,2.975,2.9192,2.9205,2.9192,2.9192,2.9192,2.9205,2.8794,2.7993,2.7842,2.7743,2.7776,2.7776,2.7723,2.7584,2.7433,2.7181,2.6832,2.6713,2.654,2.6348,2.6436,2.6487,2.6474,2.6047,2.5699,2.5586,2.5297,2.5059,2.4983,2.5448,2.5749,2.5783,2.6223,2.6487,2.6487,2.6487,2.6675,2.7128,2.7266,2.7431,2.777,2.7519,2.7243,2.719,2.6763,2.6499,2.6487,2.6487,2.6487,2.6487,2.6487,2.6487,2.6487,2.6487,2.6487,2.6487,2.6487,2.6436,2.6373,2.6298,2.6235,2.6088,2.599,2.5946,2.5681,2.5592,2.5117,2.4217,2.3732,2.3268,2.2642,2.2143,2.1901,2.1992,2.1877,2.1913,2.1889,2.1949,2.1877,2.1877,2.1865,2.1877,2.1803,2.1416,2.1017,3.8616,3.7003,3.7368,3.7496,3.7601,3.8075,3.8627,3.9031,3.7895,3.74,3.7357,3.6708,3.6362,3.6209,3.5683,3.5331,3.5248,3.5404,3.5489,3.5489,3.5489,3.5489,3.5489,3.5489,3.5034,3.4157,3.3189,3.2261,3.1375,3.043,2.9931,2.9931,2.9931,2.9962,2.9931,2.9931,2.987,2.9716,2.9097,2.878,2.878,2.878,2.8502,2.7947,2.7696,2.7081,2.612,2.6278,2.6143,2.5757,2.6223,2.6487,2.6487,2.6411,2.6147,2.5674,2.5988,2.6047,2.5536,2.6047,2.6361,2.6373,2.6461,2.6487,2.6487,2.6487,2.6524,2.6637,2.7027,2.714,2.6826,2.7042,2.7115,2.6713,2.6549,2.6487,2.6487,2.6487,2.6487,2.6487,2.6487,2.6487,2.6487,2.6487,2.6487,2.6487,2.6487,2.6323,2.5883,2.5724,2.5523,2.5234,2.5402,2.5607,2.5644,2.6015,2.5688,2.4842,2.4546,2.4067,2.3109,2.2837,2.2763,2.2854,2.2793,2.2811,2.2811,2.2884,2.2811,2.2793,2.2763,2.2781,2.2781,2.2659,2.2372,3.8919,3.7901,3.7955,3.8055,3.8225,3.876,3.9156,3.9337,3.8848,3.8575,3.8473,3.7469,3.6975,3.6812,3.5921,3.5477,3.5374,3.5472,3.5489,3.5489,3.5489,3.5489,3.5489,3.5489,3.5307,3.4837,3.3713,3.2982,3.252,3.1395,3.0866,3.0866,3.0866,3.0866,3.0866,3.0866,3.0866,3.0836,3.0009,2.9594,2.9594,2.9594,2.9454,2.9155,2.8833,2.8304,2.7517,2.7434,2.7138,2.6655,2.6878,2.7066,2.7066,2.7066,2.6904,2.666,2.6878,2.6904,2.6634,2.6878,2.7032,2.7019,2.7032,2.7019,2.7032,2.6692,2.6487,2.6499,2.6738,2.6776,2.6524,2.6725,2.6776,2.6537,2.6487,2.6487,2.6487,2.6487,2.6487,2.6487,2.6487,2.6487,2.6487,2.6487,2.6487,2.6487,2.6487,2.6185,2.5335,2.5184,2.5096,2.4895,2.5034,2.5297,2.5523,2.5536,2.5347,2.4825,2.4569,2.4067,2.3258,2.3095,2.3095,2.3095,2.3095,2.3095,2.3083,2.3095,2.3095,2.3095,2.3095,2.3095,2.3095,2.3095,2.2927,3.9164,3.8707,3.8533,3.8553,3.8752,3.9177,3.9388,3.9388,3.9388,3.9388,3.9209,3.8003,3.7404,3.727,3.6073,3.5489,3.5489,3.5489,3.5489,3.5489,3.5489,3.5489,3.5489,3.5489,3.5489,3.534,3.4143,3.3499,3.335,3.2138,3.1496,3.1496,3.1496,3.1496,3.1496,3.1496,3.1496,3.1438,3.0777,3.0403,3.0403,3.0433,3.033,3.0186,2.9856,2.9402,2.8737,2.8547,2.8128,2.7504,2.7544,2.7544,2.7393,2.738,2.7399,2.7399,2.7531,2.7663,2.7829,2.7842,2.7842,2.7829,2.7829,2.7829,2.7796,2.7364,2.6939,2.6782,2.6773,2.6739,2.6692,2.6671,2.6589,2.6636,2.6636,2.6624,2.6602,2.6624,2.6589,2.6555,2.6533,2.6487,2.6487,2.6487,2.6487,2.6487,2.6487,2.6047,2.5084,2.48,2.4738,2.4487,2.4512,2.4757,2.5159,2.5059,2.4775,2.4682,2.4293,2.3803,2.3283,2.3095,2.3007,2.2945,2.2895,2.2794,2.2757,2.2706,2.2669,2.2619,2.2606,2.2656,2.2644,2.2631,2.2857,3.9906,3.9348,3.9258,3.9301,3.9301,3.9388,3.9388,3.9388,3.9388,3.9388,3.9209,3.8003,3.7404,3.724,3.6073,3.5489,3.5489,3.5489,3.5489,3.5489,3.5489,3.5489,3.5489,3.5489,3.5489,3.534,3.4143,3.3499,3.3425,3.2153,3.1496,3.1496,3.1496,3.1496,3.1496,3.1496,3.1496,3.1496,3.1409,3.138,3.138,3.138,3.1082,3.0471,3.0216,2.955,2.8598,2.8692,2.833,2.7393,2.7697,2.768,2.7157,2.7045,2.7045,2.7086,2.7639,2.8204,2.8761,2.8844,2.8844,2.8889,2.8857,2.8844,2.8844,2.878,2.8376,2.7696,2.7436,2.739,2.7248,2.7087,2.6985,2.6977,2.6985,2.6952,2.6964,2.6964,2.6884,2.6679,2.6602,2.6487,2.6487,2.6487,2.6487,2.6487,2.6487,2.6084,2.5059,2.4788,2.4387,2.371,2.3728,2.4079,2.4255,2.4569,2.4494,2.418,2.4042,2.3703,2.3271,2.307,2.297,2.2594,2.246,2.2334,2.192,2.1656,2.1719,2.1882,2.1832,2.1707,2.1669,2.1744,2.2071,3.9664,3.9388,3.9388,3.9388,3.9388,3.9388,3.9388,3.9388,3.9388,3.92,3.8721,3.7823,3.7404,3.733,3.6073,3.5489,3.5489,3.5489,3.5489,3.5489,3.5489,3.5489,3.5489,3.5489,3.5489,3.5385,3.4128,3.3499,3.3275,3.2138,3.1496,3.1496,3.1496,3.1496,3.1496,3.1496,3.1496,3.1496,3.1496,3.1496,3.1496,3.1496,3.1361,3.1093,3.0905,3.0527,2.9871,2.9522,2.9011,2.8372,2.8141,2.7929,2.7677,2.7663,2.7648,2.7691,2.8282,2.8792,2.9031,2.9428,2.9639,2.9625,2.967,2.9625,2.9656,2.9656,2.9453,2.9075,2.8648,2.8293,2.8045,2.765,2.7443,2.7456,2.7443,2.743,2.7456,2.7443,2.7317,2.7027,2.6679,2.6487,2.6487,2.6487,2.6487,2.6487,2.6487,2.6059,2.5046,2.48,2.4299,2.3434,2.3321,2.3627,2.3891,2.381,2.386,2.3916,2.3703,2.3339,2.3208,2.3095,2.292,2.2368,2.2297,2.2071,2.1631,2.1506,2.1481,2.143,2.1468,2.1481,2.1481,2.1481,2.1744,3.9388,3.9388,3.9388,3.9388,3.9388,3.9388,3.9388,3.9379,3.9215,3.8856,3.8332,3.7524,3.715,3.7,3.5983,3.5489,3.5489,3.5489,3.5489,3.5489,3.5489,3.5489,3.5489,3.5489,3.5489,3.528,3.4143,3.332,3.2901,3.2034,3.1496,3.1496,3.1496,3.1496,3.1496,3.1496,3.1496,3.1496,3.1496,3.1496,3.1496,3.1496,3.1496,3.1496,3.1394,3.1174,3.0719,3.0162,2.9551,2.8987,2.8496,2.8136,2.7963,2.7948,2.8035,2.8237,2.8669,2.9132,2.945,2.9927,3.0305,3.045,3.0493,3.0493,3.0493,3.0493,3.0493,3.0433,3.0009,2.9504,2.8826,2.8312,2.8045,2.8137,2.8059,2.8045,2.8151,2.8091,2.7848,2.7451,2.6985,2.6589,2.6521,2.6487,2.6487,2.6487,2.6474,2.6185,2.5259,2.4908,2.4437,2.3496,2.3233,2.3271,2.3653,2.3471,2.3371,2.3459,2.3358,2.3158,2.3095,2.3095,2.2757,2.2184,2.2146,2.1732,2.0991,2.0916,2.1054,2.1029,2.1029,2.1029,2.0878,2.0991,2.0991,3.9388,3.9388,3.9388,3.9388,3.9388,3.9388,3.9388,3.9328,3.8751,3.8422,3.8182,3.709,3.657,3.6477,3.5804,3.5489,3.5489,3.5489,3.5489,3.5489,3.5489,3.5489,3.5489,3.5489,3.5489,3.5385,3.4143,3.2856,3.175,3.1555,3.1496,3.1496,3.1496,3.1496,3.1496,3.1496,3.1496,3.1496,3.1496,3.1496,3.1496,3.1496,3.1496,3.1496,3.1481,3.1138,3.06,3.0466,2.9856,2.8662,2.8535,2.8263,2.7708,2.7633,2.7906,2.8442,2.8621,2.92,3.0171,3.0456,3.0754,3.1261,3.1322,3.1409,3.1292,3.1292,3.1278,3.1409,3.1248,3.0748,2.9732,2.9125,2.8867,2.9022,2.8881,2.8881,2.9022,2.8899,2.8514,2.8026,2.7377,2.6837,2.6555,2.6487,2.6487,2.6487,2.6487,2.6248,2.5624,2.5121,2.4537,2.4004,2.3489,2.312,2.3158,2.3158,2.3145,2.3221,2.3246,2.3095,2.3095,2.2982,2.2431,2.1995,2.1882,2.1355,2.0338,1.9962,2.0087,2.0125,2.015,2.0125,2.03,2.0012,2.0062,3.9388,3.9388,3.9388,3.9388,3.9388,3.9388,3.9388,3.9328,3.8706,3.8138,3.7674,3.6851,3.6252,3.5833,3.5609,3.5489,3.5489,3.5489,3.5489,3.5489,3.5489,3.5489,3.5489,3.5489,3.5489,3.5295,3.4143,3.2811,3.163,3.1496,3.1496,3.1496,3.1496,3.1496,3.1496,3.1496,3.1496,3.1496,3.1496,3.1496,3.1496,3.1496,3.1496,3.1466,3.1062,3.0733,3.0507,2.9744,2.9056,2.8607,2.8188,2.7854,2.763,2.7585,2.769,2.8019,2.8742,2.943,2.9924,3.0673,3.1227,3.1451,3.1496,3.1496,3.1496,3.1496,3.1496,3.1496,3.1496,3.119,3.0762,3.0131,2.9794,2.9839,2.9794,2.9763,2.9853,2.9808,2.9532,2.8821,2.7894,2.6973,2.6645,2.6487,2.6487,2.6487,2.6487,2.6223,2.5686,2.5126,2.46,2.4079,2.3496,2.3095,2.3095,2.3108,2.3108,2.3108,2.3095,2.3095,2.3095,2.3095,2.2681,2.2246,2.1958,2.1606,2.0803,2.039,2.025,1.9836,1.9798,1.9798,1.9811,1.9798,1.9798,3.9388,3.9388,3.9388,3.9388,3.9358,3.9185,3.9095,3.8975,3.8167,3.7524,3.703,3.6447,3.5908,3.5549,3.5489,3.5489,3.5489,3.5489,3.5489,3.5489,3.5489,3.5489,3.5489,3.5489,3.5489,3.5295,3.4128,3.2811,3.1645,3.1496,3.1496,3.1496,3.1496,3.1496,3.1496,3.1496,3.1496,3.1496,3.1496,3.1496,3.1496,3.1496,3.1496,3.1376,3.0672,3.0208,3.0193,2.9175,2.8472,2.8248,2.7854,2.7585,2.7585,2.7585,2.7705,2.8004,2.8768,2.946,2.9894,3.0717,3.1256,3.1481,3.1496,3.1496,3.1496,3.1496,3.1496,3.1496,3.1496,3.1438,3.1307,3.094,3.0658,3.0568,3.0509,3.0494,3.0523,3.0478,3.004,2.917,2.8222,2.7443,2.6918,2.6816,2.676,2.6692,2.6624,2.6366,2.5933,2.5247,2.47,2.428,2.3584,2.3195,2.3095,2.3095,2.3095,2.3095,2.3095,2.3095,2.3095,2.3095,2.2945,2.2493,2.2184,2.1882,2.1468,2.1006,2.049,1.9949,1.9798,1.9798,1.9798,1.9798,1.9798,3.9388,3.9388,3.9388,3.9388,3.9298,3.8751,3.8437,3.8272,3.715,3.6656,3.6522,3.5848,3.5564,3.5489,3.5489,3.5489,3.5489,3.5489,3.5489,3.5489,3.5489,3.5489,3.5489,3.5489,3.5385,3.5235,3.4113,3.2826,3.157,3.1496,3.1496,3.1496,3.1496,3.1496,3.1496,3.1496,3.1496,3.1496,3.1496,3.1496,3.1496,3.1496,3.1466,3.1316,3.0283,2.9666,2.9592,2.8906,2.8248,2.775,2.763,2.7585,2.7585,2.7585,2.7884,2.8412,2.8637,2.9265,3.0283,3.0554,3.0987,3.1361,3.1496,3.1496,3.1496,3.1496,3.1496,3.1496,3.1496,3.1496,3.1467,3.1409,3.1292,3.1146,3.0925,3.0911,3.0999,3.0896,3.0313,2.9202,2.8578,2.8105,2.7643,2.741,2.7276,2.7074,2.6871,2.6633,2.6294,2.5473,2.4883,2.4562,2.3835,2.3145,2.3095,2.3095,2.3095,2.3095,2.3095,2.3095,2.3095,2.3095,2.297,2.2619,2.2556,2.223,2.143,2.0968,2.0553,2.01,1.9987,1.9811,1.9798,1.9798,1.9798,3.9388,3.9388,3.9388,3.9388,3.9284,3.8691,3.8377,3.8242,3.7079,3.6492,3.6372,3.5804,3.5489,3.5489,3.5489,3.5489,3.5489,3.5489,3.5489,3.5489,3.5489,3.5489,3.5489,3.5489,3.5011,3.4203,3.3724,3.2811,3.172,3.1496,3.1496,3.1496,3.1496,3.1496,3.1496,3.1496,3.1496,3.1496,3.1496,3.1496,3.1496,3.1496,3.1301,3.0763,2.9998,2.9412,2.8906,2.8274,2.7839,2.76,2.7585,2.7585,2.7585,2.7585,2.7889,2.8547,2.9041,2.9609,3.0402,3.0913,3.1241,3.1451,3.1496,3.1496,3.1496,3.1496,3.1496,3.1496,3.1496,3.1496,3.1496,3.1496,3.1438,3.138,3.1322,3.1278,3.1292,3.1102,3.0628,2.9995,2.9546,2.9107,2.8648,2.8325,2.7966,2.755,2.725,2.6952,2.6438,2.5556,2.4858,2.47,2.3822,2.312,2.3095,2.3095,2.3095,2.3095,2.3095,2.3095,2.3095,2.3083,2.2957,2.2844,2.2782,2.238,2.1581,2.1069,2.069,2.02,1.9924,1.9836,1.9811,1.9798,1.9798,3.9388,3.9388,3.9388,3.9388,3.9305,3.8437,3.8033,3.7838,3.6671,3.6118,3.6028,3.5699,3.5489,3.5489,3.5489,3.5489,3.5489,3.5489,3.5489,3.5489,3.5489,3.5489,3.5444,3.522,3.4592,3.3619,3.3245,3.2587,3.1555,3.1496,3.1496,3.1496,3.1496,3.1496,3.1496,3.1496,3.1496,3.1496,3.1496,3.1496,3.1496,3.1496,3.1286,3.0838,3.0268,2.9744,2.928,2.8457,2.7869,2.766,2.7585,2.7585,2.7585,2.7615,2.8019,2.8858,2.9397,2.9953,3.0776,3.1256,3.1496,3.1496,3.1496,3.1496,3.1496,3.1496,3.1496,3.1496,3.1496,3.1496,3.1496,3.1496,3.1496,3.1496,3.1467,3.1496,3.1467,3.1278,3.0925,3.0524,3.0237,2.9901,2.9501,2.9111,2.8698,2.8195,2.7749,2.7263,2.6633,2.5663,2.5169,2.4601,2.3785,2.3321,2.3133,2.3095,2.3095,2.3095,2.3095,2.3095,2.3095,2.3095,2.302,2.2895,2.2807,2.2506,2.1807,2.1493,2.1142,2.0577,1.9962,1.9836,1.9798,1.9798,1.9798,3.9388,3.9388,3.9388,3.9388,3.9245,3.8033,3.7479,3.724,3.6103,3.5564,3.5549,3.5519,3.5489,3.5489,3.5489,3.5489,3.5489,3.5489,3.5489,3.5489,3.5489,3.5459,3.528,3.4863,3.4174,3.3365,3.2826,3.2183,3.1525,3.1496,3.1496,3.1496,3.1496,3.1496,3.1496,3.1496,3.1496,3.1496,3.1496,3.1496,3.1496,3.1496,3.1421,3.1316,3.0761,3.0357,3.0028,2.9086,2.8263,2.7764,2.7735,2.7794,2.7764,2.772,2.8397,2.9547,2.9666,3.0313,3.1167,3.1451,3.1496,3.1496,3.1496,3.1496,3.1496,3.1496,3.1496,3.1496,3.1496,3.1496,3.1496,3.1496,3.1496,3.1496,3.1496,3.1496,3.1511,3.138,3.1146,3.0896,3.0703,3.0523,3.0206,2.9917,2.9484,2.8967,2.8454,2.7868,2.688,2.5966,2.5191,2.4413,2.3678,2.3333,2.3095,2.3095,2.3095,2.3095,2.3095,2.3095,2.3095,2.3083,2.3095,2.297,2.2794,2.2481,2.2159,2.1782,2.1345,2.0729,2.0264,1.9949,1.9798,1.9798,1.9811,3.9388,3.9388,3.9388,3.9388,3.9194,3.7973,3.7404,3.724,3.6058,3.5489,3.5489,3.5489,3.5489,3.5489,3.5489,3.5489,3.5489,3.5489,3.5489,3.5489,3.5489,3.519,3.4863,3.4593,3.3904,3.2931,3.2557,3.2183,3.154,3.1496,3.1496,3.1496,3.1496,3.1496,3.1496,3.1496,3.1496,3.1496,3.1496,3.1496,3.1496,3.1496,3.1241,3.0791,3.0627,3.0298,2.9834,2.9041,2.8547,2.8368,2.8323,2.8577,2.8933,2.9007,2.931,2.9998,3.0253,3.0597,3.1271,3.1496,3.1496,3.1496,3.1496,3.1496,3.1496,3.1496,3.1496,3.1496,3.1496,3.1496,3.1496,3.1496,3.1496,3.1496,3.1496,3.1496,3.1496,3.1467,3.1409,3.1307,3.1263,3.1146,3.1014,3.0748,3.0374,2.9903,2.9254,2.8488,2.7404,2.6298,2.5524,2.4393,2.3627,2.3296,2.3095,2.3095,2.3095,2.3095,2.3095,2.3095,2.3083,2.3058,2.3083,2.3058,2.2869,2.2581,2.2246,2.187,2.1345,2.0842,2.0302,1.9861,1.9823,1.9798,1.9836,3.9388,3.9388,3.9388,3.9388,3.9209,3.7973,3.7404,3.715,3.6073,3.5489,3.5489,3.5489,3.5489,3.5489,3.5489,3.5489,3.5489,3.5489,3.5489,3.5489,3.5489,3.528,3.4876,3.4442,3.3649,3.2946,3.2333,3.1884,3.1555,3.1496,3.1496,3.1496,3.1496,3.1496,3.1496,3.1496,3.1496,3.1496,3.1496,3.1496,3.1496,3.1496,3.1331,3.0972,3.0898,3.0642,3.0013,2.9594,2.9295,2.9026,2.8801,2.8906,2.9517,2.9621,2.9864,3.0432,3.0507,3.0778,3.1331,3.1496,3.1496,3.1496,3.1496,3.1496,3.1496,3.1496,3.1496,3.1496,3.1496,3.1496,3.1496,3.1496,3.1496,3.1496,3.1496,3.1496,3.1496,3.1496,3.1496,3.1496,3.1496,3.1496,3.1496,3.1248,3.0955,3.0524,2.9948,2.9021,2.8003,2.691,2.5905,2.4935,2.404,2.3732,2.3401,2.3308,2.3145,2.312,2.3095,2.3095,2.3058,2.3032,2.2995,2.3,2.2857,2.2749,2.2502,2.2112,2.1506,2.0981,2.03,1.9911,1.9874,2.0049,2.0049,3.9388,3.9388,3.9388,3.9388,3.9179,3.8003,3.7404,3.7165,3.6058,3.5489,3.5489,3.5489,3.5489,3.5489,3.5489,3.5489,3.5489,3.5489,3.5489,3.5489,3.5489,3.5429,3.5295,3.4307,3.3619,3.3125,3.2079,3.169,3.154,3.1496,3.1496,3.1496,3.1496,3.1496,3.1496,3.1496,3.1496,3.1496,3.1496,3.1496,3.1496,3.1496,3.1436,3.1406,3.1376,3.1152,3.0731,3.0447,3.0223,2.9819,2.916,2.931,2.9759,2.9834,3.0088,3.0537,3.0746,3.0943,3.1361,3.1496,3.1496,3.1496,3.1496,3.1496,3.1496,3.1496,3.1496,3.1496,3.1496,3.1496,3.1496,3.1496,3.1496,3.1496,3.1496,3.1496,3.1496,3.1496,3.1496,3.1496,3.1496,3.1496,3.1467,3.138,3.1219,3.097,3.0435,2.9704,2.8775,2.7851,2.684,2.589,2.5076,2.426,2.3896,2.3547,2.3321,2.3158,2.312,2.3095,2.3032,2.2982,2.2937,2.2904,2.3056,2.3094,2.3056,2.2522,2.1807,2.1232,2.068,2.0251,1.9974,2.0338,2.0476,3.9388,3.9388,3.9388,3.9388,3.9164,3.8003,3.7404,3.73,3.6058,3.5489,3.5489,3.5489,3.5489,3.5489,3.5489,3.5489,3.5489,3.5489,3.5489,3.5489,3.5489,3.5489,3.5355,3.4607,3.3754,3.3006,3.2512,3.2004,3.166,3.154,3.1496,3.1496,3.1496,3.1496,3.1496,3.1496,3.1496,3.1496,3.1496,3.1496,3.1496,3.1496,3.1496,3.1496,3.1496,3.1436,3.1212,3.0748,3.0673,3.0808,3.0522,3.0328,3.0821,3.0972,3.1032,3.1122,3.1227,3.1331,3.1466,3.1496,3.1496,3.1496,3.1496,3.1496,3.1496,3.1496,3.1496,3.1496,3.1496,3.1496,3.1496,3.1496,3.1496,3.1496,3.1496,3.1496,3.1496,3.1496,3.1496,3.1496,3.1496,3.1496,3.1496,3.1467,3.138,3.1292,3.0896,3.0337,2.9554,2.8708,2.7816,2.6908,2.6004,2.5176,2.4513,2.4016,2.3502,2.3281,2.321,2.3185,2.3135,2.3122,2.3132,2.3234,2.3374,2.3429,2.3475,2.2725,2.1924,2.1479,2.11,2.0706,2.0503,2.0752,2.1016,3.9388,3.9388,3.9388,3.9388,3.9179,3.8018,3.7404,3.7165,3.6058,3.5489,3.5489,3.5489,3.5489,3.5489,3.5489,3.5489,3.5489,3.5489,3.5489,3.5489,3.5489,3.5489,3.5459,3.5115,3.4397,3.3455,3.2721,3.2288,3.1989,3.166,3.1496,3.1496,3.1496,3.1496,3.1496,3.1496,3.1496,3.1496,3.1496,3.1496,3.1496,3.1496,3.1496,3.1496,3.1496,3.1496,3.1421,3.1167,3.1197,3.1316,3.1152,3.1092,3.1406,3.1496,3.1496,3.1496,3.1496,3.1496,3.1496,3.1496,3.1496,3.1496,3.1496,3.1496,3.1496,3.1496,3.1496,3.1496,3.1496,3.1496,3.1496,3.1496,3.1496,3.1496,3.1496,3.1496,3.1496,3.1496,3.1496,3.1496,3.1496,3.1496,3.1496,3.1496,3.1467,3.138,3.1292,3.0778,3.0408,2.9606,2.8819,2.7913,2.6955,2.6086,2.5256,2.4545,2.3752,2.351,2.339,2.3378,2.3382,2.3395,2.3365,2.3484,2.3632,2.3855,2.3774,2.2903,2.2339,2.2133,2.1801,2.1268,2.1046,2.1259,2.1521,3.9388,3.9388,3.9388,3.9328,3.908,3.7928,3.733,3.706,3.6013,3.5489,3.5489,3.5489,3.5489,3.5489,3.5489,3.5489,3.5489,3.5489,3.5489,3.5489,3.5489,3.5489,3.5474,3.5355,3.513,3.4548,3.3529,3.2886,3.2363,3.1944,3.169,3.154,3.1496,3.1496,3.1496,3.1496,3.1496,3.1496,3.1496,3.1496,3.1496,3.1496,3.1496,3.1496,3.1496,3.1496,3.1496,3.1436,3.1481,3.1496,3.1496,3.1496,3.1496,3.1496,3.1496,3.1496,3.1496,3.1496,3.1496,3.1496,3.1496,3.1496,3.1645,3.1585,3.1555,3.163,3.1645,3.154,3.1496,3.1496,3.1496,3.1496,3.1496,3.1496,3.1496,3.1496,3.1496,3.1496,3.1496,3.1496,3.1496,3.1496,3.1496,3.1496,3.1496,3.1467,3.138,3.1234,3.0881,3.048,2.9702,2.9045,2.8173,2.663,2.5658,2.4659,2.3934,2.3764,2.3586,2.3734,2.3721,2.375,2.378,2.3734,2.3868,2.4089,2.4094,2.3489,2.306,2.2888,2.2538,2.2054,2.1863,2.1837,2.2182,3.9388,3.9388,3.9388,3.911,3.8497,3.7719,3.7105,3.6567,3.5848,3.5504,3.5489,3.5489,3.5489,3.5489,3.5489,3.5489,3.5489,3.5489,3.5489,3.5489,3.5489,3.5489,3.5489,3.5489,3.54,3.519,3.4442,3.3619,3.2811,3.2348,3.2004,3.163,3.1496,3.1496,3.1496,3.1496,3.1496,3.1496,3.1496,3.1496,3.1496,3.1496,3.1496,3.1496,3.1496,3.1496,3.1496,3.1496,3.1496,3.1496,3.1496,3.1496,3.1496,3.1496,3.1496,3.1496,3.1496,3.1496,3.1496,3.1496,3.1496,3.1615,3.1944,3.1989,3.1839,3.1989,3.2049,3.1705,3.157,3.154,3.1496,3.1496,3.1496,3.1496,3.1496,3.1496,3.1496,3.1496,3.1496,3.1496,3.1496,3.1496,3.1496,3.1496,3.1496,3.1496,3.1438,3.1409,3.1248,3.094,3.0555,2.9968,2.9434,2.7664,2.5981,2.4873,2.4033,2.3962,2.3927,2.4234,2.4221,2.4205,2.4176,2.416,2.4131,2.4263,2.4131,2.3873,2.3821,2.3682,2.3273,2.2852,2.3026,2.3171,2.3329,3.9388,3.9379,3.9035,3.8706,3.8257,3.733,3.6761,3.6417,3.5789,3.5489,3.5489,3.5489,3.5489,3.5489,3.5489,3.5489,3.5489,3.5489,3.5489,3.5489,3.5489,3.5489,3.5489,3.5489,3.5489,3.5415,3.51,3.4533,3.3529,3.2796,3.2363,3.2034,3.1705,3.1496,3.1496,3.1496,3.1511,3.1511,3.1525,3.1525,3.1511,3.1511,3.1496,3.1496,3.1496,3.1496,3.1496,3.1496,3.1496,3.1496,3.1496,3.1496,3.1496,3.1496,3.1496,3.1496,3.1496,3.1496,3.1496,3.1511,3.1645,3.2004,3.2348,3.2557,3.2602,3.2796,3.2691,3.2213,3.1989,3.1854,3.1555,3.1511,3.1496,3.1496,3.1496,3.1496,3.1496,3.1496,3.1496,3.1496,3.1496,3.1496,3.1496,3.1496,3.1496,3.1496,3.1496,3.1496,3.1496,3.1278,3.097,3.0343,2.9662,2.8115,2.6417,2.5366,2.4543,2.4393,2.4465,2.4738,2.4838,2.4838,2.4723,2.4593,2.4593,2.4523,2.4451,2.4339,2.4394,2.4463,2.415,2.3973,2.4296,2.4523,2.457,3.9388,3.9364,3.8676,3.8317,3.8018,3.6985,3.6402,3.6193,3.5729,3.5489,3.5489,3.5489,3.5489,3.5489,3.5489,3.5489,3.5489,3.5489,3.5489,3.5489,3.5489,3.5489,3.5489,3.5489,3.5489,3.5489,3.5444,3.5145,3.4279,3.332,3.2751,3.2273,3.1809,3.1496,3.1496,3.1705,3.1645,3.1735,3.1869,3.1869,3.1735,3.157,3.1496,3.1496,3.1496,3.1496,3.1496,3.1496,3.1496,3.1496,3.1496,3.1496,3.1496,3.1496,3.1496,3.1496,3.1496,3.1496,3.1525,3.1735,3.1989,3.2333,3.2766,3.3125,3.3245,3.329,3.323,3.2826,3.2482,3.2273,3.1854,3.1585,3.1511,3.1496,3.1496,3.1496,3.1496,3.1496,3.1496,3.1496,3.1496,3.1496,3.1496,3.1496,3.1496,3.1496,3.1496,3.1496,3.1496,3.1438,3.1087,3.0434,2.9563,2.8214,2.692,2.5978,2.5354,2.5095,2.5254,2.5536,2.5563,2.5577,2.5398,2.5203,2.4893,2.4824,2.4789,2.4929,2.5108,2.5161,2.5007,2.5048,2.5245,2.5356,2.5342,3.9388,3.9349,3.8661,3.8063,3.7449,3.6746,3.6133,3.5654,3.5549,3.5504,3.5489,3.5489,3.5489,3.5489,3.5489,3.5489,3.5489,3.5489,3.5489,3.5489,3.5489,3.5489,3.5489,3.5489,3.5489,3.5489,3.5489,3.51,3.4547,3.3784,3.3125,3.2632,3.2093,3.157,3.1839,3.2183,3.2377,3.2467,3.2931,3.2931,3.2392,3.1884,3.1675,3.1615,3.157,3.1585,3.163,3.163,3.1585,3.1511,3.1525,3.1511,3.1496,3.1496,3.1496,3.1496,3.1496,3.1511,3.166,3.1989,3.2437,3.2886,3.3514,3.386,3.3873,3.3724,3.3649,3.3425,3.2961,3.2497,3.2228,3.1839,3.16,3.1496,3.1496,3.1496,3.1496,3.1496,3.1496,3.1496,3.1496,3.1496,3.1496,3.1496,3.1496,3.1496,3.1496,3.1496,3.1496,3.1438,3.1248,3.0598,2.9846,2.8543,2.7695,2.6716,2.621,2.5908,2.612,2.6343,2.6229,2.6176,2.6122,2.5906,2.5522,2.5287,2.5425,2.5589,2.5848,2.5939,2.5902,2.5973,2.6131,2.6149,2.6149,3.9185,3.8766,3.7749,3.715,3.6821,3.6193,3.5774,3.5549,3.5489,3.5489,3.5489,3.5489,3.5489,3.5489,3.5489,3.5489,3.5489,3.5489,3.5489,3.5489,3.5489,3.5489,3.5489,3.5489,3.5489,3.5489,3.5489,3.5429,3.4876,3.4412,3.3858,3.3544,3.2961,3.2706,3.2512,3.2901,3.3051,3.3155,3.332,3.335,3.3066,3.2796,3.2632,3.2587,3.2228,3.2093,3.2064,3.2049,3.1839,3.172,3.1795,3.1854,3.172,3.1824,3.2064,3.2093,3.2452,3.2452,3.2198,3.2392,3.2871,3.3514,3.4189,3.4474,3.4517,3.4562,3.4367,3.4084,3.3845,3.3335,3.2706,3.2243,3.1884,3.166,3.154,3.1496,3.1496,3.1496,3.1496,3.1496,3.1496,3.1496,3.1496,3.1496,3.1496,3.1496,3.1496,3.1496,3.1496,3.1496,3.119,3.0777,2.9984,2.9035,2.8384,2.7609,2.7187,2.6958,2.7057,2.7161,2.6875,2.6788,2.6669,2.6484,2.6136,2.6041,2.6122,2.6147,2.6267,2.6561,2.6864,2.6837,2.6837,2.6956,2.6852,3.8856,3.8302,3.7345,3.6866,3.6641,3.6013,3.5669,3.5504,3.5489,3.5489,3.5489,3.5489,3.5489,3.5489,3.5489,3.5489,3.5489,3.5489,3.5489,3.5489,3.5489,3.5489,3.5489,3.5489,3.5489,3.5489,3.5489,3.5459,3.5325,3.5011,3.4651,3.4488,3.3619,3.3425,3.3499,3.3649,3.3814,3.4098,3.3888,3.3799,3.3694,3.3529,3.344,3.3305,3.3066,3.2766,3.2766,3.2751,3.2422,3.2318,3.2243,3.2273,3.2258,3.2318,3.2572,3.2721,3.3125,3.329,3.3125,3.3245,3.3574,3.4174,3.4743,3.4966,3.528,3.5489,3.537,3.4788,3.4427,3.3873,3.3245,3.2811,3.2273,3.1899,3.1645,3.157,3.1511,3.157,3.154,3.1496,3.1496,3.1496,3.1496,3.1496,3.1496,3.1496,3.1496,3.1511,3.1496,3.1496,3.1248,3.0896,3.03,2.9624,2.9245,2.8661,2.8235,2.7969,2.807,2.7959,2.7697,2.734,2.7086,2.6919,2.6825,2.6861,2.6928,2.6791,2.668,2.693,2.7178,2.7382,2.7484,2.7575,2.7423,3.8437,3.8377,3.8287,3.7883,3.727,3.6686,3.6058,3.5594,3.5519,3.5489,3.5489,3.5489,3.5489,3.5489,3.5489,3.5489,3.5489,3.5489,3.5489,3.5489,3.5489,3.5489,3.5489,3.5489,3.5489,3.5489,3.5489,3.5489,3.5489,3.5385,3.4981,3.4533,3.4128,3.3709,3.3784,3.4233,3.4637,3.4846,3.4666,3.4444,3.4262,3.3993,3.3694,3.3634,3.3514,3.3425,3.3425,3.3425,3.329,3.3125,3.2946,3.2871,3.2961,3.2916,3.3066,3.3395,3.3694,3.3933,3.4098,3.4098,3.4292,3.4653,3.4966,3.5325,3.5474,3.5489,3.5415,3.5295,3.4906,3.4548,3.3933,3.3395,3.2841,3.2452,3.2168,3.1914,3.1824,3.1705,3.1675,3.154,3.1496,3.1496,3.1645,3.1675,3.1795,3.1809,3.1765,3.178,3.154,3.1467,3.1307,3.0999,3.0584,3.0225,3.0151,2.972,2.9217,2.8986,2.8983,2.88,2.8502,2.8114,2.7635,2.7773,2.7779,2.7784,2.7701,2.7528,2.7394,2.7384,2.7463,2.7549,2.7575,2.7549,2.7382,3.902,3.902,3.902,3.8392,3.736,3.6746,3.6342,3.6058,3.5684,3.5489,3.5489,3.5489,3.5489,3.5489,3.5489,3.5489,3.5489,3.5489,3.5489,3.5489,3.5489,3.5489,3.5489,3.5489,3.5489,3.5489,3.5489,3.5489,3.5489,3.5489,3.54,3.504,3.4726,3.4801,3.4891,3.4861,3.519,3.531,3.5265,3.51,3.5055,3.4936,3.4741,3.4726,3.4218,3.4174,3.4129,3.4098,3.3873,3.3664,3.3634,3.3649,3.3664,3.3589,3.3784,3.4098,3.4382,3.4741,3.4846,3.4786,3.4651,3.51,3.5355,3.5489,3.5489,3.5489,3.5489,3.5385,3.525,3.4936,3.4399,3.4023,3.3664,3.323,3.2826,3.2452,3.2258,3.2138,3.1989,3.1959,3.169,3.1496,3.169,3.1899,3.2034,3.2153,3.2079,3.2019,3.1854,3.163,3.1529,3.1308,3.094,3.0762,3.0673,3.0426,3.0178,3.0027,2.985,2.9558,2.919,2.8652,2.8301,2.8532,2.8682,2.8611,2.8454,2.8211,2.8018,2.7801,2.7658,2.7575,2.7575,2.7569,2.7408,3.9388,3.9358,3.92,3.8467,3.7404,3.6941,3.6537,3.6133,3.5699,3.5489,3.5489,3.5489,3.5489,3.5489,3.5539,3.5604,3.5636,3.5668,3.5683,3.5651,3.5604,3.5554,3.5489,3.5489,3.5489,3.5489,3.5489,3.5489,3.5489,3.5489,3.5459,3.5444,3.5489,3.5415,3.5415,3.5489,3.5489,3.5489,3.5489,3.5489,3.5474,3.5444,3.5429,3.537,3.4981,3.4816,3.4786,3.4771,3.4607,3.4414,3.4324,3.4307,3.4277,3.4337,3.4608,3.4876,3.5175,3.5474,3.5355,3.519,3.4996,3.5355,3.5444,3.5489,3.5489,3.5489,3.5489,3.5489,3.5459,3.5295,3.4758,3.4502,3.4233,3.3769,3.338,3.3036,3.2916,3.2796,3.2587,3.2422,3.2213,3.2243,3.2512,3.2811,3.2841,3.2931,3.2796,3.2706,3.2542,3.2258,3.1915,3.1678,3.1368,3.1264,3.1176,3.094,3.0733,3.0658,3.047,3.0182,2.9789,2.925,2.8951,2.9101,2.922,2.931,2.9253,2.9095,2.8614,2.8083,2.7929,2.775,2.7884,2.7904,2.7634,3.9388,3.9298,3.8721,3.8048,3.7419,3.7375,3.6701,3.5804,3.5564,3.5489,3.5489,3.5489,3.5489,3.5522,3.5621,3.5799,3.599,3.6005,3.6005,3.599,3.5831,3.5653,3.5554,3.5489,3.5489,3.5489,3.5489,3.5489,3.5489,3.5489,3.5489,3.5489,3.5489,3.5489,3.5489,3.5489,3.5489,3.5489,3.5489,3.5489,3.5489,3.5489,3.5489,3.5459,3.54,3.528,3.5265,3.528,3.516,3.51,3.4741,3.4816,3.513,3.4741,3.4876,3.5355,3.5415,3.5489,3.5474,3.5459,3.5459,3.5474,3.5489,3.5489,3.5489,3.5489,3.5489,3.5489,3.5489,3.5489,3.5205,3.4936,3.4637,3.4412,3.4038,3.3739,3.3619,3.3455,3.3275,3.2946,3.3185,3.3455,3.3649,3.3814,3.3829,3.3769,3.3559,3.3365,3.317,3.2841,3.2482,3.2064,3.1782,3.1544,3.1455,3.1439,3.1333,3.1243,3.1077,3.0748,3.0402,2.9939,2.9759,2.9759,2.9819,2.9924,2.9998,3.0028,2.9475,2.8921,2.8229,2.8019,2.8169,2.8214,2.7989,3.9388,3.9328,3.8691,3.8018,3.7389,3.6956,3.6522,3.6118,3.5729,3.5489,3.5489,3.5489,3.5489,3.5587,3.5861,3.6101,3.6384,3.6461,3.6461,3.6368,3.6149,3.5814,3.5619,3.5489,3.5489,3.5489,3.5489,3.5489,3.5489,3.5489,3.5489,3.5489,3.5489,3.5489,3.5489,3.5489,3.5489,3.5489,3.5489,3.5489,3.5489,3.5489,3.5489,3.5489,3.5489,3.5489,3.5489,3.5489,3.5489,3.5489,3.51,3.525,3.5474,3.51,3.5235,3.5474,3.5489,3.5489,3.5489,3.5489,3.5489,3.5489,3.5489,3.5489,3.5489,3.5489,3.5489,3.5489,3.5489,3.5489,3.537,3.531,3.516,3.5175,3.4891,3.4592,3.4397,3.4249,3.4024,3.3529,3.3499,3.3888,3.4204,3.4382,3.4457,3.4517,3.4337,3.3888,3.3619,3.338,3.3051,3.2557,3.2198,3.1885,3.1705,3.1615,3.1525,3.1391,3.1376,3.1286,3.0941,3.0537,3.0582,3.0612,3.0554,3.0524,3.0599,3.0612,3.0328,2.9819,2.9262,2.8873,2.9007,2.8831,2.8412,3.9388,3.9284,3.8437,3.7808,3.7345,3.6746,3.6372,3.6118,3.5734,3.5604,3.5683,3.5748,3.5812,3.5957,3.6258,3.6585,3.6935,3.7028,3.686,3.6753,3.643,3.6005,3.5651,3.5489,3.5489,3.5489,3.5489,3.5489,3.5489,3.5489,3.5489,3.5489,3.5489,3.5489,3.5489,3.5489,3.5489,3.5489,3.5489,3.5489,3.5489,3.5489,3.5489,3.5489,3.5489,3.5489,3.5489,3.5489,3.5489,3.5489,3.5489,3.5489,3.5489,3.5489,3.5489,3.5489,3.5489,3.5489,3.5489,3.5489,3.5489,3.5489,3.5489,3.5489,3.5489,3.5489,3.5489,3.5489,3.5489,3.5489,3.5489,3.5489,3.5489,3.5489,3.537,3.5055,3.4981,3.4786,3.4743,3.4233,3.4128,3.4457,3.4651,3.4831,3.4996,3.5055,3.51,3.4607,3.4143,3.3918,3.3679,3.3245,3.2691,3.2258,3.1929,3.1675,3.1585,3.1511,3.1496,3.1496,3.1406,3.1032,3.1227,3.1361,3.1137,3.1032,3.1197,3.1152,3.0853,3.0731,3.0522,3.0193,2.9983,2.949,2.8966,3.9388,3.9179,3.7973,3.7494,3.7345,3.681,3.6133,3.5582,3.5653,3.5816,3.6022,3.6164,3.6367,3.6631,3.7028,3.7385,3.7589,3.7711,3.746,3.7087,3.6723,3.6163,3.5683,3.5489,3.5489,3.5489,3.5489,3.5489,3.5489,3.5489,3.5489,3.5489,3.5489,3.5489,3.5489,3.5489,3.5489,3.5489,3.5489,3.5489,3.5489,3.5489,3.5489,3.5489,3.5489,3.5489,3.5489,3.5489,3.5489,3.5489,3.5489,3.5489,3.5489,3.5489,3.5489,3.5489,3.5489,3.5489,3.5489,3.5489,3.5489,3.5489,3.5489,3.5489,3.5489,3.5489,3.5489,3.5489,3.5489,3.5489,3.5489,3.5489,3.5489,3.5489,3.5489,3.54,3.5415,3.5355,3.5355,3.5205,3.5175,3.528,3.5235,3.5355,3.5265,3.531,3.5325,3.5265,3.4846,3.4651,3.4367,3.4008,3.341,3.2677,3.2258,3.1854,3.16,3.1496,3.1496,3.1496,3.1451,3.1436,3.1436,3.1436,3.1466,3.1481,3.1436,3.1451,3.1406,3.1271,3.1092,3.0972,3.0612,3.0043,2.952,3.9388,3.9298,3.8467,3.8108,3.7978,3.706,3.6202,3.5582,3.5782,3.6101,3.6446,3.6707,3.7057,3.7474,3.7809,3.8149,3.8334,3.8367,3.7998,3.7562,3.6982,3.6258,3.5765,3.5489,3.5489,3.5489,3.5489,3.5489,3.5489,3.5489,3.5489,3.5489,3.5489,3.5489,3.5489,3.5489,3.5489,3.5489,3.5489,3.5549,3.5564,3.5594,3.5594,3.5654,3.5609,3.5609,3.5594,3.5519,3.5504,3.5489,3.5489,3.5489,3.5489,3.5489,3.5489,3.5489,3.5489,3.5489,3.5489,3.5489,3.5489,3.5489,3.5489,3.5489,3.5489,3.5489,3.5489,3.5489,3.5489,3.5489,3.5489,3.5489,3.5489,3.5489,3.5489,3.5489,3.5489,3.5489,3.5489,3.5489,3.5489,3.5489,3.5489,3.5474,3.54,3.5459,3.5489,3.5489,3.5444,3.519,3.4966,3.4607,3.3844,3.3036,3.2422,3.1959,3.169,3.1496,3.1496,3.1496,3.1481,3.1481,3.1496,3.1496,3.1496,3.1496,3.1496,3.1496,3.1496,3.1496,3.1346,3.1331,3.1182,3.0642,3.0163,3.9185,3.9275,3.8392,3.7883,3.7558,3.7059,3.6466,3.6066,3.6258,3.66,3.701,3.734,3.7709,3.7982,3.8311,3.8618,3.8849,3.8662,3.8327,3.7706,3.7191,3.6352,3.5797,3.5489,3.5489,3.5489,3.5489,3.5489,3.5489,3.5489,3.5489,3.5489,3.5489,3.5489,3.5489,3.5489,3.5489,3.5489,3.5534,3.5669,3.5789,3.5893,3.5998,3.6118,3.6043,3.5878,3.5818,3.5714,3.5504,3.5489,3.5489,3.5489,3.5489,3.5489,3.5489,3.5489,3.5489,3.5489,3.5489,3.5489,3.5489,3.5489,3.5489,3.5489,3.5489,3.5489,3.5489,3.5489,3.5489,3.5489,3.5489,3.5489,3.5489,3.5489,3.5489,3.5489,3.5489,3.5489,3.5489,3.5489,3.5489,3.5489,3.5489,3.5489,3.5489,3.5489,3.5489,3.5489,3.5489,3.54,3.528,3.5055,3.4173,3.329,3.2721,3.2108,3.1705,3.1496,3.1496,3.1496,3.1496,3.1496,3.1496,3.1496,3.1496,3.1496,3.1496,3.1496,3.1496,3.1496,3.1496,3.1451,3.1391,3.1197,3.0778,3.8766,3.9215,3.8003,3.7289,3.6727,3.7061,3.7026,3.6753,3.6981,3.7294,3.7735,3.8026,3.8242,3.8423,3.8662,3.8816,3.8882,3.8788,3.8383,3.7748,3.7191,3.6414,3.5733,3.5489,3.5489,3.5489,3.5489,3.5489,3.5489,3.5489,3.5489,3.5489,3.5489,3.5489,3.5489,3.5489,3.5489,3.5489,3.5579,3.5729,3.6237,3.6522,3.6746,3.709,3.6806,3.6417,3.6267,3.5953,3.5489,3.5489,3.5489,3.5489,3.5489,3.5489,3.5489,3.5489,3.5489,3.5489,3.5489,3.5489,3.5489,3.5489,3.5489,3.5489,3.5489,3.5489,3.5489,3.5489,3.5489,3.5489,3.5489,3.5489,3.5489,3.5489,3.5489,3.5489,3.5489,3.5489,3.5489,3.5489,3.5489,3.5489,3.5489,3.5489,3.5489,3.5489,3.5489,3.5489,3.5489,3.5489,3.5444,3.5325,3.4307,3.3425,3.3051,3.2452,3.1735,3.1496,3.1496,3.1496,3.1496,3.1496,3.1496,3.1496,3.1496,3.1496,3.1496,3.1496,3.1496,3.1496,3.1496,3.1496,3.1466,3.1406,3.1271,3.8482,3.8637,3.8442,3.8069,3.7682,3.8198,3.8013,3.7445,3.8067,3.8407,3.8596,3.8701,3.8728,3.8767,3.8843,3.8925,3.8865,3.8634,3.8282,3.7735,3.7161,3.6383,3.5651,3.5489,3.5489,3.5489,3.5489,3.5489,3.5489,3.5489,3.5489,3.5489,3.5489,3.5489,3.5489,3.5489,3.5489,3.5489,3.5549,3.5893,3.6492,3.6596,3.6746,3.706,3.6941,3.6596,3.6342,3.5893,3.5609,3.5489,3.5489,3.5489,3.5489,3.5504,3.5504,3.5489,3.5489,3.5489,3.5489,3.5489,3.5489,3.5489,3.5489,3.5489,3.5489,3.5489,3.5489,3.5489,3.5489,3.5489,3.5489,3.5489,3.5489,3.5489,3.5489,3.5489,3.5489,3.5489,3.5489,3.5489,3.5489,3.5489,3.5489,3.5489,3.5489,3.5489,3.5489,3.5489,3.5489,3.5489,3.5489,3.522,3.4218,3.3469,3.3185,3.2587,3.1765,3.1496,3.1496,3.1496,3.1496,3.1496,3.1496,3.1496,3.1496,3.1496,3.1496,3.1496,3.1496,3.1496,3.1496,3.1496,3.1496,3.1466,3.1421,3.7958,3.7993,3.8235,3.8113,3.7931,3.8497,3.8515,3.8335,3.881,3.9189,3.9375,3.9276,3.9115,3.8957,3.8925,3.886,3.8728,3.8411,3.801,3.7531,3.6996,3.6274,3.5797,3.5489,3.5489,3.5489,3.5489,3.5489,3.5489,3.5489,3.5489,3.5489,3.5489,3.5489,3.5489,3.5489,3.5489,3.5489,3.5489,3.5998,3.6716,3.6926,3.7449,3.7749,3.7524,3.7075,3.6552,3.6133,3.5818,3.5968,3.6237,3.6148,3.6103,3.5998,3.5789,3.5594,3.5489,3.5489,3.5489,3.5489,3.5489,3.5489,3.5489,3.5489,3.5489,3.5489,3.5489,3.5489,3.5489,3.5489,3.5489,3.5489,3.5489,3.5489,3.5489,3.5489,3.5489,3.5489,3.5489,3.5489,3.5489,3.5489,3.5489,3.5489,3.5489,3.5489,3.5489,3.5489,3.5489,3.5489,3.5489,3.522,3.4277,3.3649,3.3365,3.2602,3.1645,3.1496,3.1496,3.1496,3.1496,3.1496,3.1496,3.1496,3.1496,3.1496,3.1496,3.1496,3.1496,3.1496,3.1496,3.1496,3.1496,3.1496,3.1466,3.73,3.7319,3.7657,3.7757,3.7779,3.8412,3.8769,3.898,3.9312,3.967,3.9944,3.9668,3.9335,3.905,3.8832,3.8667,3.8427,3.8042,3.765,3.7221,3.6723,3.6132,3.5748,3.5489,3.5489,3.5489,3.5489,3.5489,3.5489,3.5489,3.5489,3.5489,3.5489,3.5489,3.5504,3.5489,3.5489,3.5489,3.5669,3.6252,3.6851,3.7449,3.8153,3.8407,3.8302,3.7614,3.715,3.6686,3.6252,3.6462,3.6941,3.6851,3.6641,3.6432,3.6103,3.5863,3.5564,3.5534,3.5489,3.5489,3.5489,3.5489,3.5489,3.5489,3.5489,3.5489,3.5489,3.5489,3.5489,3.5489,3.5489,3.5489,3.5489,3.5489,3.5489,3.5489,3.5489,3.5489,3.5489,3.5489,3.5489,3.5489,3.5489,3.5489,3.5489,3.5489,3.5489,3.5489,3.5489,3.5489,3.5489,3.519,3.4532,3.4008,3.3559,3.2751,3.1765,3.1496,3.1496,3.1496,3.1496,3.1496,3.1496,3.1496,3.1496,3.1496,3.1496,3.1496,3.1496,3.1496,3.1496,3.1496,3.1496,3.1496,3.1496,3.6656,3.669,3.7157,3.7602,3.8074,3.8832,3.9226,3.9335,3.9661,3.9935,3.9986,3.9781,3.9408,3.8914,3.8717,3.8455,3.7985,3.7608,3.7191,3.6722,3.6399,3.5973,3.5651,3.5489,3.5489,3.5489,3.5489,3.5489,3.5489,3.5489,3.5489,3.5489,3.5489,3.5504,3.5549,3.5564,3.5639,3.5699,3.5878,3.6327,3.7105,3.7689,3.8242,3.8512,3.8646,3.8332,3.7973,3.7449,3.7225,3.724,3.7389,3.7404,3.721,3.6896,3.6552,3.6163,3.5848,3.5609,3.5564,3.5504,3.5489,3.5489,3.5489,3.5489,3.5489,3.5489,3.5489,3.5489,3.5489,3.5489,3.5489,3.5489,3.5489,3.5489,3.5489,3.5489,3.5489,3.5489,3.5489,3.5489,3.5489,3.5489,3.5489,3.5489,3.5489,3.5489,3.5489,3.5489,3.5489,3.5489,3.5489,3.5145,3.4726,3.4143,3.3589,3.2946,3.2123,3.178,3.1496,3.1496,3.1496,3.1496,3.1496,3.1496,3.1496,3.1496,3.1496,3.1496,3.1496,3.1496,3.1496,3.1496,3.1496,3.1496,3.1496]}]]